<?xml version="1.0" encoding="UTF-8" standalone="no" ?>
<gpx xmlns="http://www.topografix.com/GPX/1/1" xmlns:xsi="http://www.w3.org/2001/XMLSchema-instance" xsi:schemaLocation="http://www.topografix.com/GPX/1/1 http://www.topografix.com/GPX/1/1/gpx.xsd" version="1.1" creator="VisuGPX - https://www.visugpx.com">
  <metadata>
    <name>2018-06-13pm Bike ride VTT-Amberieux to Ford garage Genay 12k</name>
    <desc><![CDATA[2018-06-13pm Bike ride VTT-Amberieux to Ford garage Genay 12k]]></desc>
  </metadata>
  <wpt lat="45.92453" lon="4.73736">
    <ele>174</ele>
    <name><![CDATA[2018-06-13 15:30 (Start)]]></name>
  </wpt>
  <wpt lat="45.89064" lon="4.8271">
    <ele>173</ele>
    <name><![CDATA[2018-06-13 15:30 (End)]]></name>
  </wpt>
  <trk>
    <name><![CDATA[2018-06-13 15:30]]></name>
    <trkseg>
      <trkpt lat="45.92453" lon="4.73736">
        <ele>174</ele>
        <time>2018-06-13T13:30:29.92Z</time>
      </trkpt>
      <trkpt lat="45.92453" lon="4.73733">
        <ele>174</ele>
        <time>2018-06-13T13:30:36Z</time>
      </trkpt>
      <trkpt lat="45.92454" lon="4.73733">
        <ele>174</ele>
        <time>2018-06-13T13:30:37Z</time>
      </trkpt>
      <trkpt lat="45.92454" lon="4.73728">
        <ele>174</ele>
        <time>2018-06-13T13:30:51Z</time>
      </trkpt>
      <trkpt lat="45.92454" lon="4.73728">
        <ele>174</ele>
        <time>2018-06-13T13:30:52Z</time>
      </trkpt>
      <trkpt lat="45.92462" lon="4.73723">
        <ele>174</ele>
        <time>2018-06-13T13:31:26Z</time>
      </trkpt>
      <trkpt lat="45.92463" lon="4.73722">
        <ele>174</ele>
        <time>2018-06-13T13:31:27Z</time>
      </trkpt>
      <trkpt lat="45.92466" lon="4.73712">
        <ele>174</ele>
        <time>2018-06-13T13:31:30Z</time>
      </trkpt>
      <trkpt lat="45.92467" lon="4.73708">
        <ele>174</ele>
        <time>2018-06-13T13:31:31Z</time>
      </trkpt>
      <trkpt lat="45.92467" lon="4.73695">
        <ele>174</ele>
        <time>2018-06-13T13:31:34Z</time>
      </trkpt>
      <trkpt lat="45.92468" lon="4.73691">
        <ele>174</ele>
        <time>2018-06-13T13:31:35Z</time>
      </trkpt>
      <trkpt lat="45.92468" lon="4.73681">
        <ele>174</ele>
        <time>2018-06-13T13:31:37Z</time>
      </trkpt>
      <trkpt lat="45.92469" lon="4.73677">
        <ele>174</ele>
        <time>2018-06-13T13:31:38Z</time>
      </trkpt>
      <trkpt lat="45.9247" lon="4.73668">
        <ele>174</ele>
        <time>2018-06-13T13:31:40Z</time>
      </trkpt>
      <trkpt lat="45.92471" lon="4.73663">
        <ele>174</ele>
        <time>2018-06-13T13:31:41Z</time>
      </trkpt>
      <trkpt lat="45.92475" lon="4.73653">
        <ele>174</ele>
        <time>2018-06-13T13:31:44Z</time>
      </trkpt>
      <trkpt lat="45.92477" lon="4.7365">
        <ele>174</ele>
        <time>2018-06-13T13:31:45Z</time>
      </trkpt>
      <trkpt lat="45.92483" lon="4.73647">
        <ele>174</ele>
        <time>2018-06-13T13:31:47Z</time>
      </trkpt>
      <trkpt lat="45.92487" lon="4.73646">
        <ele>174</ele>
        <time>2018-06-13T13:31:48Z</time>
      </trkpt>
      <trkpt lat="45.9249" lon="4.73645">
        <ele>174</ele>
        <time>2018-06-13T13:31:49Z</time>
      </trkpt>
      <trkpt lat="45.92499" lon="4.73644">
        <ele>174</ele>
        <time>2018-06-13T13:31:50Z</time>
      </trkpt>
      <trkpt lat="45.92507" lon="4.73642">
        <ele>174</ele>
        <time>2018-06-13T13:31:52Z</time>
      </trkpt>
      <trkpt lat="45.9251" lon="4.73641">
        <ele>174</ele>
        <time>2018-06-13T13:31:53Z</time>
      </trkpt>
      <trkpt lat="45.92512" lon="4.73641">
        <ele>174</ele>
        <time>2018-06-13T13:31:54Z</time>
      </trkpt>
      <trkpt lat="45.92519" lon="4.73641">
        <ele>173</ele>
        <time>2018-06-13T13:31:55Z</time>
      </trkpt>
      <trkpt lat="45.92527" lon="4.73641">
        <ele>173</ele>
        <time>2018-06-13T13:31:57Z</time>
      </trkpt>
      <trkpt lat="45.92532" lon="4.7364">
        <ele>173</ele>
        <time>2018-06-13T13:31:58Z</time>
      </trkpt>
      <trkpt lat="45.92536" lon="4.73639">
        <ele>173</ele>
        <time>2018-06-13T13:31:59Z</time>
      </trkpt>
      <trkpt lat="45.92541" lon="4.73638">
        <ele>173</ele>
        <time>2018-06-13T13:32:00Z</time>
      </trkpt>
      <trkpt lat="45.92547" lon="4.73634">
        <ele>173</ele>
        <time>2018-06-13T13:32:01Z</time>
      </trkpt>
      <trkpt lat="45.92552" lon="4.73632">
        <ele>173</ele>
        <time>2018-06-13T13:32:02Z</time>
      </trkpt>
      <trkpt lat="45.92557" lon="4.73631">
        <ele>173</ele>
        <time>2018-06-13T13:32:03Z</time>
      </trkpt>
      <trkpt lat="45.92561" lon="4.7363">
        <ele>173</ele>
        <time>2018-06-13T13:32:04Z</time>
      </trkpt>
      <trkpt lat="45.92566" lon="4.73629">
        <ele>173</ele>
        <time>2018-06-13T13:32:05Z</time>
      </trkpt>
      <trkpt lat="45.9257" lon="4.73628">
        <ele>173</ele>
        <time>2018-06-13T13:32:06Z</time>
      </trkpt>
      <trkpt lat="45.92575" lon="4.73625">
        <ele>173</ele>
        <time>2018-06-13T13:32:07Z</time>
      </trkpt>
      <trkpt lat="45.92579" lon="4.73624">
        <ele>173</ele>
        <time>2018-06-13T13:32:08Z</time>
      </trkpt>
      <trkpt lat="45.92587" lon="4.73623">
        <ele>173</ele>
        <time>2018-06-13T13:32:10Z</time>
      </trkpt>
      <trkpt lat="45.92591" lon="4.73623">
        <ele>173</ele>
        <time>2018-06-13T13:32:11Z</time>
      </trkpt>
      <trkpt lat="45.92595" lon="4.73621">
        <ele>173</ele>
        <time>2018-06-13T13:32:12Z</time>
      </trkpt>
      <trkpt lat="45.926" lon="4.73621">
        <ele>173</ele>
        <time>2018-06-13T13:32:13Z</time>
      </trkpt>
      <trkpt lat="45.92608" lon="4.73621">
        <ele>173</ele>
        <time>2018-06-13T13:32:15Z</time>
      </trkpt>
      <trkpt lat="45.92612" lon="4.73623">
        <ele>173</ele>
        <time>2018-06-13T13:32:16Z</time>
      </trkpt>
      <trkpt lat="45.92617" lon="4.73624">
        <ele>173</ele>
        <time>2018-06-13T13:32:17Z</time>
      </trkpt>
      <trkpt lat="45.92621" lon="4.7363">
        <ele>173</ele>
        <time>2018-06-13T13:32:18Z</time>
      </trkpt>
      <trkpt lat="45.92625" lon="4.73633">
        <ele>173</ele>
        <time>2018-06-13T13:32:19Z</time>
      </trkpt>
      <trkpt lat="45.92628" lon="4.73638">
        <ele>173</ele>
        <time>2018-06-13T13:32:20Z</time>
      </trkpt>
      <trkpt lat="45.92632" lon="4.73647">
        <ele>173</ele>
        <time>2018-06-13T13:32:22Z</time>
      </trkpt>
      <trkpt lat="45.92633" lon="4.73651">
        <ele>173</ele>
        <time>2018-06-13T13:32:23Z</time>
      </trkpt>
      <trkpt lat="45.92638" lon="4.73658">
        <ele>173</ele>
        <time>2018-06-13T13:32:25Z</time>
      </trkpt>
      <trkpt lat="45.9264" lon="4.73663">
        <ele>173</ele>
        <time>2018-06-13T13:32:26Z</time>
      </trkpt>
      <trkpt lat="45.92645" lon="4.73673">
        <ele>173</ele>
        <time>2018-06-13T13:32:28Z</time>
      </trkpt>
      <trkpt lat="45.92648" lon="4.73677">
        <ele>173</ele>
        <time>2018-06-13T13:32:29Z</time>
      </trkpt>
      <trkpt lat="45.92651" lon="4.73681">
        <ele>173</ele>
        <time>2018-06-13T13:32:30Z</time>
      </trkpt>
      <trkpt lat="45.92655" lon="4.73684">
        <ele>173</ele>
        <time>2018-06-13T13:32:31Z</time>
      </trkpt>
      <trkpt lat="45.9266" lon="4.73688">
        <ele>173</ele>
        <time>2018-06-13T13:32:32Z</time>
      </trkpt>
      <trkpt lat="45.92664" lon="4.7369">
        <ele>173</ele>
        <time>2018-06-13T13:32:33Z</time>
      </trkpt>
      <trkpt lat="45.92668" lon="4.73693">
        <ele>174</ele>
        <time>2018-06-13T13:32:34Z</time>
      </trkpt>
      <trkpt lat="45.92672" lon="4.73695">
        <ele>174</ele>
        <time>2018-06-13T13:32:35Z</time>
      </trkpt>
      <trkpt lat="45.92681" lon="4.73697">
        <ele>173</ele>
        <time>2018-06-13T13:32:37Z</time>
      </trkpt>
      <trkpt lat="45.92686" lon="4.737">
        <ele>173</ele>
        <time>2018-06-13T13:32:38Z</time>
      </trkpt>
      <trkpt lat="45.92691" lon="4.73701">
        <ele>173</ele>
        <time>2018-06-13T13:32:39Z</time>
      </trkpt>
      <trkpt lat="45.92695" lon="4.73703">
        <ele>173</ele>
        <time>2018-06-13T13:32:40Z</time>
      </trkpt>
      <trkpt lat="45.92699" lon="4.73705">
        <ele>173</ele>
        <time>2018-06-13T13:32:41Z</time>
      </trkpt>
      <trkpt lat="45.92704" lon="4.73705">
        <ele>173</ele>
        <time>2018-06-13T13:32:42Z</time>
      </trkpt>
      <trkpt lat="45.9271" lon="4.73711">
        <ele>173</ele>
        <time>2018-06-13T13:32:43Z</time>
      </trkpt>
      <trkpt lat="45.92715" lon="4.73713">
        <ele>173</ele>
        <time>2018-06-13T13:32:44Z</time>
      </trkpt>
      <trkpt lat="45.9272" lon="4.73714">
        <ele>173</ele>
        <time>2018-06-13T13:32:45Z</time>
      </trkpt>
      <trkpt lat="45.92725" lon="4.73715">
        <ele>173</ele>
        <time>2018-06-13T13:32:46Z</time>
      </trkpt>
      <trkpt lat="45.9273" lon="4.73716">
        <ele>173</ele>
        <time>2018-06-13T13:32:47Z</time>
      </trkpt>
      <trkpt lat="45.92735" lon="4.73717">
        <ele>173</ele>
        <time>2018-06-13T13:32:48Z</time>
      </trkpt>
      <trkpt lat="45.9274" lon="4.73718">
        <ele>173</ele>
        <time>2018-06-13T13:32:49Z</time>
      </trkpt>
      <trkpt lat="45.92745" lon="4.73719">
        <ele>173</ele>
        <time>2018-06-13T13:32:50Z</time>
      </trkpt>
      <trkpt lat="45.92753" lon="4.73722">
        <ele>172</ele>
        <time>2018-06-13T13:32:52Z</time>
      </trkpt>
      <trkpt lat="45.92757" lon="4.73722">
        <ele>172</ele>
        <time>2018-06-13T13:32:53Z</time>
      </trkpt>
      <trkpt lat="45.92764" lon="4.73724">
        <ele>172</ele>
        <time>2018-06-13T13:32:55Z</time>
      </trkpt>
      <trkpt lat="45.92768" lon="4.73725">
        <ele>172</ele>
        <time>2018-06-13T13:32:56Z</time>
      </trkpt>
      <trkpt lat="45.92775" lon="4.7373">
        <ele>172</ele>
        <time>2018-06-13T13:33:00Z</time>
      </trkpt>
      <trkpt lat="45.92776" lon="4.73732">
        <ele>172</ele>
        <time>2018-06-13T13:33:01Z</time>
      </trkpt>
      <trkpt lat="45.92777" lon="4.73738">
        <ele>172</ele>
        <time>2018-06-13T13:33:04Z</time>
      </trkpt>
      <trkpt lat="45.92782" lon="4.73745">
        <ele>172</ele>
        <time>2018-06-13T13:33:05Z</time>
      </trkpt>
      <trkpt lat="45.9279" lon="4.73749">
        <ele>172</ele>
        <time>2018-06-13T13:33:07Z</time>
      </trkpt>
      <trkpt lat="45.92795" lon="4.7375">
        <ele>173</ele>
        <time>2018-06-13T13:33:08Z</time>
      </trkpt>
      <trkpt lat="45.92801" lon="4.73751">
        <ele>173</ele>
        <time>2018-06-13T13:33:09Z</time>
      </trkpt>
      <trkpt lat="45.92806" lon="4.73755">
        <ele>173</ele>
        <time>2018-06-13T13:33:10Z</time>
      </trkpt>
      <trkpt lat="45.9281" lon="4.73758">
        <ele>173</ele>
        <time>2018-06-13T13:33:11Z</time>
      </trkpt>
      <trkpt lat="45.92816" lon="4.73762">
        <ele>172</ele>
        <time>2018-06-13T13:33:12Z</time>
      </trkpt>
      <trkpt lat="45.92819" lon="4.73764">
        <ele>172</ele>
        <time>2018-06-13T13:33:13Z</time>
      </trkpt>
      <trkpt lat="45.92824" lon="4.73768">
        <ele>172</ele>
        <time>2018-06-13T13:33:14Z</time>
      </trkpt>
      <trkpt lat="45.92827" lon="4.73771">
        <ele>173</ele>
        <time>2018-06-13T13:33:15Z</time>
      </trkpt>
      <trkpt lat="45.92833" lon="4.73773">
        <ele>173</ele>
        <time>2018-06-13T13:33:16Z</time>
      </trkpt>
      <trkpt lat="45.92838" lon="4.73776">
        <ele>172</ele>
        <time>2018-06-13T13:33:17Z</time>
      </trkpt>
      <trkpt lat="45.92842" lon="4.7378">
        <ele>173</ele>
        <time>2018-06-13T13:33:18Z</time>
      </trkpt>
      <trkpt lat="45.92845" lon="4.73783">
        <ele>173</ele>
        <time>2018-06-13T13:33:19Z</time>
      </trkpt>
      <trkpt lat="45.92849" lon="4.73788">
        <ele>173</ele>
        <time>2018-06-13T13:33:20Z</time>
      </trkpt>
      <trkpt lat="45.92853" lon="4.73797">
        <ele>173</ele>
        <time>2018-06-13T13:33:22Z</time>
      </trkpt>
      <trkpt lat="45.92854" lon="4.73803">
        <ele>173</ele>
        <time>2018-06-13T13:33:23Z</time>
      </trkpt>
      <trkpt lat="45.92856" lon="4.7381">
        <ele>173</ele>
        <time>2018-06-13T13:33:24Z</time>
      </trkpt>
      <trkpt lat="45.92857" lon="4.73816">
        <ele>173</ele>
        <time>2018-06-13T13:33:25Z</time>
      </trkpt>
      <trkpt lat="45.92859" lon="4.73822">
        <ele>173</ele>
        <time>2018-06-13T13:33:26Z</time>
      </trkpt>
      <trkpt lat="45.92861" lon="4.73828">
        <ele>173</ele>
        <time>2018-06-13T13:33:27Z</time>
      </trkpt>
      <trkpt lat="45.92863" lon="4.73835">
        <ele>173</ele>
        <time>2018-06-13T13:33:28Z</time>
      </trkpt>
      <trkpt lat="45.92864" lon="4.73841">
        <ele>173</ele>
        <time>2018-06-13T13:33:29Z</time>
      </trkpt>
      <trkpt lat="45.92867" lon="4.73852">
        <ele>173</ele>
        <time>2018-06-13T13:33:31Z</time>
      </trkpt>
      <trkpt lat="45.92869" lon="4.73857">
        <ele>173</ele>
        <time>2018-06-13T13:33:32Z</time>
      </trkpt>
      <trkpt lat="45.92871" lon="4.73865">
        <ele>173</ele>
        <time>2018-06-13T13:33:33Z</time>
      </trkpt>
      <trkpt lat="45.92872" lon="4.73872">
        <ele>173</ele>
        <time>2018-06-13T13:33:34Z</time>
      </trkpt>
      <trkpt lat="45.92874" lon="4.73878">
        <ele>173</ele>
        <time>2018-06-13T13:33:35Z</time>
      </trkpt>
      <trkpt lat="45.92875" lon="4.73885">
        <ele>173</ele>
        <time>2018-06-13T13:33:36Z</time>
      </trkpt>
      <trkpt lat="45.92877" lon="4.73891">
        <ele>173</ele>
        <time>2018-06-13T13:33:37Z</time>
      </trkpt>
      <trkpt lat="45.92878" lon="4.73897">
        <ele>173</ele>
        <time>2018-06-13T13:33:38Z</time>
      </trkpt>
      <trkpt lat="45.92878" lon="4.73903">
        <ele>173</ele>
        <time>2018-06-13T13:33:39Z</time>
      </trkpt>
      <trkpt lat="45.92878" lon="4.7391">
        <ele>173</ele>
        <time>2018-06-13T13:33:40Z</time>
      </trkpt>
      <trkpt lat="45.92879" lon="4.73923">
        <ele>172</ele>
        <time>2018-06-13T13:33:42Z</time>
      </trkpt>
      <trkpt lat="45.92879" lon="4.73929">
        <ele>172</ele>
        <time>2018-06-13T13:33:43Z</time>
      </trkpt>
      <trkpt lat="45.92879" lon="4.73936">
        <ele>172</ele>
        <time>2018-06-13T13:33:44Z</time>
      </trkpt>
      <trkpt lat="45.9288" lon="4.73944">
        <ele>172</ele>
        <time>2018-06-13T13:33:45Z</time>
      </trkpt>
      <trkpt lat="45.9288" lon="4.73957">
        <ele>172</ele>
        <time>2018-06-13T13:33:47Z</time>
      </trkpt>
      <trkpt lat="45.92881" lon="4.73963">
        <ele>172</ele>
        <time>2018-06-13T13:33:48Z</time>
      </trkpt>
      <trkpt lat="45.92879" lon="4.73975">
        <ele>172</ele>
        <time>2018-06-13T13:33:50Z</time>
      </trkpt>
      <trkpt lat="45.92879" lon="4.73982">
        <ele>172</ele>
        <time>2018-06-13T13:33:51Z</time>
      </trkpt>
      <trkpt lat="45.92877" lon="4.73995">
        <ele>172</ele>
        <time>2018-06-13T13:33:53Z</time>
      </trkpt>
      <trkpt lat="45.92878" lon="4.74001">
        <ele>172</ele>
        <time>2018-06-13T13:33:54Z</time>
      </trkpt>
      <trkpt lat="45.92879" lon="4.74008">
        <ele>172</ele>
        <time>2018-06-13T13:33:55Z</time>
      </trkpt>
      <trkpt lat="45.9288" lon="4.74015">
        <ele>172</ele>
        <time>2018-06-13T13:33:56Z</time>
      </trkpt>
      <trkpt lat="45.92882" lon="4.74021">
        <ele>172</ele>
        <time>2018-06-13T13:33:57Z</time>
      </trkpt>
      <trkpt lat="45.92886" lon="4.74026">
        <ele>172</ele>
        <time>2018-06-13T13:33:58Z</time>
      </trkpt>
      <trkpt lat="45.9289" lon="4.74031">
        <ele>172</ele>
        <time>2018-06-13T13:33:59Z</time>
      </trkpt>
      <trkpt lat="45.92894" lon="4.74035">
        <ele>172</ele>
        <time>2018-06-13T13:34:00Z</time>
      </trkpt>
      <trkpt lat="45.92898" lon="4.74039">
        <ele>172</ele>
        <time>2018-06-13T13:34:01Z</time>
      </trkpt>
      <trkpt lat="45.92901" lon="4.74043">
        <ele>172</ele>
        <time>2018-06-13T13:34:02Z</time>
      </trkpt>
      <trkpt lat="45.92907" lon="4.74052">
        <ele>172</ele>
        <time>2018-06-13T13:34:04Z</time>
      </trkpt>
      <trkpt lat="45.9291" lon="4.74057">
        <ele>172</ele>
        <time>2018-06-13T13:34:05Z</time>
      </trkpt>
      <trkpt lat="45.92912" lon="4.74069">
        <ele>173</ele>
        <time>2018-06-13T13:34:07Z</time>
      </trkpt>
      <trkpt lat="45.92912" lon="4.74075">
        <ele>173</ele>
        <time>2018-06-13T13:34:08Z</time>
      </trkpt>
      <trkpt lat="45.9291" lon="4.74079">
        <ele>173</ele>
        <time>2018-06-13T13:34:09Z</time>
      </trkpt>
      <trkpt lat="45.92909" lon="4.74087">
        <ele>173</ele>
        <time>2018-06-13T13:34:10Z</time>
      </trkpt>
      <trkpt lat="45.92904" lon="4.74097">
        <ele>172</ele>
        <time>2018-06-13T13:34:14Z</time>
      </trkpt>
      <trkpt lat="45.92903" lon="4.74099">
        <ele>172</ele>
        <time>2018-06-13T13:34:15Z</time>
      </trkpt>
      <trkpt lat="45.92897" lon="4.74106">
        <ele>172</ele>
        <time>2018-06-13T13:34:19Z</time>
      </trkpt>
      <trkpt lat="45.92895" lon="4.74108">
        <ele>172</ele>
        <time>2018-06-13T13:34:20Z</time>
      </trkpt>
      <trkpt lat="45.9289" lon="4.74116">
        <ele>172</ele>
        <time>2018-06-13T13:34:23Z</time>
      </trkpt>
      <trkpt lat="45.92889" lon="4.74119">
        <ele>172</ele>
        <time>2018-06-13T13:34:24Z</time>
      </trkpt>
      <trkpt lat="45.92886" lon="4.74128">
        <ele>172</ele>
        <time>2018-06-13T13:34:27Z</time>
      </trkpt>
      <trkpt lat="45.92885" lon="4.74131">
        <ele>172</ele>
        <time>2018-06-13T13:34:28Z</time>
      </trkpt>
      <trkpt lat="45.92885" lon="4.74143">
        <ele>172</ele>
        <time>2018-06-13T13:34:31Z</time>
      </trkpt>
      <trkpt lat="45.92886" lon="4.74147">
        <ele>172</ele>
        <time>2018-06-13T13:34:32Z</time>
      </trkpt>
      <trkpt lat="45.9289" lon="4.74158">
        <ele>172</ele>
        <time>2018-06-13T13:34:35Z</time>
      </trkpt>
      <trkpt lat="45.92892" lon="4.74161">
        <ele>172</ele>
        <time>2018-06-13T13:34:36Z</time>
      </trkpt>
      <trkpt lat="45.929" lon="4.74168">
        <ele>172</ele>
        <time>2018-06-13T13:34:39Z</time>
      </trkpt>
      <trkpt lat="45.92902" lon="4.7417">
        <ele>172</ele>
        <time>2018-06-13T13:34:40Z</time>
      </trkpt>
      <trkpt lat="45.92905" lon="4.74172">
        <ele>172</ele>
        <time>2018-06-13T13:34:41Z</time>
      </trkpt>
      <trkpt lat="45.92914" lon="4.74178">
        <ele>172</ele>
        <time>2018-06-13T13:34:42Z</time>
      </trkpt>
      <trkpt lat="45.9292" lon="4.74182">
        <ele>171</ele>
        <time>2018-06-13T13:34:45Z</time>
      </trkpt>
      <trkpt lat="45.92923" lon="4.74184">
        <ele>171</ele>
        <time>2018-06-13T13:34:46Z</time>
      </trkpt>
      <trkpt lat="45.92925" lon="4.74185">
        <ele>171</ele>
        <time>2018-06-13T13:34:47Z</time>
      </trkpt>
      <trkpt lat="45.92932" lon="4.7419">
        <ele>170</ele>
        <time>2018-06-13T13:34:48Z</time>
      </trkpt>
      <trkpt lat="45.92938" lon="4.74194">
        <ele>170</ele>
        <time>2018-06-13T13:34:50Z</time>
      </trkpt>
      <trkpt lat="45.92941" lon="4.74196">
        <ele>170</ele>
        <time>2018-06-13T13:34:51Z</time>
      </trkpt>
      <trkpt lat="45.92947" lon="4.74198">
        <ele>170</ele>
        <time>2018-06-13T13:34:54Z</time>
      </trkpt>
      <trkpt lat="45.92954" lon="4.74198">
        <ele>170</ele>
        <time>2018-06-13T13:34:55Z</time>
      </trkpt>
      <trkpt lat="45.92962" lon="4.74194">
        <ele>170</ele>
        <time>2018-06-13T13:34:57Z</time>
      </trkpt>
      <trkpt lat="45.92966" lon="4.74191">
        <ele>170</ele>
        <time>2018-06-13T13:34:58Z</time>
      </trkpt>
      <trkpt lat="45.92969" lon="4.74187">
        <ele>170</ele>
        <time>2018-06-13T13:34:59Z</time>
      </trkpt>
      <trkpt lat="45.92973" lon="4.7418">
        <ele>170</ele>
        <time>2018-06-13T13:35:00Z</time>
      </trkpt>
      <trkpt lat="45.92975" lon="4.74174">
        <ele>170</ele>
        <time>2018-06-13T13:35:01Z</time>
      </trkpt>
      <trkpt lat="45.92977" lon="4.74167">
        <ele>170</ele>
        <time>2018-06-13T13:35:02Z</time>
      </trkpt>
      <trkpt lat="45.92979" lon="4.74161">
        <ele>170</ele>
        <time>2018-06-13T13:35:03Z</time>
      </trkpt>
      <trkpt lat="45.92981" lon="4.74154">
        <ele>170</ele>
        <time>2018-06-13T13:35:04Z</time>
      </trkpt>
      <trkpt lat="45.92982" lon="4.74147">
        <ele>171</ele>
        <time>2018-06-13T13:35:05Z</time>
      </trkpt>
      <trkpt lat="45.92984" lon="4.74139">
        <ele>171</ele>
        <time>2018-06-13T13:35:06Z</time>
      </trkpt>
      <trkpt lat="45.92986" lon="4.7413">
        <ele>171</ele>
        <time>2018-06-13T13:35:07Z</time>
      </trkpt>
      <trkpt lat="45.92988" lon="4.74121">
        <ele>171</ele>
        <time>2018-06-13T13:35:08Z</time>
      </trkpt>
      <trkpt lat="45.9299" lon="4.74113">
        <ele>171</ele>
        <time>2018-06-13T13:35:09Z</time>
      </trkpt>
      <trkpt lat="45.92993" lon="4.74103">
        <ele>171</ele>
        <time>2018-06-13T13:35:10Z</time>
      </trkpt>
      <trkpt lat="45.92995" lon="4.74092">
        <ele>171</ele>
        <time>2018-06-13T13:35:11Z</time>
      </trkpt>
      <trkpt lat="45.92996" lon="4.74082">
        <ele>171</ele>
        <time>2018-06-13T13:35:12Z</time>
      </trkpt>
      <trkpt lat="45.92996" lon="4.74072">
        <ele>171</ele>
        <time>2018-06-13T13:35:13Z</time>
      </trkpt>
      <trkpt lat="45.92996" lon="4.74062">
        <ele>171</ele>
        <time>2018-06-13T13:35:14Z</time>
      </trkpt>
      <trkpt lat="45.92996" lon="4.74053">
        <ele>171</ele>
        <time>2018-06-13T13:35:15Z</time>
      </trkpt>
      <trkpt lat="45.92998" lon="4.74044">
        <ele>171</ele>
        <time>2018-06-13T13:35:16Z</time>
      </trkpt>
      <trkpt lat="45.92998" lon="4.74032">
        <ele>171</ele>
        <time>2018-06-13T13:35:17Z</time>
      </trkpt>
      <trkpt lat="45.93" lon="4.74023">
        <ele>171</ele>
        <time>2018-06-13T13:35:18Z</time>
      </trkpt>
      <trkpt lat="45.93002" lon="4.74015">
        <ele>170</ele>
        <time>2018-06-13T13:35:19Z</time>
      </trkpt>
      <trkpt lat="45.93005" lon="4.74009">
        <ele>170</ele>
        <time>2018-06-13T13:35:20Z</time>
      </trkpt>
      <trkpt lat="45.93009" lon="4.74004">
        <ele>170</ele>
        <time>2018-06-13T13:35:21Z</time>
      </trkpt>
      <trkpt lat="45.93014" lon="4.74">
        <ele>170</ele>
        <time>2018-06-13T13:35:22Z</time>
      </trkpt>
      <trkpt lat="45.93018" lon="4.73997">
        <ele>169</ele>
        <time>2018-06-13T13:35:23Z</time>
      </trkpt>
      <trkpt lat="45.93024" lon="4.73996">
        <ele>169</ele>
        <time>2018-06-13T13:35:24Z</time>
      </trkpt>
      <trkpt lat="45.93032" lon="4.73998">
        <ele>169</ele>
        <time>2018-06-13T13:35:26Z</time>
      </trkpt>
      <trkpt lat="45.93035" lon="4.74">
        <ele>169</ele>
        <time>2018-06-13T13:35:27Z</time>
      </trkpt>
      <trkpt lat="45.93043" lon="4.74004">
        <ele>169</ele>
        <time>2018-06-13T13:35:29Z</time>
      </trkpt>
      <trkpt lat="45.93048" lon="4.74005">
        <ele>169</ele>
        <time>2018-06-13T13:35:30Z</time>
      </trkpt>
      <trkpt lat="45.93056" lon="4.74008">
        <ele>169</ele>
        <time>2018-06-13T13:35:32Z</time>
      </trkpt>
      <trkpt lat="45.9306" lon="4.7401">
        <ele>169</ele>
        <time>2018-06-13T13:35:33Z</time>
      </trkpt>
      <trkpt lat="45.93065" lon="4.74017">
        <ele>169</ele>
        <time>2018-06-13T13:35:35Z</time>
      </trkpt>
      <trkpt lat="45.93067" lon="4.74022">
        <ele>169</ele>
        <time>2018-06-13T13:35:36Z</time>
      </trkpt>
      <trkpt lat="45.9307" lon="4.74034">
        <ele>169</ele>
        <time>2018-06-13T13:35:38Z</time>
      </trkpt>
      <trkpt lat="45.93072" lon="4.7404">
        <ele>169</ele>
        <time>2018-06-13T13:35:39Z</time>
      </trkpt>
      <trkpt lat="45.93072" lon="4.74048">
        <ele>169</ele>
        <time>2018-06-13T13:35:40Z</time>
      </trkpt>
      <trkpt lat="45.93073" lon="4.74054">
        <ele>169</ele>
        <time>2018-06-13T13:35:41Z</time>
      </trkpt>
      <trkpt lat="45.93074" lon="4.74061">
        <ele>169</ele>
        <time>2018-06-13T13:35:42Z</time>
      </trkpt>
      <trkpt lat="45.93077" lon="4.74068">
        <ele>169</ele>
        <time>2018-06-13T13:35:43Z</time>
      </trkpt>
      <trkpt lat="45.93078" lon="4.74076">
        <ele>169</ele>
        <time>2018-06-13T13:35:44Z</time>
      </trkpt>
      <trkpt lat="45.93079" lon="4.74083">
        <ele>169</ele>
        <time>2018-06-13T13:35:45Z</time>
      </trkpt>
      <trkpt lat="45.93081" lon="4.74091">
        <ele>169</ele>
        <time>2018-06-13T13:35:46Z</time>
      </trkpt>
      <trkpt lat="45.93082" lon="4.74097">
        <ele>169</ele>
        <time>2018-06-13T13:35:47Z</time>
      </trkpt>
      <trkpt lat="45.93084" lon="4.74109">
        <ele>169</ele>
        <time>2018-06-13T13:35:49Z</time>
      </trkpt>
      <trkpt lat="45.93085" lon="4.74117">
        <ele>169</ele>
        <time>2018-06-13T13:35:50Z</time>
      </trkpt>
      <trkpt lat="45.93087" lon="4.74124">
        <ele>169</ele>
        <time>2018-06-13T13:35:51Z</time>
      </trkpt>
      <trkpt lat="45.93088" lon="4.74131">
        <ele>169</ele>
        <time>2018-06-13T13:35:52Z</time>
      </trkpt>
      <trkpt lat="45.93089" lon="4.74138">
        <ele>169</ele>
        <time>2018-06-13T13:35:53Z</time>
      </trkpt>
      <trkpt lat="45.93089" lon="4.74145">
        <ele>169</ele>
        <time>2018-06-13T13:35:54Z</time>
      </trkpt>
      <trkpt lat="45.93091" lon="4.74153">
        <ele>169</ele>
        <time>2018-06-13T13:35:55Z</time>
      </trkpt>
      <trkpt lat="45.93092" lon="4.7416">
        <ele>169</ele>
        <time>2018-06-13T13:35:56Z</time>
      </trkpt>
      <trkpt lat="45.93093" lon="4.74168">
        <ele>169</ele>
        <time>2018-06-13T13:35:57Z</time>
      </trkpt>
      <trkpt lat="45.93095" lon="4.74175">
        <ele>169</ele>
        <time>2018-06-13T13:35:58Z</time>
      </trkpt>
      <trkpt lat="45.93095" lon="4.74182">
        <ele>169</ele>
        <time>2018-06-13T13:35:59Z</time>
      </trkpt>
      <trkpt lat="45.93096" lon="4.74189">
        <ele>169</ele>
        <time>2018-06-13T13:36:00Z</time>
      </trkpt>
      <trkpt lat="45.93096" lon="4.74196">
        <ele>168</ele>
        <time>2018-06-13T13:36:01Z</time>
      </trkpt>
      <trkpt lat="45.93097" lon="4.74202">
        <ele>168</ele>
        <time>2018-06-13T13:36:02Z</time>
      </trkpt>
      <trkpt lat="45.93098" lon="4.74215">
        <ele>168</ele>
        <time>2018-06-13T13:36:04Z</time>
      </trkpt>
      <trkpt lat="45.93098" lon="4.74222">
        <ele>169</ele>
        <time>2018-06-13T13:36:05Z</time>
      </trkpt>
      <trkpt lat="45.93099" lon="4.74228">
        <ele>169</ele>
        <time>2018-06-13T13:36:06Z</time>
      </trkpt>
      <trkpt lat="45.93101" lon="4.74234">
        <ele>169</ele>
        <time>2018-06-13T13:36:07Z</time>
      </trkpt>
      <trkpt lat="45.93104" lon="4.7424">
        <ele>169</ele>
        <time>2018-06-13T13:36:08Z</time>
      </trkpt>
      <trkpt lat="45.93106" lon="4.74249">
        <ele>169</ele>
        <time>2018-06-13T13:36:09Z</time>
      </trkpt>
      <trkpt lat="45.93109" lon="4.74255">
        <ele>169</ele>
        <time>2018-06-13T13:36:10Z</time>
      </trkpt>
      <trkpt lat="45.93113" lon="4.7426">
        <ele>169</ele>
        <time>2018-06-13T13:36:11Z</time>
      </trkpt>
      <trkpt lat="45.93116" lon="4.74265">
        <ele>169</ele>
        <time>2018-06-13T13:36:12Z</time>
      </trkpt>
      <trkpt lat="45.93118" lon="4.7427">
        <ele>169</ele>
        <time>2018-06-13T13:36:13Z</time>
      </trkpt>
      <trkpt lat="45.93121" lon="4.74276">
        <ele>169</ele>
        <time>2018-06-13T13:36:14Z</time>
      </trkpt>
      <trkpt lat="45.93123" lon="4.74282">
        <ele>169</ele>
        <time>2018-06-13T13:36:15Z</time>
      </trkpt>
      <trkpt lat="45.93125" lon="4.74287">
        <ele>168</ele>
        <time>2018-06-13T13:36:16Z</time>
      </trkpt>
      <trkpt lat="45.93128" lon="4.74293">
        <ele>168</ele>
        <time>2018-06-13T13:36:17Z</time>
      </trkpt>
      <trkpt lat="45.9313" lon="4.743">
        <ele>168</ele>
        <time>2018-06-13T13:36:18Z</time>
      </trkpt>
      <trkpt lat="45.93132" lon="4.74305">
        <ele>168</ele>
        <time>2018-06-13T13:36:19Z</time>
      </trkpt>
      <trkpt lat="45.93133" lon="4.74311">
        <ele>168</ele>
        <time>2018-06-13T13:36:20Z</time>
      </trkpt>
      <trkpt lat="45.93135" lon="4.74317">
        <ele>168</ele>
        <time>2018-06-13T13:36:21Z</time>
      </trkpt>
      <trkpt lat="45.93138" lon="4.74328">
        <ele>168</ele>
        <time>2018-06-13T13:36:23Z</time>
      </trkpt>
      <trkpt lat="45.93139" lon="4.74335">
        <ele>168</ele>
        <time>2018-06-13T13:36:24Z</time>
      </trkpt>
      <trkpt lat="45.9314" lon="4.74341">
        <ele>168</ele>
        <time>2018-06-13T13:36:25Z</time>
      </trkpt>
      <trkpt lat="45.93141" lon="4.74348">
        <ele>168</ele>
        <time>2018-06-13T13:36:26Z</time>
      </trkpt>
      <trkpt lat="45.93141" lon="4.74354">
        <ele>168</ele>
        <time>2018-06-13T13:36:27Z</time>
      </trkpt>
      <trkpt lat="45.93141" lon="4.74361">
        <ele>168</ele>
        <time>2018-06-13T13:36:28Z</time>
      </trkpt>
      <trkpt lat="45.93141" lon="4.74372">
        <ele>168</ele>
        <time>2018-06-13T13:36:30Z</time>
      </trkpt>
      <trkpt lat="45.93141" lon="4.74378">
        <ele>168</ele>
        <time>2018-06-13T13:36:31Z</time>
      </trkpt>
      <trkpt lat="45.9314" lon="4.74385">
        <ele>168</ele>
        <time>2018-06-13T13:36:32Z</time>
      </trkpt>
      <trkpt lat="45.9314" lon="4.74392">
        <ele>168</ele>
        <time>2018-06-13T13:36:33Z</time>
      </trkpt>
      <trkpt lat="45.93139" lon="4.74399">
        <ele>168</ele>
        <time>2018-06-13T13:36:34Z</time>
      </trkpt>
      <trkpt lat="45.93138" lon="4.74406">
        <ele>168</ele>
        <time>2018-06-13T13:36:35Z</time>
      </trkpt>
      <trkpt lat="45.93138" lon="4.74418">
        <ele>168</ele>
        <time>2018-06-13T13:36:37Z</time>
      </trkpt>
      <trkpt lat="45.93138" lon="4.74426">
        <ele>168</ele>
        <time>2018-06-13T13:36:38Z</time>
      </trkpt>
      <trkpt lat="45.93138" lon="4.74438">
        <ele>168</ele>
        <time>2018-06-13T13:36:40Z</time>
      </trkpt>
      <trkpt lat="45.93138" lon="4.74444">
        <ele>168</ele>
        <time>2018-06-13T13:36:41Z</time>
      </trkpt>
      <trkpt lat="45.93139" lon="4.74451">
        <ele>168</ele>
        <time>2018-06-13T13:36:42Z</time>
      </trkpt>
      <trkpt lat="45.9314" lon="4.74458">
        <ele>168</ele>
        <time>2018-06-13T13:36:43Z</time>
      </trkpt>
      <trkpt lat="45.93141" lon="4.74465">
        <ele>168</ele>
        <time>2018-06-13T13:36:44Z</time>
      </trkpt>
      <trkpt lat="45.93143" lon="4.74471">
        <ele>168</ele>
        <time>2018-06-13T13:36:45Z</time>
      </trkpt>
      <trkpt lat="45.93147" lon="4.74481">
        <ele>168</ele>
        <time>2018-06-13T13:36:47Z</time>
      </trkpt>
      <trkpt lat="45.93149" lon="4.74487">
        <ele>168</ele>
        <time>2018-06-13T13:36:48Z</time>
      </trkpt>
      <trkpt lat="45.93151" lon="4.74494">
        <ele>168</ele>
        <time>2018-06-13T13:36:49Z</time>
      </trkpt>
      <trkpt lat="45.93155" lon="4.74499">
        <ele>168</ele>
        <time>2018-06-13T13:36:50Z</time>
      </trkpt>
      <trkpt lat="45.93158" lon="4.74505">
        <ele>168</ele>
        <time>2018-06-13T13:36:51Z</time>
      </trkpt>
      <trkpt lat="45.93161" lon="4.74511">
        <ele>168</ele>
        <time>2018-06-13T13:36:52Z</time>
      </trkpt>
      <trkpt lat="45.93164" lon="4.74517">
        <ele>168</ele>
        <time>2018-06-13T13:36:53Z</time>
      </trkpt>
      <trkpt lat="45.93166" lon="4.74523">
        <ele>168</ele>
        <time>2018-06-13T13:36:54Z</time>
      </trkpt>
      <trkpt lat="45.93171" lon="4.74533">
        <ele>168</ele>
        <time>2018-06-13T13:36:56Z</time>
      </trkpt>
      <trkpt lat="45.93174" lon="4.74538">
        <ele>168</ele>
        <time>2018-06-13T13:36:57Z</time>
      </trkpt>
      <trkpt lat="45.93178" lon="4.74547">
        <ele>168</ele>
        <time>2018-06-13T13:36:59Z</time>
      </trkpt>
      <trkpt lat="45.9318" lon="4.74552">
        <ele>168</ele>
        <time>2018-06-13T13:37:00Z</time>
      </trkpt>
      <trkpt lat="45.93185" lon="4.74562">
        <ele>168</ele>
        <time>2018-06-13T13:37:02Z</time>
      </trkpt>
      <trkpt lat="45.93188" lon="4.74569">
        <ele>168</ele>
        <time>2018-06-13T13:37:03Z</time>
      </trkpt>
      <trkpt lat="45.93191" lon="4.74574">
        <ele>168</ele>
        <time>2018-06-13T13:37:04Z</time>
      </trkpt>
      <trkpt lat="45.93194" lon="4.74579">
        <ele>168</ele>
        <time>2018-06-13T13:37:05Z</time>
      </trkpt>
      <trkpt lat="45.93197" lon="4.74584">
        <ele>168</ele>
        <time>2018-06-13T13:37:06Z</time>
      </trkpt>
      <trkpt lat="45.93201" lon="4.74589">
        <ele>168</ele>
        <time>2018-06-13T13:37:07Z</time>
      </trkpt>
      <trkpt lat="45.93204" lon="4.74594">
        <ele>168</ele>
        <time>2018-06-13T13:37:08Z</time>
      </trkpt>
      <trkpt lat="45.93208" lon="4.74598">
        <ele>168</ele>
        <time>2018-06-13T13:37:09Z</time>
      </trkpt>
      <trkpt lat="45.93215" lon="4.74605">
        <ele>167</ele>
        <time>2018-06-13T13:37:11Z</time>
      </trkpt>
      <trkpt lat="45.93219" lon="4.74609">
        <ele>167</ele>
        <time>2018-06-13T13:37:12Z</time>
      </trkpt>
      <trkpt lat="45.93222" lon="4.74613">
        <ele>167</ele>
        <time>2018-06-13T13:37:13Z</time>
      </trkpt>
      <trkpt lat="45.93226" lon="4.74619">
        <ele>167</ele>
        <time>2018-06-13T13:37:14Z</time>
      </trkpt>
      <trkpt lat="45.93229" lon="4.74624">
        <ele>167</ele>
        <time>2018-06-13T13:37:15Z</time>
      </trkpt>
      <trkpt lat="45.93231" lon="4.7463">
        <ele>168</ele>
        <time>2018-06-13T13:37:16Z</time>
      </trkpt>
      <trkpt lat="45.93235" lon="4.74641">
        <ele>168</ele>
        <time>2018-06-13T13:37:18Z</time>
      </trkpt>
      <trkpt lat="45.93237" lon="4.74648">
        <ele>168</ele>
        <time>2018-06-13T13:37:19Z</time>
      </trkpt>
      <trkpt lat="45.93238" lon="4.74654">
        <ele>168</ele>
        <time>2018-06-13T13:37:20Z</time>
      </trkpt>
      <trkpt lat="45.9324" lon="4.74661">
        <ele>168</ele>
        <time>2018-06-13T13:37:21Z</time>
      </trkpt>
      <trkpt lat="45.93241" lon="4.74667">
        <ele>168</ele>
        <time>2018-06-13T13:37:22Z</time>
      </trkpt>
      <trkpt lat="45.93243" lon="4.74674">
        <ele>168</ele>
        <time>2018-06-13T13:37:23Z</time>
      </trkpt>
      <trkpt lat="45.93244" lon="4.7468">
        <ele>168</ele>
        <time>2018-06-13T13:37:24Z</time>
      </trkpt>
      <trkpt lat="45.93246" lon="4.74687">
        <ele>168</ele>
        <time>2018-06-13T13:37:25Z</time>
      </trkpt>
      <trkpt lat="45.93248" lon="4.74698">
        <ele>168</ele>
        <time>2018-06-13T13:37:27Z</time>
      </trkpt>
      <trkpt lat="45.9325" lon="4.74704">
        <ele>168</ele>
        <time>2018-06-13T13:37:28Z</time>
      </trkpt>
      <trkpt lat="45.93252" lon="4.74715">
        <ele>169</ele>
        <time>2018-06-13T13:37:30Z</time>
      </trkpt>
      <trkpt lat="45.93254" lon="4.74722">
        <ele>169</ele>
        <time>2018-06-13T13:37:31Z</time>
      </trkpt>
      <trkpt lat="45.93256" lon="4.74728">
        <ele>169</ele>
        <time>2018-06-13T13:37:32Z</time>
      </trkpt>
      <trkpt lat="45.93258" lon="4.74735">
        <ele>169</ele>
        <time>2018-06-13T13:37:33Z</time>
      </trkpt>
      <trkpt lat="45.93259" lon="4.74741">
        <ele>169</ele>
        <time>2018-06-13T13:37:34Z</time>
      </trkpt>
      <trkpt lat="45.9326" lon="4.74747">
        <ele>169</ele>
        <time>2018-06-13T13:37:35Z</time>
      </trkpt>
      <trkpt lat="45.93262" lon="4.74759">
        <ele>169</ele>
        <time>2018-06-13T13:37:37Z</time>
      </trkpt>
      <trkpt lat="45.93264" lon="4.74766">
        <ele>169</ele>
        <time>2018-06-13T13:37:38Z</time>
      </trkpt>
      <trkpt lat="45.93265" lon="4.74772">
        <ele>169</ele>
        <time>2018-06-13T13:37:39Z</time>
      </trkpt>
      <trkpt lat="45.93266" lon="4.74779">
        <ele>169</ele>
        <time>2018-06-13T13:37:40Z</time>
      </trkpt>
      <trkpt lat="45.93268" lon="4.7479">
        <ele>169</ele>
        <time>2018-06-13T13:37:42Z</time>
      </trkpt>
      <trkpt lat="45.93269" lon="4.74795">
        <ele>168</ele>
        <time>2018-06-13T13:37:43Z</time>
      </trkpt>
      <trkpt lat="45.9327" lon="4.74806">
        <ele>168</ele>
        <time>2018-06-13T13:37:45Z</time>
      </trkpt>
      <trkpt lat="45.93271" lon="4.74812">
        <ele>168</ele>
        <time>2018-06-13T13:37:46Z</time>
      </trkpt>
      <trkpt lat="45.93272" lon="4.74819">
        <ele>168</ele>
        <time>2018-06-13T13:37:47Z</time>
      </trkpt>
      <trkpt lat="45.93273" lon="4.74826">
        <ele>168</ele>
        <time>2018-06-13T13:37:48Z</time>
      </trkpt>
      <trkpt lat="45.93275" lon="4.74837">
        <ele>168</ele>
        <time>2018-06-13T13:37:50Z</time>
      </trkpt>
      <trkpt lat="45.93276" lon="4.74843">
        <ele>168</ele>
        <time>2018-06-13T13:37:51Z</time>
      </trkpt>
      <trkpt lat="45.93279" lon="4.74855">
        <ele>168</ele>
        <time>2018-06-13T13:37:53Z</time>
      </trkpt>
      <trkpt lat="45.9328" lon="4.74861">
        <ele>168</ele>
        <time>2018-06-13T13:37:54Z</time>
      </trkpt>
      <trkpt lat="45.93281" lon="4.74868">
        <ele>168</ele>
        <time>2018-06-13T13:37:55Z</time>
      </trkpt>
      <trkpt lat="45.93282" lon="4.74874">
        <ele>168</ele>
        <time>2018-06-13T13:37:56Z</time>
      </trkpt>
      <trkpt lat="45.93283" lon="4.74881">
        <ele>168</ele>
        <time>2018-06-13T13:37:57Z</time>
      </trkpt>
      <trkpt lat="45.93284" lon="4.74887">
        <ele>168</ele>
        <time>2018-06-13T13:37:58Z</time>
      </trkpt>
      <trkpt lat="45.93285" lon="4.74899">
        <ele>168</ele>
        <time>2018-06-13T13:38:00Z</time>
      </trkpt>
      <trkpt lat="45.93286" lon="4.74906">
        <ele>168</ele>
        <time>2018-06-13T13:38:01Z</time>
      </trkpt>
      <trkpt lat="45.93287" lon="4.74913">
        <ele>168</ele>
        <time>2018-06-13T13:38:02Z</time>
      </trkpt>
      <trkpt lat="45.93288" lon="4.74919">
        <ele>168</ele>
        <time>2018-06-13T13:38:03Z</time>
      </trkpt>
      <trkpt lat="45.9329" lon="4.74926">
        <ele>168</ele>
        <time>2018-06-13T13:38:04Z</time>
      </trkpt>
      <trkpt lat="45.93291" lon="4.74932">
        <ele>168</ele>
        <time>2018-06-13T13:38:05Z</time>
      </trkpt>
      <trkpt lat="45.93295" lon="4.74941">
        <ele>168</ele>
        <time>2018-06-13T13:38:07Z</time>
      </trkpt>
      <trkpt lat="45.93298" lon="4.74945">
        <ele>168</ele>
        <time>2018-06-13T13:38:08Z</time>
      </trkpt>
      <trkpt lat="45.93306" lon="4.74948">
        <ele>168</ele>
        <time>2018-06-13T13:38:10Z</time>
      </trkpt>
      <trkpt lat="45.93311" lon="4.7495">
        <ele>168</ele>
        <time>2018-06-13T13:38:11Z</time>
      </trkpt>
      <trkpt lat="45.93315" lon="4.74952">
        <ele>168</ele>
        <time>2018-06-13T13:38:12Z</time>
      </trkpt>
      <trkpt lat="45.9332" lon="4.74952">
        <ele>168</ele>
        <time>2018-06-13T13:38:13Z</time>
      </trkpt>
      <trkpt lat="45.93325" lon="4.74952">
        <ele>168</ele>
        <time>2018-06-13T13:38:14Z</time>
      </trkpt>
      <trkpt lat="45.93329" lon="4.74952">
        <ele>168</ele>
        <time>2018-06-13T13:38:15Z</time>
      </trkpt>
      <trkpt lat="45.93338" lon="4.74956">
        <ele>168</ele>
        <time>2018-06-13T13:38:17Z</time>
      </trkpt>
      <trkpt lat="45.93342" lon="4.74958">
        <ele>168</ele>
        <time>2018-06-13T13:38:18Z</time>
      </trkpt>
      <trkpt lat="45.93351" lon="4.74959">
        <ele>167</ele>
        <time>2018-06-13T13:38:20Z</time>
      </trkpt>
      <trkpt lat="45.93355" lon="4.74958">
        <ele>168</ele>
        <time>2018-06-13T13:38:21Z</time>
      </trkpt>
      <trkpt lat="45.9336" lon="4.74958">
        <ele>168</ele>
        <time>2018-06-13T13:38:22Z</time>
      </trkpt>
      <trkpt lat="45.93364" lon="4.7496">
        <ele>167</ele>
        <time>2018-06-13T13:38:23Z</time>
      </trkpt>
      <trkpt lat="45.93372" lon="4.74963">
        <ele>167</ele>
        <time>2018-06-13T13:38:25Z</time>
      </trkpt>
      <trkpt lat="45.93376" lon="4.74966">
        <ele>167</ele>
        <time>2018-06-13T13:38:26Z</time>
      </trkpt>
      <trkpt lat="45.9338" lon="4.74972">
        <ele>167</ele>
        <time>2018-06-13T13:38:28Z</time>
      </trkpt>
      <trkpt lat="45.93382" lon="4.74976">
        <ele>167</ele>
        <time>2018-06-13T13:38:29Z</time>
      </trkpt>
      <trkpt lat="45.93383" lon="4.74988">
        <ele>167</ele>
        <time>2018-06-13T13:38:31Z</time>
      </trkpt>
      <trkpt lat="45.93384" lon="4.74995">
        <ele>167</ele>
        <time>2018-06-13T13:38:32Z</time>
      </trkpt>
      <trkpt lat="45.93384" lon="4.75002">
        <ele>167</ele>
        <time>2018-06-13T13:38:33Z</time>
      </trkpt>
      <trkpt lat="45.93383" lon="4.75009">
        <ele>167</ele>
        <time>2018-06-13T13:38:34Z</time>
      </trkpt>
      <trkpt lat="45.93382" lon="4.75017">
        <ele>167</ele>
        <time>2018-06-13T13:38:35Z</time>
      </trkpt>
      <trkpt lat="45.93381" lon="4.75023">
        <ele>167</ele>
        <time>2018-06-13T13:38:36Z</time>
      </trkpt>
      <trkpt lat="45.9338" lon="4.75029">
        <ele>167</ele>
        <time>2018-06-13T13:38:37Z</time>
      </trkpt>
      <trkpt lat="45.93381" lon="4.75036">
        <ele>167</ele>
        <time>2018-06-13T13:38:38Z</time>
      </trkpt>
      <trkpt lat="45.9338" lon="4.75047">
        <ele>168</ele>
        <time>2018-06-13T13:38:40Z</time>
      </trkpt>
      <trkpt lat="45.93379" lon="4.75053">
        <ele>168</ele>
        <time>2018-06-13T13:38:41Z</time>
      </trkpt>
      <trkpt lat="45.93378" lon="4.7506">
        <ele>168</ele>
        <time>2018-06-13T13:38:42Z</time>
      </trkpt>
      <trkpt lat="45.93378" lon="4.75068">
        <ele>168</ele>
        <time>2018-06-13T13:38:43Z</time>
      </trkpt>
      <trkpt lat="45.93377" lon="4.75077">
        <ele>168</ele>
        <time>2018-06-13T13:38:44Z</time>
      </trkpt>
      <trkpt lat="45.93376" lon="4.75085">
        <ele>169</ele>
        <time>2018-06-13T13:38:45Z</time>
      </trkpt>
      <trkpt lat="45.93375" lon="4.75093">
        <ele>169</ele>
        <time>2018-06-13T13:38:46Z</time>
      </trkpt>
      <trkpt lat="45.93375" lon="4.75101">
        <ele>169</ele>
        <time>2018-06-13T13:38:47Z</time>
      </trkpt>
      <trkpt lat="45.93374" lon="4.75108">
        <ele>169</ele>
        <time>2018-06-13T13:38:48Z</time>
      </trkpt>
      <trkpt lat="45.93373" lon="4.75116">
        <ele>169</ele>
        <time>2018-06-13T13:38:49Z</time>
      </trkpt>
      <trkpt lat="45.93372" lon="4.75123">
        <ele>169</ele>
        <time>2018-06-13T13:38:50Z</time>
      </trkpt>
      <trkpt lat="45.93371" lon="4.7513">
        <ele>169</ele>
        <time>2018-06-13T13:38:51Z</time>
      </trkpt>
      <trkpt lat="45.93371" lon="4.75137">
        <ele>169</ele>
        <time>2018-06-13T13:38:52Z</time>
      </trkpt>
      <trkpt lat="45.9337" lon="4.75143">
        <ele>169</ele>
        <time>2018-06-13T13:38:53Z</time>
      </trkpt>
      <trkpt lat="45.93369" lon="4.7515">
        <ele>169</ele>
        <time>2018-06-13T13:38:54Z</time>
      </trkpt>
      <trkpt lat="45.93368" lon="4.75157">
        <ele>169</ele>
        <time>2018-06-13T13:38:55Z</time>
      </trkpt>
      <trkpt lat="45.93368" lon="4.75165">
        <ele>169</ele>
        <time>2018-06-13T13:38:56Z</time>
      </trkpt>
      <trkpt lat="45.93368" lon="4.75172">
        <ele>170</ele>
        <time>2018-06-13T13:38:57Z</time>
      </trkpt>
      <trkpt lat="45.93367" lon="4.7518">
        <ele>171</ele>
        <time>2018-06-13T13:38:58Z</time>
      </trkpt>
      <trkpt lat="45.93366" lon="4.75186">
        <ele>171</ele>
        <time>2018-06-13T13:38:59Z</time>
      </trkpt>
      <trkpt lat="45.93365" lon="4.75198">
        <ele>171</ele>
        <time>2018-06-13T13:39:01Z</time>
      </trkpt>
      <trkpt lat="45.93364" lon="4.75205">
        <ele>171</ele>
        <time>2018-06-13T13:39:02Z</time>
      </trkpt>
      <trkpt lat="45.93363" lon="4.75217">
        <ele>171</ele>
        <time>2018-06-13T13:39:04Z</time>
      </trkpt>
      <trkpt lat="45.93362" lon="4.75222">
        <ele>171</ele>
        <time>2018-06-13T13:39:05Z</time>
      </trkpt>
      <trkpt lat="45.93361" lon="4.75228">
        <ele>171</ele>
        <time>2018-06-13T13:39:06Z</time>
      </trkpt>
      <trkpt lat="45.9336" lon="4.75235">
        <ele>171</ele>
        <time>2018-06-13T13:39:07Z</time>
      </trkpt>
      <trkpt lat="45.93358" lon="4.75243">
        <ele>171</ele>
        <time>2018-06-13T13:39:08Z</time>
      </trkpt>
      <trkpt lat="45.93356" lon="4.7525">
        <ele>171</ele>
        <time>2018-06-13T13:39:09Z</time>
      </trkpt>
      <trkpt lat="45.93354" lon="4.75257">
        <ele>171</ele>
        <time>2018-06-13T13:39:10Z</time>
      </trkpt>
      <trkpt lat="45.93352" lon="4.75263">
        <ele>171</ele>
        <time>2018-06-13T13:39:11Z</time>
      </trkpt>
      <trkpt lat="45.93347" lon="4.75273">
        <ele>171</ele>
        <time>2018-06-13T13:39:13Z</time>
      </trkpt>
      <trkpt lat="45.93346" lon="4.7528">
        <ele>171</ele>
        <time>2018-06-13T13:39:14Z</time>
      </trkpt>
      <trkpt lat="45.93342" lon="4.7529">
        <ele>171</ele>
        <time>2018-06-13T13:39:16Z</time>
      </trkpt>
      <trkpt lat="45.9334" lon="4.75295">
        <ele>171</ele>
        <time>2018-06-13T13:39:17Z</time>
      </trkpt>
      <trkpt lat="45.93337" lon="4.75301">
        <ele>171</ele>
        <time>2018-06-13T13:39:18Z</time>
      </trkpt>
      <trkpt lat="45.93334" lon="4.75306">
        <ele>171</ele>
        <time>2018-06-13T13:39:19Z</time>
      </trkpt>
      <trkpt lat="45.93329" lon="4.75314">
        <ele>171</ele>
        <time>2018-06-13T13:39:21Z</time>
      </trkpt>
      <trkpt lat="45.93327" lon="4.75318">
        <ele>171</ele>
        <time>2018-06-13T13:39:22Z</time>
      </trkpt>
      <trkpt lat="45.93325" lon="4.75325">
        <ele>172</ele>
        <time>2018-06-13T13:39:23Z</time>
      </trkpt>
      <trkpt lat="45.93323" lon="4.75331">
        <ele>172</ele>
        <time>2018-06-13T13:39:24Z</time>
      </trkpt>
      <trkpt lat="45.93321" lon="4.75338">
        <ele>172</ele>
        <time>2018-06-13T13:39:25Z</time>
      </trkpt>
      <trkpt lat="45.93318" lon="4.75344">
        <ele>172</ele>
        <time>2018-06-13T13:39:26Z</time>
      </trkpt>
      <trkpt lat="45.93316" lon="4.75351">
        <ele>171</ele>
        <time>2018-06-13T13:39:27Z</time>
      </trkpt>
      <trkpt lat="45.93313" lon="4.75356">
        <ele>171</ele>
        <time>2018-06-13T13:39:28Z</time>
      </trkpt>
      <trkpt lat="45.93312" lon="4.75365">
        <ele>171</ele>
        <time>2018-06-13T13:39:29Z</time>
      </trkpt>
      <trkpt lat="45.9331" lon="4.7537">
        <ele>171</ele>
        <time>2018-06-13T13:39:30Z</time>
      </trkpt>
      <trkpt lat="45.93304" lon="4.7538">
        <ele>171</ele>
        <time>2018-06-13T13:39:32Z</time>
      </trkpt>
      <trkpt lat="45.93302" lon="4.75386">
        <ele>171</ele>
        <time>2018-06-13T13:39:33Z</time>
      </trkpt>
      <trkpt lat="45.933" lon="4.75392">
        <ele>171</ele>
        <time>2018-06-13T13:39:34Z</time>
      </trkpt>
      <trkpt lat="45.93297" lon="4.75396">
        <ele>171</ele>
        <time>2018-06-13T13:39:35Z</time>
      </trkpt>
      <trkpt lat="45.93293" lon="4.75407">
        <ele>171</ele>
        <time>2018-06-13T13:39:37Z</time>
      </trkpt>
      <trkpt lat="45.93292" lon="4.75413">
        <ele>171</ele>
        <time>2018-06-13T13:39:38Z</time>
      </trkpt>
      <trkpt lat="45.9329" lon="4.75418">
        <ele>171</ele>
        <time>2018-06-13T13:39:39Z</time>
      </trkpt>
      <trkpt lat="45.93287" lon="4.75424">
        <ele>171</ele>
        <time>2018-06-13T13:39:40Z</time>
      </trkpt>
      <trkpt lat="45.93282" lon="4.75435">
        <ele>171</ele>
        <time>2018-06-13T13:39:42Z</time>
      </trkpt>
      <trkpt lat="45.93279" lon="4.75442">
        <ele>171</ele>
        <time>2018-06-13T13:39:43Z</time>
      </trkpt>
      <trkpt lat="45.93277" lon="4.75449">
        <ele>171</ele>
        <time>2018-06-13T13:39:44Z</time>
      </trkpt>
      <trkpt lat="45.93274" lon="4.75456">
        <ele>171</ele>
        <time>2018-06-13T13:39:45Z</time>
      </trkpt>
      <trkpt lat="45.93269" lon="4.75466">
        <ele>171</ele>
        <time>2018-06-13T13:39:47Z</time>
      </trkpt>
      <trkpt lat="45.93267" lon="4.75472">
        <ele>171</ele>
        <time>2018-06-13T13:39:48Z</time>
      </trkpt>
      <trkpt lat="45.93264" lon="4.75483">
        <ele>171</ele>
        <time>2018-06-13T13:39:50Z</time>
      </trkpt>
      <trkpt lat="45.93262" lon="4.75489">
        <ele>171</ele>
        <time>2018-06-13T13:39:51Z</time>
      </trkpt>
      <trkpt lat="45.93261" lon="4.75495">
        <ele>171</ele>
        <time>2018-06-13T13:39:52Z</time>
      </trkpt>
      <trkpt lat="45.9326" lon="4.75503">
        <ele>171</ele>
        <time>2018-06-13T13:39:53Z</time>
      </trkpt>
      <trkpt lat="45.93259" lon="4.7551">
        <ele>171</ele>
        <time>2018-06-13T13:39:54Z</time>
      </trkpt>
      <trkpt lat="45.93258" lon="4.75516">
        <ele>172</ele>
        <time>2018-06-13T13:39:55Z</time>
      </trkpt>
      <trkpt lat="45.93257" lon="4.75522">
        <ele>172</ele>
        <time>2018-06-13T13:39:56Z</time>
      </trkpt>
      <trkpt lat="45.93257" lon="4.7553">
        <ele>172</ele>
        <time>2018-06-13T13:39:57Z</time>
      </trkpt>
      <trkpt lat="45.93257" lon="4.75538">
        <ele>172</ele>
        <time>2018-06-13T13:39:58Z</time>
      </trkpt>
      <trkpt lat="45.93256" lon="4.75546">
        <ele>172</ele>
        <time>2018-06-13T13:39:59Z</time>
      </trkpt>
      <trkpt lat="45.93255" lon="4.75558">
        <ele>172</ele>
        <time>2018-06-13T13:40:01Z</time>
      </trkpt>
      <trkpt lat="45.93255" lon="4.75564">
        <ele>172</ele>
        <time>2018-06-13T13:40:02Z</time>
      </trkpt>
      <trkpt lat="45.93254" lon="4.75571">
        <ele>172</ele>
        <time>2018-06-13T13:40:03Z</time>
      </trkpt>
      <trkpt lat="45.93253" lon="4.75577">
        <ele>172</ele>
        <time>2018-06-13T13:40:04Z</time>
      </trkpt>
      <trkpt lat="45.93252" lon="4.75583">
        <ele>171</ele>
        <time>2018-06-13T13:40:05Z</time>
      </trkpt>
      <trkpt lat="45.93252" lon="4.7559">
        <ele>172</ele>
        <time>2018-06-13T13:40:06Z</time>
      </trkpt>
      <trkpt lat="45.9325" lon="4.75594">
        <ele>172</ele>
        <time>2018-06-13T13:40:08Z</time>
      </trkpt>
      <trkpt lat="45.93249" lon="4.75602">
        <ele>170</ele>
        <time>2018-06-13T13:40:09Z</time>
      </trkpt>
      <trkpt lat="45.93248" lon="4.75614">
        <ele>170</ele>
        <time>2018-06-13T13:40:11Z</time>
      </trkpt>
      <trkpt lat="45.93247" lon="4.75619">
        <ele>170</ele>
        <time>2018-06-13T13:40:12Z</time>
      </trkpt>
      <trkpt lat="45.93247" lon="4.75631">
        <ele>170</ele>
        <time>2018-06-13T13:40:14Z</time>
      </trkpt>
      <trkpt lat="45.93247" lon="4.75638">
        <ele>170</ele>
        <time>2018-06-13T13:40:15Z</time>
      </trkpt>
      <trkpt lat="45.93248" lon="4.75645">
        <ele>170</ele>
        <time>2018-06-13T13:40:16Z</time>
      </trkpt>
      <trkpt lat="45.93248" lon="4.75652">
        <ele>171</ele>
        <time>2018-06-13T13:40:17Z</time>
      </trkpt>
      <trkpt lat="45.93249" lon="4.75662">
        <ele>171</ele>
        <time>2018-06-13T13:40:19Z</time>
      </trkpt>
      <trkpt lat="45.93249" lon="4.75669">
        <ele>171</ele>
        <time>2018-06-13T13:40:20Z</time>
      </trkpt>
      <trkpt lat="45.93249" lon="4.75675">
        <ele>171</ele>
        <time>2018-06-13T13:40:21Z</time>
      </trkpt>
      <trkpt lat="45.93249" lon="4.75682">
        <ele>170</ele>
        <time>2018-06-13T13:40:22Z</time>
      </trkpt>
      <trkpt lat="45.9325" lon="4.75688">
        <ele>173</ele>
        <time>2018-06-13T13:40:23Z</time>
      </trkpt>
      <trkpt lat="45.93251" lon="4.75696">
        <ele>173</ele>
        <time>2018-06-13T13:40:24Z</time>
      </trkpt>
      <trkpt lat="45.93252" lon="4.75703">
        <ele>173</ele>
        <time>2018-06-13T13:40:25Z</time>
      </trkpt>
      <trkpt lat="45.93251" lon="4.7571">
        <ele>173</ele>
        <time>2018-06-13T13:40:26Z</time>
      </trkpt>
      <trkpt lat="45.93252" lon="4.75722">
        <ele>173</ele>
        <time>2018-06-13T13:40:28Z</time>
      </trkpt>
      <trkpt lat="45.93251" lon="4.75725">
        <ele>172</ele>
        <time>2018-06-13T13:40:29Z</time>
      </trkpt>
      <trkpt lat="45.93252" lon="4.75737">
        <ele>172</ele>
        <time>2018-06-13T13:40:31Z</time>
      </trkpt>
      <trkpt lat="45.93251" lon="4.75742">
        <ele>171</ele>
        <time>2018-06-13T13:40:32Z</time>
      </trkpt>
      <trkpt lat="45.93251" lon="4.7575">
        <ele>170</ele>
        <time>2018-06-13T13:40:33Z</time>
      </trkpt>
      <trkpt lat="45.93251" lon="4.75759">
        <ele>171</ele>
        <time>2018-06-13T13:40:34Z</time>
      </trkpt>
      <trkpt lat="45.93251" lon="4.75766">
        <ele>172</ele>
        <time>2018-06-13T13:40:35Z</time>
      </trkpt>
      <trkpt lat="45.93251" lon="4.75773">
        <ele>172</ele>
        <time>2018-06-13T13:40:36Z</time>
      </trkpt>
      <trkpt lat="45.9325" lon="4.75785">
        <ele>170</ele>
        <time>2018-06-13T13:40:38Z</time>
      </trkpt>
      <trkpt lat="45.9325" lon="4.7579">
        <ele>170</ele>
        <time>2018-06-13T13:40:39Z</time>
      </trkpt>
      <trkpt lat="45.9325" lon="4.75795">
        <ele>170</ele>
        <time>2018-06-13T13:40:40Z</time>
      </trkpt>
      <trkpt lat="45.9325" lon="4.75804">
        <ele>173</ele>
        <time>2018-06-13T13:40:41Z</time>
      </trkpt>
      <trkpt lat="45.93251" lon="4.75813">
        <ele>172</ele>
        <time>2018-06-13T13:40:42Z</time>
      </trkpt>
      <trkpt lat="45.93251" lon="4.7582">
        <ele>172</ele>
        <time>2018-06-13T13:40:43Z</time>
      </trkpt>
      <trkpt lat="45.93251" lon="4.75827">
        <ele>172</ele>
        <time>2018-06-13T13:40:44Z</time>
      </trkpt>
      <trkpt lat="45.93251" lon="4.75834">
        <ele>171</ele>
        <time>2018-06-13T13:40:45Z</time>
      </trkpt>
      <trkpt lat="45.9325" lon="4.75846">
        <ele>172</ele>
        <time>2018-06-13T13:40:47Z</time>
      </trkpt>
      <trkpt lat="45.93251" lon="4.75853">
        <ele>172</ele>
        <time>2018-06-13T13:40:48Z</time>
      </trkpt>
      <trkpt lat="45.9325" lon="4.75863">
        <ele>173</ele>
        <time>2018-06-13T13:40:50Z</time>
      </trkpt>
      <trkpt lat="45.93251" lon="4.75869">
        <ele>173</ele>
        <time>2018-06-13T13:40:51Z</time>
      </trkpt>
      <trkpt lat="45.93251" lon="4.7588">
        <ele>173</ele>
        <time>2018-06-13T13:40:53Z</time>
      </trkpt>
      <trkpt lat="45.93251" lon="4.75887">
        <ele>173</ele>
        <time>2018-06-13T13:40:54Z</time>
      </trkpt>
      <trkpt lat="45.93251" lon="4.75894">
        <ele>173</ele>
        <time>2018-06-13T13:40:55Z</time>
      </trkpt>
      <trkpt lat="45.93253" lon="4.759">
        <ele>173</ele>
        <time>2018-06-13T13:40:56Z</time>
      </trkpt>
      <trkpt lat="45.93254" lon="4.75912">
        <ele>172</ele>
        <time>2018-06-13T13:40:58Z</time>
      </trkpt>
      <trkpt lat="45.93252" lon="4.75913">
        <ele>172</ele>
        <time>2018-06-13T13:40:59Z</time>
      </trkpt>
      <trkpt lat="45.93254" lon="4.75924">
        <ele>172</ele>
        <time>2018-06-13T13:41:01Z</time>
      </trkpt>
      <trkpt lat="45.93255" lon="4.75929">
        <ele>172</ele>
        <time>2018-06-13T13:41:02Z</time>
      </trkpt>
      <trkpt lat="45.93255" lon="4.75942">
        <ele>172</ele>
        <time>2018-06-13T13:41:04Z</time>
      </trkpt>
      <trkpt lat="45.93254" lon="4.75948">
        <ele>172</ele>
        <time>2018-06-13T13:41:05Z</time>
      </trkpt>
      <trkpt lat="45.93253" lon="4.75955">
        <ele>172</ele>
        <time>2018-06-13T13:41:06Z</time>
      </trkpt>
      <trkpt lat="45.93253" lon="4.75961">
        <ele>172</ele>
        <time>2018-06-13T13:41:07Z</time>
      </trkpt>
      <trkpt lat="45.93252" lon="4.75969">
        <ele>172</ele>
        <time>2018-06-13T13:41:08Z</time>
      </trkpt>
      <trkpt lat="45.93253" lon="4.75978">
        <ele>172</ele>
        <time>2018-06-13T13:41:09Z</time>
      </trkpt>
      <trkpt lat="45.93252" lon="4.75986">
        <ele>172</ele>
        <time>2018-06-13T13:41:10Z</time>
      </trkpt>
      <trkpt lat="45.93251" lon="4.75992">
        <ele>172</ele>
        <time>2018-06-13T13:41:11Z</time>
      </trkpt>
      <trkpt lat="45.93251" lon="4.75998">
        <ele>173</ele>
        <time>2018-06-13T13:41:12Z</time>
      </trkpt>
      <trkpt lat="45.9325" lon="4.76005">
        <ele>173</ele>
        <time>2018-06-13T13:41:13Z</time>
      </trkpt>
      <trkpt lat="45.93248" lon="4.76015">
        <ele>172</ele>
        <time>2018-06-13T13:41:15Z</time>
      </trkpt>
      <trkpt lat="45.93249" lon="4.76024">
        <ele>172</ele>
        <time>2018-06-13T13:41:16Z</time>
      </trkpt>
      <trkpt lat="45.93248" lon="4.76031">
        <ele>171</ele>
        <time>2018-06-13T13:41:17Z</time>
      </trkpt>
      <trkpt lat="45.93248" lon="4.76039">
        <ele>171</ele>
        <time>2018-06-13T13:41:18Z</time>
      </trkpt>
      <trkpt lat="45.93248" lon="4.76046">
        <ele>171</ele>
        <time>2018-06-13T13:41:19Z</time>
      </trkpt>
      <trkpt lat="45.93247" lon="4.76056">
        <ele>171</ele>
        <time>2018-06-13T13:41:20Z</time>
      </trkpt>
      <trkpt lat="45.93244" lon="4.76066">
        <ele>171</ele>
        <time>2018-06-13T13:41:22Z</time>
      </trkpt>
      <trkpt lat="45.93244" lon="4.76073">
        <ele>171</ele>
        <time>2018-06-13T13:41:23Z</time>
      </trkpt>
      <trkpt lat="45.93243" lon="4.76079">
        <ele>172</ele>
        <time>2018-06-13T13:41:25Z</time>
      </trkpt>
      <trkpt lat="45.93243" lon="4.76088">
        <ele>171</ele>
        <time>2018-06-13T13:41:26Z</time>
      </trkpt>
      <trkpt lat="45.93241" lon="4.76099">
        <ele>171</ele>
        <time>2018-06-13T13:41:28Z</time>
      </trkpt>
      <trkpt lat="45.93241" lon="4.76105">
        <ele>171</ele>
        <time>2018-06-13T13:41:29Z</time>
      </trkpt>
      <trkpt lat="45.9324" lon="4.76115">
        <ele>170</ele>
        <time>2018-06-13T13:41:31Z</time>
      </trkpt>
      <trkpt lat="45.93243" lon="4.7613">
        <ele>170</ele>
        <time>2018-06-13T13:41:32Z</time>
      </trkpt>
      <trkpt lat="45.93242" lon="4.76137">
        <ele>170</ele>
        <time>2018-06-13T13:41:33Z</time>
      </trkpt>
      <trkpt lat="45.93243" lon="4.76147">
        <ele>170</ele>
        <time>2018-06-13T13:41:34Z</time>
      </trkpt>
      <trkpt lat="45.93243" lon="4.76155">
        <ele>171</ele>
        <time>2018-06-13T13:41:35Z</time>
      </trkpt>
      <trkpt lat="45.93244" lon="4.76165">
        <ele>171</ele>
        <time>2018-06-13T13:41:36Z</time>
      </trkpt>
      <trkpt lat="45.93243" lon="4.76176">
        <ele>170</ele>
        <time>2018-06-13T13:41:38Z</time>
      </trkpt>
      <trkpt lat="45.93242" lon="4.76182">
        <ele>170</ele>
        <time>2018-06-13T13:41:39Z</time>
      </trkpt>
      <trkpt lat="45.93243" lon="4.76192">
        <ele>170</ele>
        <time>2018-06-13T13:41:40Z</time>
      </trkpt>
      <trkpt lat="45.93242" lon="4.76199">
        <ele>170</ele>
        <time>2018-06-13T13:41:41Z</time>
      </trkpt>
      <trkpt lat="45.93242" lon="4.76207">
        <ele>170</ele>
        <time>2018-06-13T13:41:42Z</time>
      </trkpt>
      <trkpt lat="45.93242" lon="4.76213">
        <ele>170</ele>
        <time>2018-06-13T13:41:43Z</time>
      </trkpt>
      <trkpt lat="45.93241" lon="4.7622">
        <ele>170</ele>
        <time>2018-06-13T13:41:44Z</time>
      </trkpt>
      <trkpt lat="45.93241" lon="4.76227">
        <ele>170</ele>
        <time>2018-06-13T13:41:45Z</time>
      </trkpt>
      <trkpt lat="45.93238" lon="4.76236">
        <ele>170</ele>
        <time>2018-06-13T13:41:47Z</time>
      </trkpt>
      <trkpt lat="45.93237" lon="4.76243">
        <ele>170</ele>
        <time>2018-06-13T13:41:48Z</time>
      </trkpt>
      <trkpt lat="45.93235" lon="4.76249">
        <ele>170</ele>
        <time>2018-06-13T13:41:49Z</time>
      </trkpt>
      <trkpt lat="45.93232" lon="4.76255">
        <ele>169</ele>
        <time>2018-06-13T13:41:50Z</time>
      </trkpt>
      <trkpt lat="45.93231" lon="4.76263">
        <ele>169</ele>
        <time>2018-06-13T13:41:51Z</time>
      </trkpt>
      <trkpt lat="45.93229" lon="4.7627">
        <ele>169</ele>
        <time>2018-06-13T13:41:52Z</time>
      </trkpt>
      <trkpt lat="45.93228" lon="4.76277">
        <ele>169</ele>
        <time>2018-06-13T13:41:53Z</time>
      </trkpt>
      <trkpt lat="45.93226" lon="4.76283">
        <ele>169</ele>
        <time>2018-06-13T13:41:54Z</time>
      </trkpt>
      <trkpt lat="45.93223" lon="4.76294">
        <ele>169</ele>
        <time>2018-06-13T13:41:56Z</time>
      </trkpt>
      <trkpt lat="45.93222" lon="4.763">
        <ele>169</ele>
        <time>2018-06-13T13:41:57Z</time>
      </trkpt>
      <trkpt lat="45.93221" lon="4.76312">
        <ele>169</ele>
        <time>2018-06-13T13:41:59Z</time>
      </trkpt>
      <trkpt lat="45.9322" lon="4.76319">
        <ele>169</ele>
        <time>2018-06-13T13:42:00Z</time>
      </trkpt>
      <trkpt lat="45.9322" lon="4.76327">
        <ele>169</ele>
        <time>2018-06-13T13:42:01Z</time>
      </trkpt>
      <trkpt lat="45.93219" lon="4.76333">
        <ele>169</ele>
        <time>2018-06-13T13:42:02Z</time>
      </trkpt>
      <trkpt lat="45.93222" lon="4.76344">
        <ele>168</ele>
        <time>2018-06-13T13:42:03Z</time>
      </trkpt>
      <trkpt lat="45.93224" lon="4.76355">
        <ele>168</ele>
        <time>2018-06-13T13:42:04Z</time>
      </trkpt>
      <trkpt lat="45.93224" lon="4.76362">
        <ele>168</ele>
        <time>2018-06-13T13:42:05Z</time>
      </trkpt>
      <trkpt lat="45.93224" lon="4.76369">
        <ele>168</ele>
        <time>2018-06-13T13:42:06Z</time>
      </trkpt>
      <trkpt lat="45.93224" lon="4.76376">
        <ele>168</ele>
        <time>2018-06-13T13:42:07Z</time>
      </trkpt>
      <trkpt lat="45.93224" lon="4.76383">
        <ele>168</ele>
        <time>2018-06-13T13:42:08Z</time>
      </trkpt>
      <trkpt lat="45.93223" lon="4.7639">
        <ele>168</ele>
        <time>2018-06-13T13:42:09Z</time>
      </trkpt>
      <trkpt lat="45.93224" lon="4.76401">
        <ele>168</ele>
        <time>2018-06-13T13:42:10Z</time>
      </trkpt>
      <trkpt lat="45.93223" lon="4.76409">
        <ele>168</ele>
        <time>2018-06-13T13:42:11Z</time>
      </trkpt>
      <trkpt lat="45.93224" lon="4.76418">
        <ele>168</ele>
        <time>2018-06-13T13:42:12Z</time>
      </trkpt>
      <trkpt lat="45.93223" lon="4.76424">
        <ele>168</ele>
        <time>2018-06-13T13:42:13Z</time>
      </trkpt>
      <trkpt lat="45.93222" lon="4.76432">
        <ele>168</ele>
        <time>2018-06-13T13:42:14Z</time>
      </trkpt>
      <trkpt lat="45.93222" lon="4.76438">
        <ele>168</ele>
        <time>2018-06-13T13:42:15Z</time>
      </trkpt>
      <trkpt lat="45.93221" lon="4.76445">
        <ele>168</ele>
        <time>2018-06-13T13:42:16Z</time>
      </trkpt>
      <trkpt lat="45.93221" lon="4.76451">
        <ele>168</ele>
        <time>2018-06-13T13:42:17Z</time>
      </trkpt>
      <trkpt lat="45.93221" lon="4.76458">
        <ele>168</ele>
        <time>2018-06-13T13:42:18Z</time>
      </trkpt>
      <trkpt lat="45.93221" lon="4.76466">
        <ele>169</ele>
        <time>2018-06-13T13:42:19Z</time>
      </trkpt>
      <trkpt lat="45.9322" lon="4.76474">
        <ele>169</ele>
        <time>2018-06-13T13:42:20Z</time>
      </trkpt>
      <trkpt lat="45.9322" lon="4.76482">
        <ele>169</ele>
        <time>2018-06-13T13:42:21Z</time>
      </trkpt>
      <trkpt lat="45.93219" lon="4.76489">
        <ele>169</ele>
        <time>2018-06-13T13:42:22Z</time>
      </trkpt>
      <trkpt lat="45.93219" lon="4.76496">
        <ele>169</ele>
        <time>2018-06-13T13:42:23Z</time>
      </trkpt>
      <trkpt lat="45.93218" lon="4.76503">
        <ele>169</ele>
        <time>2018-06-13T13:42:24Z</time>
      </trkpt>
      <trkpt lat="45.93218" lon="4.7651">
        <ele>169</ele>
        <time>2018-06-13T13:42:25Z</time>
      </trkpt>
      <trkpt lat="45.93217" lon="4.76516">
        <ele>169</ele>
        <time>2018-06-13T13:42:26Z</time>
      </trkpt>
      <trkpt lat="45.93215" lon="4.76528">
        <ele>169</ele>
        <time>2018-06-13T13:42:28Z</time>
      </trkpt>
      <trkpt lat="45.93215" lon="4.76535">
        <ele>169</ele>
        <time>2018-06-13T13:42:29Z</time>
      </trkpt>
      <trkpt lat="45.93214" lon="4.76543">
        <ele>169</ele>
        <time>2018-06-13T13:42:30Z</time>
      </trkpt>
      <trkpt lat="45.93213" lon="4.76549">
        <ele>169</ele>
        <time>2018-06-13T13:42:31Z</time>
      </trkpt>
      <trkpt lat="45.93211" lon="4.7656">
        <ele>169</ele>
        <time>2018-06-13T13:42:33Z</time>
      </trkpt>
      <trkpt lat="45.9321" lon="4.76566">
        <ele>169</ele>
        <time>2018-06-13T13:42:34Z</time>
      </trkpt>
      <trkpt lat="45.93207" lon="4.76576">
        <ele>169</ele>
        <time>2018-06-13T13:42:36Z</time>
      </trkpt>
      <trkpt lat="45.93205" lon="4.76582">
        <ele>169</ele>
        <time>2018-06-13T13:42:37Z</time>
      </trkpt>
      <trkpt lat="45.93201" lon="4.76592">
        <ele>170</ele>
        <time>2018-06-13T13:42:41Z</time>
      </trkpt>
      <trkpt lat="45.93201" lon="4.76595">
        <ele>170</ele>
        <time>2018-06-13T13:42:42Z</time>
      </trkpt>
      <trkpt lat="45.932" lon="4.76602">
        <ele>170</ele>
        <time>2018-06-13T13:42:44Z</time>
      </trkpt>
      <trkpt lat="45.93202" lon="4.76611">
        <ele>170</ele>
        <time>2018-06-13T13:42:45Z</time>
      </trkpt>
      <trkpt lat="45.93209" lon="4.76618">
        <ele>170</ele>
        <time>2018-06-13T13:42:47Z</time>
      </trkpt>
      <trkpt lat="45.93213" lon="4.76621">
        <ele>170</ele>
        <time>2018-06-13T13:42:48Z</time>
      </trkpt>
      <trkpt lat="45.9322" lon="4.76626">
        <ele>170</ele>
        <time>2018-06-13T13:42:50Z</time>
      </trkpt>
      <trkpt lat="45.93223" lon="4.76629">
        <ele>170</ele>
        <time>2018-06-13T13:42:51Z</time>
      </trkpt>
      <trkpt lat="45.93227" lon="4.76633">
        <ele>171</ele>
        <time>2018-06-13T13:42:52Z</time>
      </trkpt>
      <trkpt lat="45.93231" lon="4.76637">
        <ele>171</ele>
        <time>2018-06-13T13:42:53Z</time>
      </trkpt>
      <trkpt lat="45.93235" lon="4.76641">
        <ele>171</ele>
        <time>2018-06-13T13:42:54Z</time>
      </trkpt>
      <trkpt lat="45.93239" lon="4.76644">
        <ele>171</ele>
        <time>2018-06-13T13:42:55Z</time>
      </trkpt>
      <trkpt lat="45.93245" lon="4.7665">
        <ele>171</ele>
        <time>2018-06-13T13:42:57Z</time>
      </trkpt>
      <trkpt lat="45.93249" lon="4.76654">
        <ele>171</ele>
        <time>2018-06-13T13:42:58Z</time>
      </trkpt>
      <trkpt lat="45.93256" lon="4.76661">
        <ele>171</ele>
        <time>2018-06-13T13:43:00Z</time>
      </trkpt>
      <trkpt lat="45.93257" lon="4.76662">
        <ele>171</ele>
        <time>2018-06-13T13:43:01Z</time>
      </trkpt>
      <trkpt lat="45.93261" lon="4.76667">
        <ele>172</ele>
        <time>2018-06-13T13:43:02Z</time>
      </trkpt>
      <trkpt lat="45.93265" lon="4.76671">
        <ele>172</ele>
        <time>2018-06-13T13:43:03Z</time>
      </trkpt>
      <trkpt lat="45.93269" lon="4.76675">
        <ele>172</ele>
        <time>2018-06-13T13:43:04Z</time>
      </trkpt>
      <trkpt lat="45.93273" lon="4.76679">
        <ele>172</ele>
        <time>2018-06-13T13:43:05Z</time>
      </trkpt>
      <trkpt lat="45.93278" lon="4.76682">
        <ele>172</ele>
        <time>2018-06-13T13:43:06Z</time>
      </trkpt>
      <trkpt lat="45.93282" lon="4.76685">
        <ele>172</ele>
        <time>2018-06-13T13:43:07Z</time>
      </trkpt>
      <trkpt lat="45.93288" lon="4.76693">
        <ele>172</ele>
        <time>2018-06-13T13:43:09Z</time>
      </trkpt>
      <trkpt lat="45.93293" lon="4.76697">
        <ele>172</ele>
        <time>2018-06-13T13:43:10Z</time>
      </trkpt>
      <trkpt lat="45.93299" lon="4.76703">
        <ele>172</ele>
        <time>2018-06-13T13:43:11Z</time>
      </trkpt>
      <trkpt lat="45.93303" lon="4.76707">
        <ele>172</ele>
        <time>2018-06-13T13:43:12Z</time>
      </trkpt>
      <trkpt lat="45.9331" lon="4.76715">
        <ele>172</ele>
        <time>2018-06-13T13:43:14Z</time>
      </trkpt>
      <trkpt lat="45.93313" lon="4.76718">
        <ele>172</ele>
        <time>2018-06-13T13:43:15Z</time>
      </trkpt>
      <trkpt lat="45.93317" lon="4.76721">
        <ele>172</ele>
        <time>2018-06-13T13:43:16Z</time>
      </trkpt>
      <trkpt lat="45.93321" lon="4.76725">
        <ele>172</ele>
        <time>2018-06-13T13:43:17Z</time>
      </trkpt>
      <trkpt lat="45.93325" lon="4.76729">
        <ele>172</ele>
        <time>2018-06-13T13:43:18Z</time>
      </trkpt>
      <trkpt lat="45.93329" lon="4.76732">
        <ele>172</ele>
        <time>2018-06-13T13:43:19Z</time>
      </trkpt>
      <trkpt lat="45.93333" lon="4.76736">
        <ele>172</ele>
        <time>2018-06-13T13:43:20Z</time>
      </trkpt>
      <trkpt lat="45.93337" lon="4.7674">
        <ele>173</ele>
        <time>2018-06-13T13:43:21Z</time>
      </trkpt>
      <trkpt lat="45.93341" lon="4.76744">
        <ele>173</ele>
        <time>2018-06-13T13:43:22Z</time>
      </trkpt>
      <trkpt lat="45.93346" lon="4.76749">
        <ele>172</ele>
        <time>2018-06-13T13:43:23Z</time>
      </trkpt>
      <trkpt lat="45.93353" lon="4.76756">
        <ele>172</ele>
        <time>2018-06-13T13:43:25Z</time>
      </trkpt>
      <trkpt lat="45.93356" lon="4.76759">
        <ele>172</ele>
        <time>2018-06-13T13:43:26Z</time>
      </trkpt>
      <trkpt lat="45.93363" lon="4.76766">
        <ele>172</ele>
        <time>2018-06-13T13:43:28Z</time>
      </trkpt>
      <trkpt lat="45.93366" lon="4.76771">
        <ele>172</ele>
        <time>2018-06-13T13:43:29Z</time>
      </trkpt>
      <trkpt lat="45.9337" lon="4.76775">
        <ele>172</ele>
        <time>2018-06-13T13:43:30Z</time>
      </trkpt>
      <trkpt lat="45.93375" lon="4.7678">
        <ele>172</ele>
        <time>2018-06-13T13:43:31Z</time>
      </trkpt>
      <trkpt lat="45.93378" lon="4.76785">
        <ele>172</ele>
        <time>2018-06-13T13:43:32Z</time>
      </trkpt>
      <trkpt lat="45.93383" lon="4.7679">
        <ele>172</ele>
        <time>2018-06-13T13:43:33Z</time>
      </trkpt>
      <trkpt lat="45.93388" lon="4.76796">
        <ele>172</ele>
        <time>2018-06-13T13:43:34Z</time>
      </trkpt>
      <trkpt lat="45.93392" lon="4.768">
        <ele>172</ele>
        <time>2018-06-13T13:43:35Z</time>
      </trkpt>
      <trkpt lat="45.93396" lon="4.76806">
        <ele>172</ele>
        <time>2018-06-13T13:43:36Z</time>
      </trkpt>
      <trkpt lat="45.934" lon="4.76812">
        <ele>172</ele>
        <time>2018-06-13T13:43:37Z</time>
      </trkpt>
      <trkpt lat="45.93404" lon="4.76817">
        <ele>172</ele>
        <time>2018-06-13T13:43:38Z</time>
      </trkpt>
      <trkpt lat="45.93407" lon="4.76822">
        <ele>172</ele>
        <time>2018-06-13T13:43:39Z</time>
      </trkpt>
      <trkpt lat="45.9341" lon="4.76827">
        <ele>172</ele>
        <time>2018-06-13T13:43:40Z</time>
      </trkpt>
      <trkpt lat="45.93414" lon="4.76833">
        <ele>172</ele>
        <time>2018-06-13T13:43:41Z</time>
      </trkpt>
      <trkpt lat="45.93417" lon="4.76839">
        <ele>172</ele>
        <time>2018-06-13T13:43:42Z</time>
      </trkpt>
      <trkpt lat="45.9342" lon="4.76845">
        <ele>171</ele>
        <time>2018-06-13T13:43:43Z</time>
      </trkpt>
      <trkpt lat="45.93423" lon="4.76851">
        <ele>171</ele>
        <time>2018-06-13T13:43:44Z</time>
      </trkpt>
      <trkpt lat="45.93426" lon="4.76858">
        <ele>171</ele>
        <time>2018-06-13T13:43:45Z</time>
      </trkpt>
      <trkpt lat="45.93428" lon="4.76863">
        <ele>171</ele>
        <time>2018-06-13T13:43:46Z</time>
      </trkpt>
      <trkpt lat="45.9343" lon="4.76869">
        <ele>171</ele>
        <time>2018-06-13T13:43:47Z</time>
      </trkpt>
      <trkpt lat="45.93434" lon="4.76881">
        <ele>171</ele>
        <time>2018-06-13T13:43:49Z</time>
      </trkpt>
      <trkpt lat="45.93438" lon="4.76887">
        <ele>170</ele>
        <time>2018-06-13T13:43:50Z</time>
      </trkpt>
      <trkpt lat="45.9344" lon="4.76894">
        <ele>170</ele>
        <time>2018-06-13T13:43:51Z</time>
      </trkpt>
      <trkpt lat="45.93443" lon="4.76901">
        <ele>170</ele>
        <time>2018-06-13T13:43:52Z</time>
      </trkpt>
      <trkpt lat="45.93444" lon="4.76909">
        <ele>170</ele>
        <time>2018-06-13T13:43:53Z</time>
      </trkpt>
      <trkpt lat="45.93446" lon="4.76916">
        <ele>170</ele>
        <time>2018-06-13T13:43:54Z</time>
      </trkpt>
      <trkpt lat="45.93447" lon="4.76922">
        <ele>170</ele>
        <time>2018-06-13T13:43:55Z</time>
      </trkpt>
      <trkpt lat="45.93449" lon="4.76928">
        <ele>170</ele>
        <time>2018-06-13T13:43:56Z</time>
      </trkpt>
      <trkpt lat="45.93449" lon="4.76934">
        <ele>170</ele>
        <time>2018-06-13T13:43:57Z</time>
      </trkpt>
      <trkpt lat="45.9345" lon="4.76941">
        <ele>170</ele>
        <time>2018-06-13T13:43:58Z</time>
      </trkpt>
      <trkpt lat="45.93452" lon="4.76948">
        <ele>170</ele>
        <time>2018-06-13T13:43:59Z</time>
      </trkpt>
      <trkpt lat="45.93454" lon="4.76955">
        <ele>170</ele>
        <time>2018-06-13T13:44:00Z</time>
      </trkpt>
      <trkpt lat="45.93455" lon="4.76963">
        <ele>170</ele>
        <time>2018-06-13T13:44:01Z</time>
      </trkpt>
      <trkpt lat="45.93456" lon="4.76971">
        <ele>170</ele>
        <time>2018-06-13T13:44:02Z</time>
      </trkpt>
      <trkpt lat="45.93457" lon="4.76978">
        <ele>170</ele>
        <time>2018-06-13T13:44:03Z</time>
      </trkpt>
      <trkpt lat="45.93458" lon="4.76984">
        <ele>170</ele>
        <time>2018-06-13T13:44:04Z</time>
      </trkpt>
      <trkpt lat="45.9346" lon="4.76997">
        <ele>170</ele>
        <time>2018-06-13T13:44:06Z</time>
      </trkpt>
      <trkpt lat="45.9346" lon="4.77003">
        <ele>170</ele>
        <time>2018-06-13T13:44:07Z</time>
      </trkpt>
      <trkpt lat="45.93461" lon="4.77009">
        <ele>170</ele>
        <time>2018-06-13T13:44:08Z</time>
      </trkpt>
      <trkpt lat="45.93462" lon="4.77017">
        <ele>170</ele>
        <time>2018-06-13T13:44:09Z</time>
      </trkpt>
      <trkpt lat="45.93464" lon="4.77025">
        <ele>170</ele>
        <time>2018-06-13T13:44:10Z</time>
      </trkpt>
      <trkpt lat="45.93465" lon="4.77033">
        <ele>170</ele>
        <time>2018-06-13T13:44:11Z</time>
      </trkpt>
      <trkpt lat="45.93466" lon="4.77041">
        <ele>170</ele>
        <time>2018-06-13T13:44:12Z</time>
      </trkpt>
      <trkpt lat="45.93468" lon="4.77048">
        <ele>170</ele>
        <time>2018-06-13T13:44:13Z</time>
      </trkpt>
      <trkpt lat="45.93469" lon="4.77055">
        <ele>170</ele>
        <time>2018-06-13T13:44:14Z</time>
      </trkpt>
      <trkpt lat="45.9347" lon="4.77063">
        <ele>170</ele>
        <time>2018-06-13T13:44:15Z</time>
      </trkpt>
      <trkpt lat="45.93472" lon="4.77069">
        <ele>170</ele>
        <time>2018-06-13T13:44:16Z</time>
      </trkpt>
      <trkpt lat="45.93473" lon="4.77076">
        <ele>170</ele>
        <time>2018-06-13T13:44:17Z</time>
      </trkpt>
      <trkpt lat="45.93474" lon="4.77082">
        <ele>170</ele>
        <time>2018-06-13T13:44:18Z</time>
      </trkpt>
      <trkpt lat="45.93475" lon="4.7709">
        <ele>169</ele>
        <time>2018-06-13T13:44:19Z</time>
      </trkpt>
      <trkpt lat="45.93476" lon="4.77097">
        <ele>169</ele>
        <time>2018-06-13T13:44:20Z</time>
      </trkpt>
      <trkpt lat="45.93477" lon="4.77104">
        <ele>169</ele>
        <time>2018-06-13T13:44:21Z</time>
      </trkpt>
      <trkpt lat="45.93479" lon="4.77111">
        <ele>169</ele>
        <time>2018-06-13T13:44:22Z</time>
      </trkpt>
      <trkpt lat="45.9348" lon="4.77117">
        <ele>169</ele>
        <time>2018-06-13T13:44:23Z</time>
      </trkpt>
      <trkpt lat="45.93483" lon="4.77129">
        <ele>169</ele>
        <time>2018-06-13T13:44:25Z</time>
      </trkpt>
      <trkpt lat="45.93484" lon="4.77135">
        <ele>169</ele>
        <time>2018-06-13T13:44:26Z</time>
      </trkpt>
      <trkpt lat="45.93486" lon="4.77147">
        <ele>169</ele>
        <time>2018-06-13T13:44:28Z</time>
      </trkpt>
      <trkpt lat="45.93488" lon="4.77153">
        <ele>169</ele>
        <time>2018-06-13T13:44:29Z</time>
      </trkpt>
      <trkpt lat="45.93489" lon="4.77159">
        <ele>169</ele>
        <time>2018-06-13T13:44:30Z</time>
      </trkpt>
      <trkpt lat="45.9349" lon="4.77166">
        <ele>169</ele>
        <time>2018-06-13T13:44:31Z</time>
      </trkpt>
      <trkpt lat="45.93491" lon="4.77173">
        <ele>169</ele>
        <time>2018-06-13T13:44:32Z</time>
      </trkpt>
      <trkpt lat="45.93493" lon="4.77179">
        <ele>169</ele>
        <time>2018-06-13T13:44:33Z</time>
      </trkpt>
      <trkpt lat="45.93494" lon="4.77185">
        <ele>169</ele>
        <time>2018-06-13T13:44:34Z</time>
      </trkpt>
      <trkpt lat="45.93496" lon="4.77192">
        <ele>169</ele>
        <time>2018-06-13T13:44:35Z</time>
      </trkpt>
      <trkpt lat="45.93498" lon="4.77199">
        <ele>169</ele>
        <time>2018-06-13T13:44:36Z</time>
      </trkpt>
      <trkpt lat="45.93499" lon="4.77206">
        <ele>169</ele>
        <time>2018-06-13T13:44:37Z</time>
      </trkpt>
      <trkpt lat="45.93501" lon="4.77218">
        <ele>169</ele>
        <time>2018-06-13T13:44:39Z</time>
      </trkpt>
      <trkpt lat="45.93502" lon="4.77224">
        <ele>169</ele>
        <time>2018-06-13T13:44:40Z</time>
      </trkpt>
      <trkpt lat="45.93505" lon="4.77234">
        <ele>169</ele>
        <time>2018-06-13T13:44:42Z</time>
      </trkpt>
      <trkpt lat="45.93507" lon="4.7724">
        <ele>169</ele>
        <time>2018-06-13T13:44:43Z</time>
      </trkpt>
      <trkpt lat="45.93508" lon="4.77247">
        <ele>170</ele>
        <time>2018-06-13T13:44:44Z</time>
      </trkpt>
      <trkpt lat="45.9351" lon="4.77255">
        <ele>170</ele>
        <time>2018-06-13T13:44:45Z</time>
      </trkpt>
      <trkpt lat="45.93511" lon="4.77261">
        <ele>170</ele>
        <time>2018-06-13T13:44:46Z</time>
      </trkpt>
      <trkpt lat="45.93512" lon="4.77267">
        <ele>170</ele>
        <time>2018-06-13T13:44:47Z</time>
      </trkpt>
      <trkpt lat="45.93515" lon="4.77279">
        <ele>170</ele>
        <time>2018-06-13T13:44:49Z</time>
      </trkpt>
      <trkpt lat="45.93516" lon="4.77285">
        <ele>170</ele>
        <time>2018-06-13T13:44:50Z</time>
      </trkpt>
      <trkpt lat="45.93517" lon="4.77292">
        <ele>170</ele>
        <time>2018-06-13T13:44:51Z</time>
      </trkpt>
      <trkpt lat="45.93519" lon="4.77298">
        <ele>170</ele>
        <time>2018-06-13T13:44:52Z</time>
      </trkpt>
      <trkpt lat="45.9352" lon="4.77304">
        <ele>170</ele>
        <time>2018-06-13T13:44:53Z</time>
      </trkpt>
      <trkpt lat="45.93522" lon="4.77311">
        <ele>170</ele>
        <time>2018-06-13T13:44:54Z</time>
      </trkpt>
      <trkpt lat="45.93524" lon="4.77323">
        <ele>170</ele>
        <time>2018-06-13T13:44:56Z</time>
      </trkpt>
      <trkpt lat="45.93526" lon="4.7733">
        <ele>170</ele>
        <time>2018-06-13T13:44:57Z</time>
      </trkpt>
      <trkpt lat="45.93528" lon="4.77337">
        <ele>170</ele>
        <time>2018-06-13T13:44:58Z</time>
      </trkpt>
      <trkpt lat="45.93529" lon="4.77344">
        <ele>170</ele>
        <time>2018-06-13T13:44:59Z</time>
      </trkpt>
      <trkpt lat="45.9353" lon="4.7735">
        <ele>170</ele>
        <time>2018-06-13T13:45:00Z</time>
      </trkpt>
      <trkpt lat="45.93532" lon="4.77357">
        <ele>170</ele>
        <time>2018-06-13T13:45:01Z</time>
      </trkpt>
      <trkpt lat="45.93533" lon="4.77363">
        <ele>170</ele>
        <time>2018-06-13T13:45:02Z</time>
      </trkpt>
      <trkpt lat="45.93535" lon="4.77369">
        <ele>170</ele>
        <time>2018-06-13T13:45:03Z</time>
      </trkpt>
      <trkpt lat="45.93537" lon="4.77375">
        <ele>170</ele>
        <time>2018-06-13T13:45:04Z</time>
      </trkpt>
      <trkpt lat="45.93538" lon="4.77382">
        <ele>170</ele>
        <time>2018-06-13T13:45:05Z</time>
      </trkpt>
      <trkpt lat="45.9354" lon="4.77394">
        <ele>170</ele>
        <time>2018-06-13T13:45:07Z</time>
      </trkpt>
      <trkpt lat="45.93542" lon="4.774">
        <ele>170</ele>
        <time>2018-06-13T13:45:08Z</time>
      </trkpt>
      <trkpt lat="45.93545" lon="4.7741">
        <ele>170</ele>
        <time>2018-06-13T13:45:10Z</time>
      </trkpt>
      <trkpt lat="45.93547" lon="4.77417">
        <ele>170</ele>
        <time>2018-06-13T13:45:11Z</time>
      </trkpt>
      <trkpt lat="45.93548" lon="4.77424">
        <ele>170</ele>
        <time>2018-06-13T13:45:12Z</time>
      </trkpt>
      <trkpt lat="45.93549" lon="4.7743">
        <ele>169</ele>
        <time>2018-06-13T13:45:13Z</time>
      </trkpt>
      <trkpt lat="45.93551" lon="4.77437">
        <ele>169</ele>
        <time>2018-06-13T13:45:14Z</time>
      </trkpt>
      <trkpt lat="45.93552" lon="4.77444">
        <ele>169</ele>
        <time>2018-06-13T13:45:15Z</time>
      </trkpt>
      <trkpt lat="45.93553" lon="4.77451">
        <ele>169</ele>
        <time>2018-06-13T13:45:16Z</time>
      </trkpt>
      <trkpt lat="45.93555" lon="4.77459">
        <ele>169</ele>
        <time>2018-06-13T13:45:17Z</time>
      </trkpt>
      <trkpt lat="45.93556" lon="4.77466">
        <ele>169</ele>
        <time>2018-06-13T13:45:18Z</time>
      </trkpt>
      <trkpt lat="45.93558" lon="4.77474">
        <ele>169</ele>
        <time>2018-06-13T13:45:19Z</time>
      </trkpt>
      <trkpt lat="45.93561" lon="4.77486">
        <ele>169</ele>
        <time>2018-06-13T13:45:21Z</time>
      </trkpt>
      <trkpt lat="45.93562" lon="4.77493">
        <ele>169</ele>
        <time>2018-06-13T13:45:22Z</time>
      </trkpt>
      <trkpt lat="45.93564" lon="4.775">
        <ele>169</ele>
        <time>2018-06-13T13:45:23Z</time>
      </trkpt>
      <trkpt lat="45.93565" lon="4.77507">
        <ele>169</ele>
        <time>2018-06-13T13:45:24Z</time>
      </trkpt>
      <trkpt lat="45.93567" lon="4.77513">
        <ele>169</ele>
        <time>2018-06-13T13:45:25Z</time>
      </trkpt>
      <trkpt lat="45.93568" lon="4.7752">
        <ele>169</ele>
        <time>2018-06-13T13:45:26Z</time>
      </trkpt>
      <trkpt lat="45.93569" lon="4.77526">
        <ele>169</ele>
        <time>2018-06-13T13:45:27Z</time>
      </trkpt>
      <trkpt lat="45.9357" lon="4.77533">
        <ele>169</ele>
        <time>2018-06-13T13:45:28Z</time>
      </trkpt>
      <trkpt lat="45.93572" lon="4.77539">
        <ele>169</ele>
        <time>2018-06-13T13:45:29Z</time>
      </trkpt>
      <trkpt lat="45.93573" lon="4.77546">
        <ele>169</ele>
        <time>2018-06-13T13:45:30Z</time>
      </trkpt>
      <trkpt lat="45.93576" lon="4.77554">
        <ele>169</ele>
        <time>2018-06-13T13:45:31Z</time>
      </trkpt>
      <trkpt lat="45.93578" lon="4.77562">
        <ele>169</ele>
        <time>2018-06-13T13:45:32Z</time>
      </trkpt>
      <trkpt lat="45.93579" lon="4.77568">
        <ele>170</ele>
        <time>2018-06-13T13:45:33Z</time>
      </trkpt>
      <trkpt lat="45.93581" lon="4.77574">
        <ele>170</ele>
        <time>2018-06-13T13:45:34Z</time>
      </trkpt>
      <trkpt lat="45.93584" lon="4.77582">
        <ele>170</ele>
        <time>2018-06-13T13:45:35Z</time>
      </trkpt>
      <trkpt lat="45.93586" lon="4.77588">
        <ele>170</ele>
        <time>2018-06-13T13:45:36Z</time>
      </trkpt>
      <trkpt lat="45.93588" lon="4.77594">
        <ele>170</ele>
        <time>2018-06-13T13:45:37Z</time>
      </trkpt>
      <trkpt lat="45.9359" lon="4.776">
        <ele>170</ele>
        <time>2018-06-13T13:45:38Z</time>
      </trkpt>
      <trkpt lat="45.93593" lon="4.77607">
        <ele>170</ele>
        <time>2018-06-13T13:45:39Z</time>
      </trkpt>
      <trkpt lat="45.93595" lon="4.77613">
        <ele>170</ele>
        <time>2018-06-13T13:45:40Z</time>
      </trkpt>
      <trkpt lat="45.93597" lon="4.77618">
        <ele>170</ele>
        <time>2018-06-13T13:45:41Z</time>
      </trkpt>
      <trkpt lat="45.936" lon="4.77625">
        <ele>169</ele>
        <time>2018-06-13T13:45:42Z</time>
      </trkpt>
      <trkpt lat="45.93602" lon="4.77632">
        <ele>169</ele>
        <time>2018-06-13T13:45:43Z</time>
      </trkpt>
      <trkpt lat="45.93605" lon="4.77639">
        <ele>169</ele>
        <time>2018-06-13T13:45:44Z</time>
      </trkpt>
      <trkpt lat="45.93607" lon="4.77645">
        <ele>169</ele>
        <time>2018-06-13T13:45:45Z</time>
      </trkpt>
      <trkpt lat="45.93609" lon="4.77652">
        <ele>169</ele>
        <time>2018-06-13T13:45:46Z</time>
      </trkpt>
      <trkpt lat="45.93611" lon="4.77658">
        <ele>169</ele>
        <time>2018-06-13T13:45:47Z</time>
      </trkpt>
      <trkpt lat="45.93614" lon="4.77664">
        <ele>169</ele>
        <time>2018-06-13T13:45:48Z</time>
      </trkpt>
      <trkpt lat="45.93617" lon="4.77669">
        <ele>169</ele>
        <time>2018-06-13T13:45:49Z</time>
      </trkpt>
      <trkpt lat="45.93619" lon="4.77675">
        <ele>169</ele>
        <time>2018-06-13T13:45:50Z</time>
      </trkpt>
      <trkpt lat="45.93625" lon="4.77685">
        <ele>169</ele>
        <time>2018-06-13T13:45:52Z</time>
      </trkpt>
      <trkpt lat="45.93627" lon="4.7769">
        <ele>169</ele>
        <time>2018-06-13T13:45:53Z</time>
      </trkpt>
      <trkpt lat="45.9363" lon="4.77696">
        <ele>169</ele>
        <time>2018-06-13T13:45:54Z</time>
      </trkpt>
      <trkpt lat="45.93633" lon="4.77701">
        <ele>169</ele>
        <time>2018-06-13T13:45:55Z</time>
      </trkpt>
      <trkpt lat="45.93638" lon="4.7771">
        <ele>170</ele>
        <time>2018-06-13T13:45:57Z</time>
      </trkpt>
      <trkpt lat="45.9364" lon="4.77715">
        <ele>170</ele>
        <time>2018-06-13T13:45:58Z</time>
      </trkpt>
      <trkpt lat="45.93643" lon="4.7772">
        <ele>170</ele>
        <time>2018-06-13T13:45:59Z</time>
      </trkpt>
      <trkpt lat="45.93645" lon="4.77726">
        <ele>170</ele>
        <time>2018-06-13T13:46:00Z</time>
      </trkpt>
      <trkpt lat="45.9365" lon="4.77734">
        <ele>170</ele>
        <time>2018-06-13T13:46:02Z</time>
      </trkpt>
      <trkpt lat="45.93652" lon="4.77738">
        <ele>170</ele>
        <time>2018-06-13T13:46:03Z</time>
      </trkpt>
      <trkpt lat="45.93655" lon="4.77742">
        <ele>170</ele>
        <time>2018-06-13T13:46:05Z</time>
      </trkpt>
      <trkpt lat="45.9366" lon="4.77748">
        <ele>171</ele>
        <time>2018-06-13T13:46:06Z</time>
      </trkpt>
      <trkpt lat="45.93665" lon="4.77755">
        <ele>171</ele>
        <time>2018-06-13T13:46:08Z</time>
      </trkpt>
      <trkpt lat="45.93668" lon="4.77759">
        <ele>170</ele>
        <time>2018-06-13T13:46:09Z</time>
      </trkpt>
      <trkpt lat="45.93672" lon="4.77766">
        <ele>170</ele>
        <time>2018-06-13T13:46:12Z</time>
      </trkpt>
      <trkpt lat="45.93677" lon="4.77774">
        <ele>170</ele>
        <time>2018-06-13T13:46:13Z</time>
      </trkpt>
      <trkpt lat="45.93681" lon="4.77781">
        <ele>170</ele>
        <time>2018-06-13T13:46:15Z</time>
      </trkpt>
      <trkpt lat="45.93684" lon="4.77784">
        <ele>170</ele>
        <time>2018-06-13T13:46:16Z</time>
      </trkpt>
      <trkpt lat="45.93689" lon="4.77792">
        <ele>170</ele>
        <time>2018-06-13T13:46:18Z</time>
      </trkpt>
      <trkpt lat="45.93691" lon="4.77794">
        <ele>169</ele>
        <time>2018-06-13T13:46:19Z</time>
      </trkpt>
      <trkpt lat="45.93696" lon="4.77801">
        <ele>169</ele>
        <time>2018-06-13T13:46:22Z</time>
      </trkpt>
      <trkpt lat="45.93702" lon="4.77808">
        <ele>169</ele>
        <time>2018-06-13T13:46:23Z</time>
      </trkpt>
      <trkpt lat="45.93705" lon="4.77813">
        <ele>169</ele>
        <time>2018-06-13T13:46:25Z</time>
      </trkpt>
      <trkpt lat="45.9371" lon="4.7782">
        <ele>169</ele>
        <time>2018-06-13T13:46:26Z</time>
      </trkpt>
      <trkpt lat="45.93714" lon="4.77826">
        <ele>169</ele>
        <time>2018-06-13T13:46:28Z</time>
      </trkpt>
      <trkpt lat="45.93717" lon="4.77831">
        <ele>168</ele>
        <time>2018-06-13T13:46:29Z</time>
      </trkpt>
      <trkpt lat="45.93724" lon="4.77839">
        <ele>167</ele>
        <time>2018-06-13T13:46:32Z</time>
      </trkpt>
      <trkpt lat="45.93729" lon="4.77846">
        <ele>167</ele>
        <time>2018-06-13T13:46:33Z</time>
      </trkpt>
      <trkpt lat="45.93735" lon="4.77854">
        <ele>167</ele>
        <time>2018-06-13T13:46:35Z</time>
      </trkpt>
      <trkpt lat="45.93738" lon="4.77858">
        <ele>167</ele>
        <time>2018-06-13T13:46:36Z</time>
      </trkpt>
      <trkpt lat="45.93744" lon="4.77866">
        <ele>167</ele>
        <time>2018-06-13T13:46:38Z</time>
      </trkpt>
      <trkpt lat="45.93747" lon="4.7787">
        <ele>167</ele>
        <time>2018-06-13T13:46:39Z</time>
      </trkpt>
      <trkpt lat="45.93753" lon="4.77879">
        <ele>166</ele>
        <time>2018-06-13T13:46:41Z</time>
      </trkpt>
      <trkpt lat="45.93756" lon="4.77883">
        <ele>166</ele>
        <time>2018-06-13T13:46:42Z</time>
      </trkpt>
      <trkpt lat="45.93763" lon="4.77891">
        <ele>166</ele>
        <time>2018-06-13T13:46:44Z</time>
      </trkpt>
      <trkpt lat="45.93766" lon="4.77896">
        <ele>166</ele>
        <time>2018-06-13T13:46:45Z</time>
      </trkpt>
      <trkpt lat="45.93769" lon="4.779">
        <ele>166</ele>
        <time>2018-06-13T13:46:46Z</time>
      </trkpt>
      <trkpt lat="45.93772" lon="4.77904">
        <ele>166</ele>
        <time>2018-06-13T13:46:47Z</time>
      </trkpt>
      <trkpt lat="45.93776" lon="4.77909">
        <ele>166</ele>
        <time>2018-06-13T13:46:48Z</time>
      </trkpt>
      <trkpt lat="45.9378" lon="4.77913">
        <ele>166</ele>
        <time>2018-06-13T13:46:49Z</time>
      </trkpt>
      <trkpt lat="45.93783" lon="4.77917">
        <ele>168</ele>
        <time>2018-06-13T13:46:50Z</time>
      </trkpt>
      <trkpt lat="45.93787" lon="4.77921">
        <ele>168</ele>
        <time>2018-06-13T13:46:51Z</time>
      </trkpt>
      <trkpt lat="45.93794" lon="4.7793">
        <ele>168</ele>
        <time>2018-06-13T13:46:53Z</time>
      </trkpt>
      <trkpt lat="45.93798" lon="4.77934">
        <ele>168</ele>
        <time>2018-06-13T13:46:54Z</time>
      </trkpt>
      <trkpt lat="45.93801" lon="4.77938">
        <ele>169</ele>
        <time>2018-06-13T13:46:55Z</time>
      </trkpt>
      <trkpt lat="45.93805" lon="4.77943">
        <ele>169</ele>
        <time>2018-06-13T13:46:56Z</time>
      </trkpt>
      <trkpt lat="45.93811" lon="4.77952">
        <ele>169</ele>
        <time>2018-06-13T13:46:58Z</time>
      </trkpt>
      <trkpt lat="45.93815" lon="4.77956">
        <ele>170</ele>
        <time>2018-06-13T13:46:59Z</time>
      </trkpt>
      <trkpt lat="45.93821" lon="4.77964">
        <ele>171</ele>
        <time>2018-06-13T13:47:01Z</time>
      </trkpt>
      <trkpt lat="45.93825" lon="4.7797">
        <ele>172</ele>
        <time>2018-06-13T13:47:02Z</time>
      </trkpt>
      <trkpt lat="45.93828" lon="4.77974">
        <ele>172</ele>
        <time>2018-06-13T13:47:03Z</time>
      </trkpt>
      <trkpt lat="45.93832" lon="4.7798">
        <ele>173</ele>
        <time>2018-06-13T13:47:04Z</time>
      </trkpt>
      <trkpt lat="45.93837" lon="4.77988">
        <ele>179</ele>
        <time>2018-06-13T13:47:06Z</time>
      </trkpt>
      <trkpt lat="45.93838" lon="4.7799">
        <ele>179</ele>
        <time>2018-06-13T13:47:07Z</time>
      </trkpt>
      <trkpt lat="45.93842" lon="4.78">
        <ele>179</ele>
        <time>2018-06-13T13:47:10Z</time>
      </trkpt>
      <trkpt lat="45.93842" lon="4.78003">
        <ele>180</ele>
        <time>2018-06-13T13:47:11Z</time>
      </trkpt>
      <trkpt lat="45.93844" lon="4.78015">
        <ele>181</ele>
        <time>2018-06-13T13:47:12Z</time>
      </trkpt>
      <trkpt lat="45.93844" lon="4.78019">
        <ele>182</ele>
        <time>2018-06-13T13:47:13Z</time>
      </trkpt>
      <trkpt lat="45.93847" lon="4.7803">
        <ele>182</ele>
        <time>2018-06-13T13:47:16Z</time>
      </trkpt>
      <trkpt lat="45.93848" lon="4.78034">
        <ele>182</ele>
        <time>2018-06-13T13:47:17Z</time>
      </trkpt>
      <trkpt lat="45.93849" lon="4.78038">
        <ele>183</ele>
        <time>2018-06-13T13:47:18Z</time>
      </trkpt>
      <trkpt lat="45.93852" lon="4.78049">
        <ele>183</ele>
        <time>2018-06-13T13:47:19Z</time>
      </trkpt>
      <trkpt lat="45.93852" lon="4.7806">
        <ele>183</ele>
        <time>2018-06-13T13:47:21Z</time>
      </trkpt>
      <trkpt lat="45.93851" lon="4.78066">
        <ele>182</ele>
        <time>2018-06-13T13:47:22Z</time>
      </trkpt>
      <trkpt lat="45.93848" lon="4.78073">
        <ele>182</ele>
        <time>2018-06-13T13:47:23Z</time>
      </trkpt>
      <trkpt lat="45.93846" lon="4.78079">
        <ele>182</ele>
        <time>2018-06-13T13:47:24Z</time>
      </trkpt>
      <trkpt lat="45.93843" lon="4.78085">
        <ele>182</ele>
        <time>2018-06-13T13:47:25Z</time>
      </trkpt>
      <trkpt lat="45.93841" lon="4.7809">
        <ele>182</ele>
        <time>2018-06-13T13:47:26Z</time>
      </trkpt>
      <trkpt lat="45.9384" lon="4.78097">
        <ele>183</ele>
        <time>2018-06-13T13:47:27Z</time>
      </trkpt>
      <trkpt lat="45.93839" lon="4.78104">
        <ele>183</ele>
        <time>2018-06-13T13:47:28Z</time>
      </trkpt>
      <trkpt lat="45.93838" lon="4.78112">
        <ele>184</ele>
        <time>2018-06-13T13:47:29Z</time>
      </trkpt>
      <trkpt lat="45.93837" lon="4.78119">
        <ele>184</ele>
        <time>2018-06-13T13:47:30Z</time>
      </trkpt>
      <trkpt lat="45.93834" lon="4.7813">
        <ele>184</ele>
        <time>2018-06-13T13:47:32Z</time>
      </trkpt>
      <trkpt lat="45.93832" lon="4.78136">
        <ele>180</ele>
        <time>2018-06-13T13:47:33Z</time>
      </trkpt>
      <trkpt lat="45.93829" lon="4.78148">
        <ele>180</ele>
        <time>2018-06-13T13:47:35Z</time>
      </trkpt>
      <trkpt lat="45.93829" lon="4.78155">
        <ele>181</ele>
        <time>2018-06-13T13:47:36Z</time>
      </trkpt>
      <trkpt lat="45.93827" lon="4.7816">
        <ele>181</ele>
        <time>2018-06-13T13:47:37Z</time>
      </trkpt>
      <trkpt lat="45.93825" lon="4.78167">
        <ele>182</ele>
        <time>2018-06-13T13:47:38Z</time>
      </trkpt>
      <trkpt lat="45.93824" lon="4.78175">
        <ele>182</ele>
        <time>2018-06-13T13:47:39Z</time>
      </trkpt>
      <trkpt lat="45.93822" lon="4.78182">
        <ele>182</ele>
        <time>2018-06-13T13:47:40Z</time>
      </trkpt>
      <trkpt lat="45.93821" lon="4.78189">
        <ele>182</ele>
        <time>2018-06-13T13:47:41Z</time>
      </trkpt>
      <trkpt lat="45.93821" lon="4.78195">
        <ele>182</ele>
        <time>2018-06-13T13:47:42Z</time>
      </trkpt>
      <trkpt lat="45.93817" lon="4.78205">
        <ele>182</ele>
        <time>2018-06-13T13:47:44Z</time>
      </trkpt>
      <trkpt lat="45.93814" lon="4.78213">
        <ele>182</ele>
        <time>2018-06-13T13:47:45Z</time>
      </trkpt>
      <trkpt lat="45.93813" lon="4.78221">
        <ele>182</ele>
        <time>2018-06-13T13:47:46Z</time>
      </trkpt>
      <trkpt lat="45.93812" lon="4.78227">
        <ele>182</ele>
        <time>2018-06-13T13:47:47Z</time>
      </trkpt>
      <trkpt lat="45.93808" lon="4.78237">
        <ele>182</ele>
        <time>2018-06-13T13:47:49Z</time>
      </trkpt>
      <trkpt lat="45.93806" lon="4.78238">
        <ele>182</ele>
        <time>2018-06-13T13:47:50Z</time>
      </trkpt>
      <trkpt lat="45.93805" lon="4.78239">
        <ele>182</ele>
        <time>2018-06-13T13:47:51Z</time>
      </trkpt>
      <trkpt lat="45.93799" lon="4.7825">
        <ele>182</ele>
        <time>2018-06-13T13:47:52Z</time>
      </trkpt>
      <trkpt lat="45.93797" lon="4.78256">
        <ele>183</ele>
        <time>2018-06-13T13:47:53Z</time>
      </trkpt>
      <trkpt lat="45.93795" lon="4.78264">
        <ele>183</ele>
        <time>2018-06-13T13:47:54Z</time>
      </trkpt>
      <trkpt lat="45.93796" lon="4.78272">
        <ele>183</ele>
        <time>2018-06-13T13:47:55Z</time>
      </trkpt>
      <trkpt lat="45.93794" lon="4.78279">
        <ele>183</ele>
        <time>2018-06-13T13:47:56Z</time>
      </trkpt>
      <trkpt lat="45.93792" lon="4.78285">
        <ele>183</ele>
        <time>2018-06-13T13:47:57Z</time>
      </trkpt>
      <trkpt lat="45.9379" lon="4.78293">
        <ele>183</ele>
        <time>2018-06-13T13:47:58Z</time>
      </trkpt>
      <trkpt lat="45.93788" lon="4.783">
        <ele>183</ele>
        <time>2018-06-13T13:47:59Z</time>
      </trkpt>
      <trkpt lat="45.93786" lon="4.78309">
        <ele>183</ele>
        <time>2018-06-13T13:48:00Z</time>
      </trkpt>
      <trkpt lat="45.93784" lon="4.78316">
        <ele>183</ele>
        <time>2018-06-13T13:48:01Z</time>
      </trkpt>
      <trkpt lat="45.93782" lon="4.78322">
        <ele>183</ele>
        <time>2018-06-13T13:48:02Z</time>
      </trkpt>
      <trkpt lat="45.9378" lon="4.7833">
        <ele>183</ele>
        <time>2018-06-13T13:48:03Z</time>
      </trkpt>
      <trkpt lat="45.93779" lon="4.78338">
        <ele>183</ele>
        <time>2018-06-13T13:48:04Z</time>
      </trkpt>
      <trkpt lat="45.93777" lon="4.78346">
        <ele>183</ele>
        <time>2018-06-13T13:48:05Z</time>
      </trkpt>
      <trkpt lat="45.93775" lon="4.78353">
        <ele>183</ele>
        <time>2018-06-13T13:48:06Z</time>
      </trkpt>
      <trkpt lat="45.93773" lon="4.7836">
        <ele>183</ele>
        <time>2018-06-13T13:48:07Z</time>
      </trkpt>
      <trkpt lat="45.9377" lon="4.78365">
        <ele>183</ele>
        <time>2018-06-13T13:48:08Z</time>
      </trkpt>
      <trkpt lat="45.93768" lon="4.7837">
        <ele>183</ele>
        <time>2018-06-13T13:48:09Z</time>
      </trkpt>
      <trkpt lat="45.93765" lon="4.78377">
        <ele>183</ele>
        <time>2018-06-13T13:48:10Z</time>
      </trkpt>
      <trkpt lat="45.93763" lon="4.78384">
        <ele>183</ele>
        <time>2018-06-13T13:48:11Z</time>
      </trkpt>
      <trkpt lat="45.93763" lon="4.7839">
        <ele>183</ele>
        <time>2018-06-13T13:48:12Z</time>
      </trkpt>
      <trkpt lat="45.93761" lon="4.78396">
        <ele>183</ele>
        <time>2018-06-13T13:48:13Z</time>
      </trkpt>
      <trkpt lat="45.93759" lon="4.78402">
        <ele>183</ele>
        <time>2018-06-13T13:48:14Z</time>
      </trkpt>
      <trkpt lat="45.93757" lon="4.78408">
        <ele>182</ele>
        <time>2018-06-13T13:48:15Z</time>
      </trkpt>
      <trkpt lat="45.93756" lon="4.78417">
        <ele>182</ele>
        <time>2018-06-13T13:48:16Z</time>
      </trkpt>
      <trkpt lat="45.93752" lon="4.78423">
        <ele>182</ele>
        <time>2018-06-13T13:48:17Z</time>
      </trkpt>
      <trkpt lat="45.9375" lon="4.7843">
        <ele>180</ele>
        <time>2018-06-13T13:48:18Z</time>
      </trkpt>
      <trkpt lat="45.93748" lon="4.78436">
        <ele>180</ele>
        <time>2018-06-13T13:48:19Z</time>
      </trkpt>
      <trkpt lat="45.93747" lon="4.78443">
        <ele>180</ele>
        <time>2018-06-13T13:48:20Z</time>
      </trkpt>
      <trkpt lat="45.93744" lon="4.7845">
        <ele>180</ele>
        <time>2018-06-13T13:48:21Z</time>
      </trkpt>
      <trkpt lat="45.93741" lon="4.78457">
        <ele>180</ele>
        <time>2018-06-13T13:48:22Z</time>
      </trkpt>
      <trkpt lat="45.93738" lon="4.78463">
        <ele>180</ele>
        <time>2018-06-13T13:48:23Z</time>
      </trkpt>
      <trkpt lat="45.93737" lon="4.78472">
        <ele>180</ele>
        <time>2018-06-13T13:48:24Z</time>
      </trkpt>
      <trkpt lat="45.93735" lon="4.7848">
        <ele>180</ele>
        <time>2018-06-13T13:48:25Z</time>
      </trkpt>
      <trkpt lat="45.93732" lon="4.78487">
        <ele>180</ele>
        <time>2018-06-13T13:48:26Z</time>
      </trkpt>
      <trkpt lat="45.93731" lon="4.78494">
        <ele>180</ele>
        <time>2018-06-13T13:48:27Z</time>
      </trkpt>
      <trkpt lat="45.93728" lon="4.78503">
        <ele>179</ele>
        <time>2018-06-13T13:48:28Z</time>
      </trkpt>
      <trkpt lat="45.93727" lon="4.7851">
        <ele>179</ele>
        <time>2018-06-13T13:48:29Z</time>
      </trkpt>
      <trkpt lat="45.93724" lon="4.78518">
        <ele>179</ele>
        <time>2018-06-13T13:48:30Z</time>
      </trkpt>
      <trkpt lat="45.93722" lon="4.78526">
        <ele>178</ele>
        <time>2018-06-13T13:48:31Z</time>
      </trkpt>
      <trkpt lat="45.9372" lon="4.78535">
        <ele>178</ele>
        <time>2018-06-13T13:48:32Z</time>
      </trkpt>
      <trkpt lat="45.93718" lon="4.78544">
        <ele>178</ele>
        <time>2018-06-13T13:48:33Z</time>
      </trkpt>
      <trkpt lat="45.93716" lon="4.78552">
        <ele>178</ele>
        <time>2018-06-13T13:48:34Z</time>
      </trkpt>
      <trkpt lat="45.93714" lon="4.7856">
        <ele>178</ele>
        <time>2018-06-13T13:48:35Z</time>
      </trkpt>
      <trkpt lat="45.93712" lon="4.78569">
        <ele>178</ele>
        <time>2018-06-13T13:48:36Z</time>
      </trkpt>
      <trkpt lat="45.9371" lon="4.78579">
        <ele>177</ele>
        <time>2018-06-13T13:48:37Z</time>
      </trkpt>
      <trkpt lat="45.93708" lon="4.78587">
        <ele>176</ele>
        <time>2018-06-13T13:48:38Z</time>
      </trkpt>
      <trkpt lat="45.93706" lon="4.78597">
        <ele>176</ele>
        <time>2018-06-13T13:48:39Z</time>
      </trkpt>
      <trkpt lat="45.93704" lon="4.78605">
        <ele>176</ele>
        <time>2018-06-13T13:48:40Z</time>
      </trkpt>
      <trkpt lat="45.93703" lon="4.78613">
        <ele>176</ele>
        <time>2018-06-13T13:48:41Z</time>
      </trkpt>
      <trkpt lat="45.937" lon="4.78621">
        <ele>176</ele>
        <time>2018-06-13T13:48:42Z</time>
      </trkpt>
      <trkpt lat="45.93697" lon="4.78626">
        <ele>176</ele>
        <time>2018-06-13T13:48:43Z</time>
      </trkpt>
      <trkpt lat="45.93695" lon="4.78636">
        <ele>176</ele>
        <time>2018-06-13T13:48:44Z</time>
      </trkpt>
      <trkpt lat="45.93691" lon="4.78641">
        <ele>176</ele>
        <time>2018-06-13T13:48:45Z</time>
      </trkpt>
      <trkpt lat="45.93688" lon="4.78648">
        <ele>176</ele>
        <time>2018-06-13T13:48:46Z</time>
      </trkpt>
      <trkpt lat="45.93687" lon="4.78656">
        <ele>175</ele>
        <time>2018-06-13T13:48:47Z</time>
      </trkpt>
      <trkpt lat="45.93684" lon="4.78664">
        <ele>175</ele>
        <time>2018-06-13T13:48:48Z</time>
      </trkpt>
      <trkpt lat="45.93681" lon="4.78672">
        <ele>175</ele>
        <time>2018-06-13T13:48:49Z</time>
      </trkpt>
      <trkpt lat="45.93677" lon="4.78683">
        <ele>175</ele>
        <time>2018-06-13T13:48:50Z</time>
      </trkpt>
      <trkpt lat="45.93673" lon="4.78693">
        <ele>175</ele>
        <time>2018-06-13T13:48:52Z</time>
      </trkpt>
      <trkpt lat="45.93671" lon="4.78701">
        <ele>175</ele>
        <time>2018-06-13T13:48:53Z</time>
      </trkpt>
      <trkpt lat="45.93668" lon="4.78708">
        <ele>175</ele>
        <time>2018-06-13T13:48:54Z</time>
      </trkpt>
      <trkpt lat="45.93665" lon="4.78716">
        <ele>173</ele>
        <time>2018-06-13T13:48:55Z</time>
      </trkpt>
      <trkpt lat="45.93661" lon="4.78725">
        <ele>174</ele>
        <time>2018-06-13T13:48:56Z</time>
      </trkpt>
      <trkpt lat="45.93658" lon="4.78735">
        <ele>174</ele>
        <time>2018-06-13T13:48:57Z</time>
      </trkpt>
      <trkpt lat="45.93654" lon="4.78743">
        <ele>174</ele>
        <time>2018-06-13T13:48:58Z</time>
      </trkpt>
      <trkpt lat="45.93651" lon="4.78751">
        <ele>174</ele>
        <time>2018-06-13T13:48:59Z</time>
      </trkpt>
      <trkpt lat="45.93647" lon="4.78758">
        <ele>174</ele>
        <time>2018-06-13T13:49:00Z</time>
      </trkpt>
      <trkpt lat="45.93645" lon="4.78767">
        <ele>174</ele>
        <time>2018-06-13T13:49:01Z</time>
      </trkpt>
      <trkpt lat="45.93641" lon="4.78774">
        <ele>174</ele>
        <time>2018-06-13T13:49:02Z</time>
      </trkpt>
      <trkpt lat="45.93638" lon="4.78782">
        <ele>174</ele>
        <time>2018-06-13T13:49:03Z</time>
      </trkpt>
      <trkpt lat="45.93635" lon="4.78787">
        <ele>174</ele>
        <time>2018-06-13T13:49:04Z</time>
      </trkpt>
      <trkpt lat="45.93631" lon="4.78794">
        <ele>174</ele>
        <time>2018-06-13T13:49:05Z</time>
      </trkpt>
      <trkpt lat="45.93629" lon="4.78801">
        <ele>174</ele>
        <time>2018-06-13T13:49:06Z</time>
      </trkpt>
      <trkpt lat="45.93628" lon="4.78807">
        <ele>174</ele>
        <time>2018-06-13T13:49:07Z</time>
      </trkpt>
      <trkpt lat="45.93624" lon="4.78813">
        <ele>174</ele>
        <time>2018-06-13T13:49:08Z</time>
      </trkpt>
      <trkpt lat="45.93621" lon="4.7882">
        <ele>174</ele>
        <time>2018-06-13T13:49:09Z</time>
      </trkpt>
      <trkpt lat="45.93615" lon="4.78826">
        <ele>173</ele>
        <time>2018-06-13T13:49:10Z</time>
      </trkpt>
      <trkpt lat="45.93611" lon="4.7883">
        <ele>173</ele>
        <time>2018-06-13T13:49:11Z</time>
      </trkpt>
      <trkpt lat="45.93608" lon="4.78835">
        <ele>174</ele>
        <time>2018-06-13T13:49:12Z</time>
      </trkpt>
      <trkpt lat="45.93604" lon="4.78842">
        <ele>174</ele>
        <time>2018-06-13T13:49:13Z</time>
      </trkpt>
      <trkpt lat="45.93602" lon="4.78848">
        <ele>174</ele>
        <time>2018-06-13T13:49:14Z</time>
      </trkpt>
      <trkpt lat="45.93599" lon="4.78855">
        <ele>174</ele>
        <time>2018-06-13T13:49:15Z</time>
      </trkpt>
      <trkpt lat="45.93596" lon="4.78863">
        <ele>174</ele>
        <time>2018-06-13T13:49:16Z</time>
      </trkpt>
      <trkpt lat="45.93593" lon="4.7887">
        <ele>174</ele>
        <time>2018-06-13T13:49:17Z</time>
      </trkpt>
      <trkpt lat="45.93591" lon="4.78877">
        <ele>173</ele>
        <time>2018-06-13T13:49:18Z</time>
      </trkpt>
      <trkpt lat="45.93588" lon="4.78884">
        <ele>173</ele>
        <time>2018-06-13T13:49:19Z</time>
      </trkpt>
      <trkpt lat="45.93585" lon="4.7889">
        <ele>173</ele>
        <time>2018-06-13T13:49:20Z</time>
      </trkpt>
      <trkpt lat="45.93581" lon="4.78897">
        <ele>172</ele>
        <time>2018-06-13T13:49:21Z</time>
      </trkpt>
      <trkpt lat="45.93578" lon="4.78903">
        <ele>172</ele>
        <time>2018-06-13T13:49:22Z</time>
      </trkpt>
      <trkpt lat="45.93575" lon="4.7891">
        <ele>172</ele>
        <time>2018-06-13T13:49:23Z</time>
      </trkpt>
      <trkpt lat="45.93573" lon="4.78918">
        <ele>172</ele>
        <time>2018-06-13T13:49:24Z</time>
      </trkpt>
      <trkpt lat="45.93569" lon="4.78924">
        <ele>172</ele>
        <time>2018-06-13T13:49:25Z</time>
      </trkpt>
      <trkpt lat="45.93566" lon="4.78932">
        <ele>172</ele>
        <time>2018-06-13T13:49:26Z</time>
      </trkpt>
      <trkpt lat="45.93565" lon="4.78938">
        <ele>172</ele>
        <time>2018-06-13T13:49:27Z</time>
      </trkpt>
      <trkpt lat="45.9356" lon="4.78945">
        <ele>172</ele>
        <time>2018-06-13T13:49:28Z</time>
      </trkpt>
      <trkpt lat="45.93556" lon="4.78947">
        <ele>172</ele>
        <time>2018-06-13T13:49:29Z</time>
      </trkpt>
      <trkpt lat="45.93551" lon="4.78951">
        <ele>172</ele>
        <time>2018-06-13T13:49:30Z</time>
      </trkpt>
      <trkpt lat="45.93547" lon="4.78955">
        <ele>172</ele>
        <time>2018-06-13T13:49:31Z</time>
      </trkpt>
      <trkpt lat="45.93543" lon="4.7896">
        <ele>172</ele>
        <time>2018-06-13T13:49:32Z</time>
      </trkpt>
      <trkpt lat="45.93539" lon="4.78963">
        <ele>172</ele>
        <time>2018-06-13T13:49:33Z</time>
      </trkpt>
      <trkpt lat="45.93536" lon="4.7897">
        <ele>172</ele>
        <time>2018-06-13T13:49:34Z</time>
      </trkpt>
      <trkpt lat="45.93533" lon="4.78976">
        <ele>172</ele>
        <time>2018-06-13T13:49:35Z</time>
      </trkpt>
      <trkpt lat="45.93533" lon="4.78985">
        <ele>172</ele>
        <time>2018-06-13T13:49:36Z</time>
      </trkpt>
      <trkpt lat="45.93532" lon="4.78997">
        <ele>172</ele>
        <time>2018-06-13T13:49:37Z</time>
      </trkpt>
      <trkpt lat="45.93531" lon="4.79006">
        <ele>173</ele>
        <time>2018-06-13T13:49:38Z</time>
      </trkpt>
      <trkpt lat="45.9353" lon="4.79012">
        <ele>173</ele>
        <time>2018-06-13T13:49:39Z</time>
      </trkpt>
      <trkpt lat="45.93528" lon="4.7902">
        <ele>173</ele>
        <time>2018-06-13T13:49:40Z</time>
      </trkpt>
      <trkpt lat="45.93526" lon="4.79026">
        <ele>173</ele>
        <time>2018-06-13T13:49:41Z</time>
      </trkpt>
      <trkpt lat="45.93523" lon="4.79031">
        <ele>173</ele>
        <time>2018-06-13T13:49:42Z</time>
      </trkpt>
      <trkpt lat="45.93521" lon="4.79037">
        <ele>173</ele>
        <time>2018-06-13T13:49:43Z</time>
      </trkpt>
      <trkpt lat="45.93519" lon="4.79044">
        <ele>173</ele>
        <time>2018-06-13T13:49:44Z</time>
      </trkpt>
      <trkpt lat="45.93515" lon="4.7905">
        <ele>173</ele>
        <time>2018-06-13T13:49:45Z</time>
      </trkpt>
      <trkpt lat="45.93512" lon="4.79056">
        <ele>173</ele>
        <time>2018-06-13T13:49:46Z</time>
      </trkpt>
      <trkpt lat="45.93509" lon="4.79063">
        <ele>173</ele>
        <time>2018-06-13T13:49:47Z</time>
      </trkpt>
      <trkpt lat="45.93508" lon="4.79071">
        <ele>173</ele>
        <time>2018-06-13T13:49:48Z</time>
      </trkpt>
      <trkpt lat="45.93505" lon="4.79077">
        <ele>173</ele>
        <time>2018-06-13T13:49:49Z</time>
      </trkpt>
      <trkpt lat="45.93499" lon="4.79087">
        <ele>173</ele>
        <time>2018-06-13T13:49:51Z</time>
      </trkpt>
      <trkpt lat="45.93495" lon="4.79093">
        <ele>173</ele>
        <time>2018-06-13T13:49:52Z</time>
      </trkpt>
      <trkpt lat="45.93494" lon="4.79099">
        <ele>173</ele>
        <time>2018-06-13T13:49:53Z</time>
      </trkpt>
      <trkpt lat="45.93492" lon="4.79106">
        <ele>172</ele>
        <time>2018-06-13T13:49:54Z</time>
      </trkpt>
      <trkpt lat="45.93489" lon="4.79111">
        <ele>172</ele>
        <time>2018-06-13T13:49:55Z</time>
      </trkpt>
      <trkpt lat="45.93487" lon="4.79118">
        <ele>172</ele>
        <time>2018-06-13T13:49:56Z</time>
      </trkpt>
      <trkpt lat="45.93485" lon="4.79123">
        <ele>172</ele>
        <time>2018-06-13T13:49:57Z</time>
      </trkpt>
      <trkpt lat="45.93482" lon="4.79129">
        <ele>172</ele>
        <time>2018-06-13T13:49:58Z</time>
      </trkpt>
      <trkpt lat="45.9348" lon="4.79136">
        <ele>172</ele>
        <time>2018-06-13T13:49:59Z</time>
      </trkpt>
      <trkpt lat="45.93478" lon="4.79144">
        <ele>172</ele>
        <time>2018-06-13T13:50:00Z</time>
      </trkpt>
      <trkpt lat="45.93475" lon="4.79151">
        <ele>172</ele>
        <time>2018-06-13T13:50:01Z</time>
      </trkpt>
      <trkpt lat="45.93475" lon="4.79157">
        <ele>172</ele>
        <time>2018-06-13T13:50:02Z</time>
      </trkpt>
      <trkpt lat="45.93473" lon="4.79165">
        <ele>172</ele>
        <time>2018-06-13T13:50:03Z</time>
      </trkpt>
      <trkpt lat="45.93471" lon="4.79171">
        <ele>172</ele>
        <time>2018-06-13T13:50:04Z</time>
      </trkpt>
      <trkpt lat="45.93469" lon="4.79176">
        <ele>172</ele>
        <time>2018-06-13T13:50:05Z</time>
      </trkpt>
      <trkpt lat="45.93466" lon="4.79182">
        <ele>172</ele>
        <time>2018-06-13T13:50:06Z</time>
      </trkpt>
      <trkpt lat="45.93463" lon="4.79193">
        <ele>172</ele>
        <time>2018-06-13T13:50:08Z</time>
      </trkpt>
      <trkpt lat="45.93461" lon="4.79198">
        <ele>172</ele>
        <time>2018-06-13T13:50:09Z</time>
      </trkpt>
      <trkpt lat="45.93458" lon="4.79205">
        <ele>172</ele>
        <time>2018-06-13T13:50:10Z</time>
      </trkpt>
      <trkpt lat="45.93457" lon="4.79212">
        <ele>172</ele>
        <time>2018-06-13T13:50:11Z</time>
      </trkpt>
      <trkpt lat="45.93454" lon="4.7922">
        <ele>172</ele>
        <time>2018-06-13T13:50:12Z</time>
      </trkpt>
      <trkpt lat="45.93452" lon="4.79227">
        <ele>172</ele>
        <time>2018-06-13T13:50:13Z</time>
      </trkpt>
      <trkpt lat="45.9345" lon="4.79235">
        <ele>172</ele>
        <time>2018-06-13T13:50:14Z</time>
      </trkpt>
      <trkpt lat="45.93448" lon="4.79243">
        <ele>172</ele>
        <time>2018-06-13T13:50:15Z</time>
      </trkpt>
      <trkpt lat="45.93446" lon="4.7925">
        <ele>172</ele>
        <time>2018-06-13T13:50:16Z</time>
      </trkpt>
      <trkpt lat="45.93443" lon="4.79256">
        <ele>172</ele>
        <time>2018-06-13T13:50:17Z</time>
      </trkpt>
      <trkpt lat="45.93439" lon="4.79266">
        <ele>172</ele>
        <time>2018-06-13T13:50:19Z</time>
      </trkpt>
      <trkpt lat="45.93436" lon="4.79272">
        <ele>172</ele>
        <time>2018-06-13T13:50:20Z</time>
      </trkpt>
      <trkpt lat="45.93436" lon="4.79277">
        <ele>172</ele>
        <time>2018-06-13T13:50:21Z</time>
      </trkpt>
      <trkpt lat="45.93433" lon="4.79286">
        <ele>173</ele>
        <time>2018-06-13T13:50:22Z</time>
      </trkpt>
      <trkpt lat="45.93432" lon="4.79292">
        <ele>173</ele>
        <time>2018-06-13T13:50:23Z</time>
      </trkpt>
      <trkpt lat="45.93429" lon="4.793">
        <ele>173</ele>
        <time>2018-06-13T13:50:24Z</time>
      </trkpt>
      <trkpt lat="45.93423" lon="4.79309">
        <ele>172</ele>
        <time>2018-06-13T13:50:26Z</time>
      </trkpt>
      <trkpt lat="45.93422" lon="4.79312">
        <ele>172</ele>
        <time>2018-06-13T13:50:27Z</time>
      </trkpt>
      <trkpt lat="45.9342" lon="4.79319">
        <ele>172</ele>
        <time>2018-06-13T13:50:28Z</time>
      </trkpt>
      <trkpt lat="45.93417" lon="4.79326">
        <ele>172</ele>
        <time>2018-06-13T13:50:29Z</time>
      </trkpt>
      <trkpt lat="45.93414" lon="4.79332">
        <ele>172</ele>
        <time>2018-06-13T13:50:30Z</time>
      </trkpt>
      <trkpt lat="45.93411" lon="4.79339">
        <ele>172</ele>
        <time>2018-06-13T13:50:31Z</time>
      </trkpt>
      <trkpt lat="45.93409" lon="4.79344">
        <ele>172</ele>
        <time>2018-06-13T13:50:32Z</time>
      </trkpt>
      <trkpt lat="45.93407" lon="4.7935">
        <ele>172</ele>
        <time>2018-06-13T13:50:33Z</time>
      </trkpt>
      <trkpt lat="45.93405" lon="4.79357">
        <ele>172</ele>
        <time>2018-06-13T13:50:34Z</time>
      </trkpt>
      <trkpt lat="45.93404" lon="4.79364">
        <ele>172</ele>
        <time>2018-06-13T13:50:35Z</time>
      </trkpt>
      <trkpt lat="45.93401" lon="4.7937">
        <ele>172</ele>
        <time>2018-06-13T13:50:36Z</time>
      </trkpt>
      <trkpt lat="45.93399" lon="4.79377">
        <ele>172</ele>
        <time>2018-06-13T13:50:37Z</time>
      </trkpt>
      <trkpt lat="45.93396" lon="4.79386">
        <ele>172</ele>
        <time>2018-06-13T13:50:38Z</time>
      </trkpt>
      <trkpt lat="45.93394" lon="4.79392">
        <ele>172</ele>
        <time>2018-06-13T13:50:39Z</time>
      </trkpt>
      <trkpt lat="45.93391" lon="4.79397">
        <ele>172</ele>
        <time>2018-06-13T13:50:40Z</time>
      </trkpt>
      <trkpt lat="45.93389" lon="4.79405">
        <ele>172</ele>
        <time>2018-06-13T13:50:41Z</time>
      </trkpt>
      <trkpt lat="45.93388" lon="4.79413">
        <ele>173</ele>
        <time>2018-06-13T13:50:42Z</time>
      </trkpt>
      <trkpt lat="45.93386" lon="4.79418">
        <ele>174</ele>
        <time>2018-06-13T13:50:43Z</time>
      </trkpt>
      <trkpt lat="45.93384" lon="4.79424">
        <ele>174</ele>
        <time>2018-06-13T13:50:44Z</time>
      </trkpt>
      <trkpt lat="45.93383" lon="4.79429">
        <ele>174</ele>
        <time>2018-06-13T13:50:45Z</time>
      </trkpt>
      <trkpt lat="45.93379" lon="4.79441">
        <ele>175</ele>
        <time>2018-06-13T13:50:47Z</time>
      </trkpt>
      <trkpt lat="45.93377" lon="4.79448">
        <ele>175</ele>
        <time>2018-06-13T13:50:48Z</time>
      </trkpt>
      <trkpt lat="45.93371" lon="4.79455">
        <ele>175</ele>
        <time>2018-06-13T13:50:49Z</time>
      </trkpt>
      <trkpt lat="45.9337" lon="4.79462">
        <ele>175</ele>
        <time>2018-06-13T13:50:50Z</time>
      </trkpt>
      <trkpt lat="45.93367" lon="4.79469">
        <ele>175</ele>
        <time>2018-06-13T13:50:51Z</time>
      </trkpt>
      <trkpt lat="45.93365" lon="4.79476">
        <ele>175</ele>
        <time>2018-06-13T13:50:52Z</time>
      </trkpt>
      <trkpt lat="45.93363" lon="4.79481">
        <ele>175</ele>
        <time>2018-06-13T13:50:53Z</time>
      </trkpt>
      <trkpt lat="45.93362" lon="4.79488">
        <ele>175</ele>
        <time>2018-06-13T13:50:54Z</time>
      </trkpt>
      <trkpt lat="45.9336" lon="4.79496">
        <ele>176</ele>
        <time>2018-06-13T13:50:55Z</time>
      </trkpt>
      <trkpt lat="45.93358" lon="4.79502">
        <ele>177</ele>
        <time>2018-06-13T13:50:56Z</time>
      </trkpt>
      <trkpt lat="45.93357" lon="4.79508">
        <ele>177</ele>
        <time>2018-06-13T13:50:57Z</time>
      </trkpt>
      <trkpt lat="45.93355" lon="4.79514">
        <ele>177</ele>
        <time>2018-06-13T13:50:58Z</time>
      </trkpt>
      <trkpt lat="45.9335" lon="4.79523">
        <ele>177</ele>
        <time>2018-06-13T13:51:01Z</time>
      </trkpt>
      <trkpt lat="45.93347" lon="4.79531">
        <ele>177</ele>
        <time>2018-06-13T13:51:02Z</time>
      </trkpt>
      <trkpt lat="45.93346" lon="4.7954">
        <ele>177</ele>
        <time>2018-06-13T13:51:03Z</time>
      </trkpt>
      <trkpt lat="45.93345" lon="4.79547">
        <ele>177</ele>
        <time>2018-06-13T13:51:04Z</time>
      </trkpt>
      <trkpt lat="45.93344" lon="4.79559">
        <ele>177</ele>
        <time>2018-06-13T13:51:06Z</time>
      </trkpt>
      <trkpt lat="45.93342" lon="4.79565">
        <ele>177</ele>
        <time>2018-06-13T13:51:07Z</time>
      </trkpt>
      <trkpt lat="45.9334" lon="4.79575">
        <ele>177</ele>
        <time>2018-06-13T13:51:09Z</time>
      </trkpt>
      <trkpt lat="45.93338" lon="4.7958">
        <ele>177</ele>
        <time>2018-06-13T13:51:10Z</time>
      </trkpt>
      <trkpt lat="45.93334" lon="4.79591">
        <ele>177</ele>
        <time>2018-06-13T13:51:12Z</time>
      </trkpt>
      <trkpt lat="45.93331" lon="4.79597">
        <ele>177</ele>
        <time>2018-06-13T13:51:13Z</time>
      </trkpt>
      <trkpt lat="45.9333" lon="4.79608">
        <ele>177</ele>
        <time>2018-06-13T13:51:15Z</time>
      </trkpt>
      <trkpt lat="45.93326" lon="4.79614">
        <ele>177</ele>
        <time>2018-06-13T13:51:16Z</time>
      </trkpt>
      <trkpt lat="45.93323" lon="4.79625">
        <ele>177</ele>
        <time>2018-06-13T13:51:18Z</time>
      </trkpt>
      <trkpt lat="45.93317" lon="4.79632">
        <ele>177</ele>
        <time>2018-06-13T13:51:19Z</time>
      </trkpt>
      <trkpt lat="45.93315" lon="4.79638">
        <ele>177</ele>
        <time>2018-06-13T13:51:20Z</time>
      </trkpt>
      <trkpt lat="45.93312" lon="4.79645">
        <ele>177</ele>
        <time>2018-06-13T13:51:21Z</time>
      </trkpt>
      <trkpt lat="45.9331" lon="4.79656">
        <ele>177</ele>
        <time>2018-06-13T13:51:23Z</time>
      </trkpt>
      <trkpt lat="45.93306" lon="4.7966">
        <ele>177</ele>
        <time>2018-06-13T13:51:24Z</time>
      </trkpt>
      <trkpt lat="45.93304" lon="4.79666">
        <ele>177</ele>
        <time>2018-06-13T13:51:25Z</time>
      </trkpt>
      <trkpt lat="45.93302" lon="4.79673">
        <ele>177</ele>
        <time>2018-06-13T13:51:26Z</time>
      </trkpt>
      <trkpt lat="45.93298" lon="4.7968">
        <ele>177</ele>
        <time>2018-06-13T13:51:27Z</time>
      </trkpt>
      <trkpt lat="45.93296" lon="4.79687">
        <ele>177</ele>
        <time>2018-06-13T13:51:28Z</time>
      </trkpt>
      <trkpt lat="45.93294" lon="4.79694">
        <ele>177</ele>
        <time>2018-06-13T13:51:29Z</time>
      </trkpt>
      <trkpt lat="45.93293" lon="4.797">
        <ele>177</ele>
        <time>2018-06-13T13:51:30Z</time>
      </trkpt>
      <trkpt lat="45.93289" lon="4.79711">
        <ele>177</ele>
        <time>2018-06-13T13:51:32Z</time>
      </trkpt>
      <trkpt lat="45.93288" lon="4.79718">
        <ele>177</ele>
        <time>2018-06-13T13:51:33Z</time>
      </trkpt>
      <trkpt lat="45.93285" lon="4.79724">
        <ele>177</ele>
        <time>2018-06-13T13:51:34Z</time>
      </trkpt>
      <trkpt lat="45.93282" lon="4.79728">
        <ele>177</ele>
        <time>2018-06-13T13:51:35Z</time>
      </trkpt>
      <trkpt lat="45.93281" lon="4.7974">
        <ele>177</ele>
        <time>2018-06-13T13:51:37Z</time>
      </trkpt>
      <trkpt lat="45.93278" lon="4.79746">
        <ele>177</ele>
        <time>2018-06-13T13:51:38Z</time>
      </trkpt>
      <trkpt lat="45.93276" lon="4.79754">
        <ele>176</ele>
        <time>2018-06-13T13:51:39Z</time>
      </trkpt>
      <trkpt lat="45.93274" lon="4.79759">
        <ele>176</ele>
        <time>2018-06-13T13:51:40Z</time>
      </trkpt>
      <trkpt lat="45.93271" lon="4.79766">
        <ele>175</ele>
        <time>2018-06-13T13:51:41Z</time>
      </trkpt>
      <trkpt lat="45.93268" lon="4.79771">
        <ele>175</ele>
        <time>2018-06-13T13:51:42Z</time>
      </trkpt>
      <trkpt lat="45.93266" lon="4.79778">
        <ele>175</ele>
        <time>2018-06-13T13:51:43Z</time>
      </trkpt>
      <trkpt lat="45.93264" lon="4.79785">
        <ele>175</ele>
        <time>2018-06-13T13:51:44Z</time>
      </trkpt>
      <trkpt lat="45.93262" lon="4.79793">
        <ele>175</ele>
        <time>2018-06-13T13:51:45Z</time>
      </trkpt>
      <trkpt lat="45.9326" lon="4.79799">
        <ele>175</ele>
        <time>2018-06-13T13:51:46Z</time>
      </trkpt>
      <trkpt lat="45.93257" lon="4.79806">
        <ele>174</ele>
        <time>2018-06-13T13:51:47Z</time>
      </trkpt>
      <trkpt lat="45.93254" lon="4.79814">
        <ele>174</ele>
        <time>2018-06-13T13:51:48Z</time>
      </trkpt>
      <trkpt lat="45.93251" lon="4.79821">
        <ele>174</ele>
        <time>2018-06-13T13:51:49Z</time>
      </trkpt>
      <trkpt lat="45.93248" lon="4.79829">
        <ele>174</ele>
        <time>2018-06-13T13:51:50Z</time>
      </trkpt>
      <trkpt lat="45.93246" lon="4.79835">
        <ele>174</ele>
        <time>2018-06-13T13:51:51Z</time>
      </trkpt>
      <trkpt lat="45.93242" lon="4.79843">
        <ele>173</ele>
        <time>2018-06-13T13:51:52Z</time>
      </trkpt>
      <trkpt lat="45.93239" lon="4.7985">
        <ele>173</ele>
        <time>2018-06-13T13:51:53Z</time>
      </trkpt>
      <trkpt lat="45.93236" lon="4.79855">
        <ele>173</ele>
        <time>2018-06-13T13:51:54Z</time>
      </trkpt>
      <trkpt lat="45.93233" lon="4.79861">
        <ele>172</ele>
        <time>2018-06-13T13:51:55Z</time>
      </trkpt>
      <trkpt lat="45.93229" lon="4.79868">
        <ele>172</ele>
        <time>2018-06-13T13:51:56Z</time>
      </trkpt>
      <trkpt lat="45.93226" lon="4.79876">
        <ele>172</ele>
        <time>2018-06-13T13:51:57Z</time>
      </trkpt>
      <trkpt lat="45.93225" lon="4.79887">
        <ele>172</ele>
        <time>2018-06-13T13:51:58Z</time>
      </trkpt>
      <trkpt lat="45.93221" lon="4.79893">
        <ele>172</ele>
        <time>2018-06-13T13:51:59Z</time>
      </trkpt>
      <trkpt lat="45.93219" lon="4.79902">
        <ele>172</ele>
        <time>2018-06-13T13:52:00Z</time>
      </trkpt>
      <trkpt lat="45.93216" lon="4.79909">
        <ele>172</ele>
        <time>2018-06-13T13:52:01Z</time>
      </trkpt>
      <trkpt lat="45.93213" lon="4.79916">
        <ele>172</ele>
        <time>2018-06-13T13:52:02Z</time>
      </trkpt>
      <trkpt lat="45.9321" lon="4.79923">
        <ele>171</ele>
        <time>2018-06-13T13:52:03Z</time>
      </trkpt>
      <trkpt lat="45.93206" lon="4.79929">
        <ele>171</ele>
        <time>2018-06-13T13:52:04Z</time>
      </trkpt>
      <trkpt lat="45.93203" lon="4.79937">
        <ele>171</ele>
        <time>2018-06-13T13:52:05Z</time>
      </trkpt>
      <trkpt lat="45.932" lon="4.79942">
        <ele>171</ele>
        <time>2018-06-13T13:52:06Z</time>
      </trkpt>
      <trkpt lat="45.93196" lon="4.79948">
        <ele>171</ele>
        <time>2018-06-13T13:52:07Z</time>
      </trkpt>
      <trkpt lat="45.93193" lon="4.79954">
        <ele>170</ele>
        <time>2018-06-13T13:52:08Z</time>
      </trkpt>
      <trkpt lat="45.9319" lon="4.79961">
        <ele>170</ele>
        <time>2018-06-13T13:52:09Z</time>
      </trkpt>
      <trkpt lat="45.93187" lon="4.79968">
        <ele>170</ele>
        <time>2018-06-13T13:52:10Z</time>
      </trkpt>
      <trkpt lat="45.93184" lon="4.79977">
        <ele>170</ele>
        <time>2018-06-13T13:52:11Z</time>
      </trkpt>
      <trkpt lat="45.93182" lon="4.79985">
        <ele>170</ele>
        <time>2018-06-13T13:52:12Z</time>
      </trkpt>
      <trkpt lat="45.9318" lon="4.79993">
        <ele>170</ele>
        <time>2018-06-13T13:52:13Z</time>
      </trkpt>
      <trkpt lat="45.93178" lon="4.80001">
        <ele>170</ele>
        <time>2018-06-13T13:52:14Z</time>
      </trkpt>
      <trkpt lat="45.93177" lon="4.80007">
        <ele>170</ele>
        <time>2018-06-13T13:52:15Z</time>
      </trkpt>
      <trkpt lat="45.93175" lon="4.80015">
        <ele>170</ele>
        <time>2018-06-13T13:52:16Z</time>
      </trkpt>
      <trkpt lat="45.93173" lon="4.80022">
        <ele>170</ele>
        <time>2018-06-13T13:52:17Z</time>
      </trkpt>
      <trkpt lat="45.93172" lon="4.80031">
        <ele>170</ele>
        <time>2018-06-13T13:52:18Z</time>
      </trkpt>
      <trkpt lat="45.9317" lon="4.80038">
        <ele>170</ele>
        <time>2018-06-13T13:52:19Z</time>
      </trkpt>
      <trkpt lat="45.93169" lon="4.80047">
        <ele>170</ele>
        <time>2018-06-13T13:52:20Z</time>
      </trkpt>
      <trkpt lat="45.93167" lon="4.80055">
        <ele>170</ele>
        <time>2018-06-13T13:52:21Z</time>
      </trkpt>
      <trkpt lat="45.93167" lon="4.80063">
        <ele>170</ele>
        <time>2018-06-13T13:52:22Z</time>
      </trkpt>
      <trkpt lat="45.93166" lon="4.80072">
        <ele>170</ele>
        <time>2018-06-13T13:52:23Z</time>
      </trkpt>
      <trkpt lat="45.93164" lon="4.80078">
        <ele>170</ele>
        <time>2018-06-13T13:52:24Z</time>
      </trkpt>
      <trkpt lat="45.93162" lon="4.80087">
        <ele>170</ele>
        <time>2018-06-13T13:52:25Z</time>
      </trkpt>
      <trkpt lat="45.9316" lon="4.80094">
        <ele>170</ele>
        <time>2018-06-13T13:52:26Z</time>
      </trkpt>
      <trkpt lat="45.93158" lon="4.80102">
        <ele>170</ele>
        <time>2018-06-13T13:52:27Z</time>
      </trkpt>
      <trkpt lat="45.93155" lon="4.80109">
        <ele>169</ele>
        <time>2018-06-13T13:52:28Z</time>
      </trkpt>
      <trkpt lat="45.93153" lon="4.80117">
        <ele>169</ele>
        <time>2018-06-13T13:52:29Z</time>
      </trkpt>
      <trkpt lat="45.93151" lon="4.80126">
        <ele>169</ele>
        <time>2018-06-13T13:52:30Z</time>
      </trkpt>
      <trkpt lat="45.93148" lon="4.80135">
        <ele>169</ele>
        <time>2018-06-13T13:52:31Z</time>
      </trkpt>
      <trkpt lat="45.93145" lon="4.80141">
        <ele>169</ele>
        <time>2018-06-13T13:52:32Z</time>
      </trkpt>
      <trkpt lat="45.93144" lon="4.80149">
        <ele>169</ele>
        <time>2018-06-13T13:52:33Z</time>
      </trkpt>
      <trkpt lat="45.93142" lon="4.80156">
        <ele>169</ele>
        <time>2018-06-13T13:52:34Z</time>
      </trkpt>
      <trkpt lat="45.93139" lon="4.80162">
        <ele>169</ele>
        <time>2018-06-13T13:52:35Z</time>
      </trkpt>
      <trkpt lat="45.93137" lon="4.8017">
        <ele>169</ele>
        <time>2018-06-13T13:52:36Z</time>
      </trkpt>
      <trkpt lat="45.93134" lon="4.80178">
        <ele>169</ele>
        <time>2018-06-13T13:52:37Z</time>
      </trkpt>
      <trkpt lat="45.93132" lon="4.80186">
        <ele>169</ele>
        <time>2018-06-13T13:52:38Z</time>
      </trkpt>
      <trkpt lat="45.93129" lon="4.80193">
        <ele>169</ele>
        <time>2018-06-13T13:52:39Z</time>
      </trkpt>
      <trkpt lat="45.93127" lon="4.802">
        <ele>169</ele>
        <time>2018-06-13T13:52:40Z</time>
      </trkpt>
      <trkpt lat="45.93125" lon="4.80205">
        <ele>169</ele>
        <time>2018-06-13T13:52:41Z</time>
      </trkpt>
      <trkpt lat="45.93123" lon="4.80212">
        <ele>169</ele>
        <time>2018-06-13T13:52:42Z</time>
      </trkpt>
      <trkpt lat="45.93121" lon="4.80219">
        <ele>169</ele>
        <time>2018-06-13T13:52:43Z</time>
      </trkpt>
      <trkpt lat="45.93118" lon="4.80227">
        <ele>169</ele>
        <time>2018-06-13T13:52:44Z</time>
      </trkpt>
      <trkpt lat="45.93116" lon="4.80233">
        <ele>169</ele>
        <time>2018-06-13T13:52:45Z</time>
      </trkpt>
      <trkpt lat="45.93114" lon="4.80239">
        <ele>169</ele>
        <time>2018-06-13T13:52:46Z</time>
      </trkpt>
      <trkpt lat="45.93111" lon="4.80245">
        <ele>169</ele>
        <time>2018-06-13T13:52:47Z</time>
      </trkpt>
      <trkpt lat="45.93109" lon="4.80253">
        <ele>169</ele>
        <time>2018-06-13T13:52:48Z</time>
      </trkpt>
      <trkpt lat="45.93107" lon="4.80259">
        <ele>169</ele>
        <time>2018-06-13T13:52:49Z</time>
      </trkpt>
      <trkpt lat="45.93104" lon="4.80267">
        <ele>169</ele>
        <time>2018-06-13T13:52:50Z</time>
      </trkpt>
      <trkpt lat="45.93102" lon="4.80272">
        <ele>169</ele>
        <time>2018-06-13T13:52:51Z</time>
      </trkpt>
      <trkpt lat="45.93101" lon="4.80279">
        <ele>169</ele>
        <time>2018-06-13T13:52:52Z</time>
      </trkpt>
      <trkpt lat="45.93098" lon="4.80286">
        <ele>169</ele>
        <time>2018-06-13T13:52:53Z</time>
      </trkpt>
      <trkpt lat="45.93096" lon="4.80293">
        <ele>169</ele>
        <time>2018-06-13T13:52:54Z</time>
      </trkpt>
      <trkpt lat="45.93094" lon="4.80301">
        <ele>169</ele>
        <time>2018-06-13T13:52:55Z</time>
      </trkpt>
      <trkpt lat="45.93092" lon="4.80307">
        <ele>169</ele>
        <time>2018-06-13T13:52:56Z</time>
      </trkpt>
      <trkpt lat="45.9309" lon="4.80313">
        <ele>169</ele>
        <time>2018-06-13T13:52:57Z</time>
      </trkpt>
      <trkpt lat="45.93088" lon="4.8032">
        <ele>169</ele>
        <time>2018-06-13T13:52:58Z</time>
      </trkpt>
      <trkpt lat="45.93086" lon="4.80325">
        <ele>169</ele>
        <time>2018-06-13T13:52:59Z</time>
      </trkpt>
      <trkpt lat="45.93083" lon="4.80332">
        <ele>169</ele>
        <time>2018-06-13T13:53:00Z</time>
      </trkpt>
      <trkpt lat="45.93081" lon="4.80339">
        <ele>169</ele>
        <time>2018-06-13T13:53:01Z</time>
      </trkpt>
      <trkpt lat="45.93079" lon="4.80345">
        <ele>169</ele>
        <time>2018-06-13T13:53:02Z</time>
      </trkpt>
      <trkpt lat="45.93076" lon="4.80352">
        <ele>169</ele>
        <time>2018-06-13T13:53:03Z</time>
      </trkpt>
      <trkpt lat="45.93074" lon="4.80359">
        <ele>170</ele>
        <time>2018-06-13T13:53:04Z</time>
      </trkpt>
      <trkpt lat="45.93072" lon="4.80366">
        <ele>170</ele>
        <time>2018-06-13T13:53:05Z</time>
      </trkpt>
      <trkpt lat="45.9307" lon="4.80373">
        <ele>170</ele>
        <time>2018-06-13T13:53:06Z</time>
      </trkpt>
      <trkpt lat="45.93067" lon="4.8038">
        <ele>170</ele>
        <time>2018-06-13T13:53:07Z</time>
      </trkpt>
      <trkpt lat="45.93065" lon="4.80388">
        <ele>170</ele>
        <time>2018-06-13T13:53:08Z</time>
      </trkpt>
      <trkpt lat="45.93063" lon="4.80395">
        <ele>170</ele>
        <time>2018-06-13T13:53:09Z</time>
      </trkpt>
      <trkpt lat="45.9306" lon="4.80401">
        <ele>170</ele>
        <time>2018-06-13T13:53:10Z</time>
      </trkpt>
      <trkpt lat="45.9306" lon="4.80408">
        <ele>170</ele>
        <time>2018-06-13T13:53:11Z</time>
      </trkpt>
      <trkpt lat="45.93058" lon="4.80415">
        <ele>170</ele>
        <time>2018-06-13T13:53:12Z</time>
      </trkpt>
      <trkpt lat="45.93057" lon="4.80422">
        <ele>171</ele>
        <time>2018-06-13T13:53:13Z</time>
      </trkpt>
      <trkpt lat="45.93054" lon="4.80427">
        <ele>171</ele>
        <time>2018-06-13T13:53:14Z</time>
      </trkpt>
      <trkpt lat="45.93052" lon="4.80433">
        <ele>171</ele>
        <time>2018-06-13T13:53:15Z</time>
      </trkpt>
      <trkpt lat="45.9305" lon="4.8044">
        <ele>171</ele>
        <time>2018-06-13T13:53:16Z</time>
      </trkpt>
      <trkpt lat="45.93047" lon="4.80448">
        <ele>171</ele>
        <time>2018-06-13T13:53:17Z</time>
      </trkpt>
      <trkpt lat="45.93046" lon="4.80455">
        <ele>171</ele>
        <time>2018-06-13T13:53:18Z</time>
      </trkpt>
      <trkpt lat="45.93043" lon="4.80462">
        <ele>171</ele>
        <time>2018-06-13T13:53:19Z</time>
      </trkpt>
      <trkpt lat="45.9304" lon="4.80469">
        <ele>171</ele>
        <time>2018-06-13T13:53:20Z</time>
      </trkpt>
      <trkpt lat="45.93036" lon="4.80481">
        <ele>171</ele>
        <time>2018-06-13T13:53:22Z</time>
      </trkpt>
      <trkpt lat="45.93034" lon="4.80486">
        <ele>171</ele>
        <time>2018-06-13T13:53:23Z</time>
      </trkpt>
      <trkpt lat="45.93032" lon="4.80494">
        <ele>171</ele>
        <time>2018-06-13T13:53:24Z</time>
      </trkpt>
      <trkpt lat="45.9303" lon="4.80499">
        <ele>171</ele>
        <time>2018-06-13T13:53:25Z</time>
      </trkpt>
      <trkpt lat="45.93027" lon="4.80506">
        <ele>172</ele>
        <time>2018-06-13T13:53:26Z</time>
      </trkpt>
      <trkpt lat="45.93024" lon="4.80513">
        <ele>172</ele>
        <time>2018-06-13T13:53:27Z</time>
      </trkpt>
      <trkpt lat="45.93022" lon="4.8052">
        <ele>172</ele>
        <time>2018-06-13T13:53:28Z</time>
      </trkpt>
      <trkpt lat="45.93019" lon="4.80526">
        <ele>172</ele>
        <time>2018-06-13T13:53:29Z</time>
      </trkpt>
      <trkpt lat="45.93016" lon="4.8053">
        <ele>172</ele>
        <time>2018-06-13T13:53:30Z</time>
      </trkpt>
      <trkpt lat="45.93015" lon="4.80538">
        <ele>172</ele>
        <time>2018-06-13T13:53:31Z</time>
      </trkpt>
      <trkpt lat="45.93014" lon="4.80546">
        <ele>172</ele>
        <time>2018-06-13T13:53:32Z</time>
      </trkpt>
      <trkpt lat="45.93013" lon="4.80552">
        <ele>172</ele>
        <time>2018-06-13T13:53:33Z</time>
      </trkpt>
      <trkpt lat="45.93011" lon="4.80559">
        <ele>172</ele>
        <time>2018-06-13T13:53:34Z</time>
      </trkpt>
      <trkpt lat="45.93009" lon="4.80565">
        <ele>172</ele>
        <time>2018-06-13T13:53:35Z</time>
      </trkpt>
      <trkpt lat="45.93007" lon="4.80571">
        <ele>172</ele>
        <time>2018-06-13T13:53:36Z</time>
      </trkpt>
      <trkpt lat="45.93004" lon="4.80576">
        <ele>172</ele>
        <time>2018-06-13T13:53:37Z</time>
      </trkpt>
      <trkpt lat="45.93002" lon="4.80582">
        <ele>172</ele>
        <time>2018-06-13T13:53:38Z</time>
      </trkpt>
      <trkpt lat="45.92999" lon="4.80589">
        <ele>172</ele>
        <time>2018-06-13T13:53:39Z</time>
      </trkpt>
      <trkpt lat="45.92996" lon="4.80595">
        <ele>172</ele>
        <time>2018-06-13T13:53:40Z</time>
      </trkpt>
      <trkpt lat="45.92994" lon="4.80604">
        <ele>172</ele>
        <time>2018-06-13T13:53:41Z</time>
      </trkpt>
      <trkpt lat="45.92992" lon="4.8061">
        <ele>172</ele>
        <time>2018-06-13T13:53:42Z</time>
      </trkpt>
      <trkpt lat="45.92989" lon="4.80617">
        <ele>172</ele>
        <time>2018-06-13T13:53:43Z</time>
      </trkpt>
      <trkpt lat="45.92987" lon="4.80623">
        <ele>172</ele>
        <time>2018-06-13T13:53:44Z</time>
      </trkpt>
      <trkpt lat="45.92984" lon="4.80629">
        <ele>172</ele>
        <time>2018-06-13T13:53:45Z</time>
      </trkpt>
      <trkpt lat="45.92982" lon="4.80636">
        <ele>172</ele>
        <time>2018-06-13T13:53:46Z</time>
      </trkpt>
      <trkpt lat="45.9298" lon="4.80643">
        <ele>172</ele>
        <time>2018-06-13T13:53:47Z</time>
      </trkpt>
      <trkpt lat="45.92977" lon="4.80649">
        <ele>172</ele>
        <time>2018-06-13T13:53:48Z</time>
      </trkpt>
      <trkpt lat="45.92974" lon="4.80657">
        <ele>172</ele>
        <time>2018-06-13T13:53:49Z</time>
      </trkpt>
      <trkpt lat="45.92973" lon="4.80664">
        <ele>172</ele>
        <time>2018-06-13T13:53:50Z</time>
      </trkpt>
      <trkpt lat="45.9297" lon="4.80668">
        <ele>172</ele>
        <time>2018-06-13T13:53:51Z</time>
      </trkpt>
      <trkpt lat="45.92968" lon="4.80675">
        <ele>172</ele>
        <time>2018-06-13T13:53:52Z</time>
      </trkpt>
      <trkpt lat="45.92967" lon="4.80682">
        <ele>172</ele>
        <time>2018-06-13T13:53:53Z</time>
      </trkpt>
      <trkpt lat="45.92965" lon="4.80688">
        <ele>172</ele>
        <time>2018-06-13T13:53:54Z</time>
      </trkpt>
      <trkpt lat="45.92963" lon="4.80694">
        <ele>172</ele>
        <time>2018-06-13T13:53:55Z</time>
      </trkpt>
      <trkpt lat="45.9296" lon="4.80701">
        <ele>172</ele>
        <time>2018-06-13T13:53:56Z</time>
      </trkpt>
      <trkpt lat="45.92958" lon="4.80709">
        <ele>172</ele>
        <time>2018-06-13T13:53:57Z</time>
      </trkpt>
      <trkpt lat="45.92956" lon="4.80716">
        <ele>172</ele>
        <time>2018-06-13T13:53:58Z</time>
      </trkpt>
      <trkpt lat="45.92953" lon="4.80721">
        <ele>172</ele>
        <time>2018-06-13T13:53:59Z</time>
      </trkpt>
      <trkpt lat="45.9295" lon="4.80729">
        <ele>172</ele>
        <time>2018-06-13T13:54:00Z</time>
      </trkpt>
      <trkpt lat="45.92947" lon="4.80735">
        <ele>172</ele>
        <time>2018-06-13T13:54:01Z</time>
      </trkpt>
      <trkpt lat="45.92945" lon="4.80742">
        <ele>172</ele>
        <time>2018-06-13T13:54:02Z</time>
      </trkpt>
      <trkpt lat="45.92943" lon="4.80749">
        <ele>172</ele>
        <time>2018-06-13T13:54:03Z</time>
      </trkpt>
      <trkpt lat="45.92941" lon="4.80755">
        <ele>172</ele>
        <time>2018-06-13T13:54:04Z</time>
      </trkpt>
      <trkpt lat="45.92938" lon="4.8076">
        <ele>172</ele>
        <time>2018-06-13T13:54:05Z</time>
      </trkpt>
      <trkpt lat="45.92934" lon="4.80771">
        <ele>172</ele>
        <time>2018-06-13T13:54:07Z</time>
      </trkpt>
      <trkpt lat="45.92932" lon="4.80777">
        <ele>172</ele>
        <time>2018-06-13T13:54:08Z</time>
      </trkpt>
      <trkpt lat="45.9293" lon="4.80782">
        <ele>172</ele>
        <time>2018-06-13T13:54:09Z</time>
      </trkpt>
      <trkpt lat="45.92928" lon="4.80788">
        <ele>172</ele>
        <time>2018-06-13T13:54:10Z</time>
      </trkpt>
      <trkpt lat="45.92927" lon="4.80796">
        <ele>172</ele>
        <time>2018-06-13T13:54:11Z</time>
      </trkpt>
      <trkpt lat="45.92925" lon="4.80803">
        <ele>172</ele>
        <time>2018-06-13T13:54:12Z</time>
      </trkpt>
      <trkpt lat="45.92923" lon="4.80811">
        <ele>172</ele>
        <time>2018-06-13T13:54:13Z</time>
      </trkpt>
      <trkpt lat="45.9292" lon="4.80818">
        <ele>172</ele>
        <time>2018-06-13T13:54:14Z</time>
      </trkpt>
      <trkpt lat="45.92918" lon="4.80822">
        <ele>172</ele>
        <time>2018-06-13T13:54:15Z</time>
      </trkpt>
      <trkpt lat="45.92916" lon="4.80831">
        <ele>172</ele>
        <time>2018-06-13T13:54:16Z</time>
      </trkpt>
      <trkpt lat="45.92913" lon="4.80838">
        <ele>172</ele>
        <time>2018-06-13T13:54:17Z</time>
      </trkpt>
      <trkpt lat="45.9291" lon="4.80844">
        <ele>171</ele>
        <time>2018-06-13T13:54:18Z</time>
      </trkpt>
      <trkpt lat="45.92909" lon="4.80853">
        <ele>171</ele>
        <time>2018-06-13T13:54:19Z</time>
      </trkpt>
      <trkpt lat="45.92905" lon="4.80861">
        <ele>171</ele>
        <time>2018-06-13T13:54:20Z</time>
      </trkpt>
      <trkpt lat="45.92904" lon="4.80869">
        <ele>171</ele>
        <time>2018-06-13T13:54:21Z</time>
      </trkpt>
      <trkpt lat="45.92902" lon="4.80876">
        <ele>171</ele>
        <time>2018-06-13T13:54:22Z</time>
      </trkpt>
      <trkpt lat="45.929" lon="4.80883">
        <ele>171</ele>
        <time>2018-06-13T13:54:23Z</time>
      </trkpt>
      <trkpt lat="45.92898" lon="4.80889">
        <ele>170</ele>
        <time>2018-06-13T13:54:24Z</time>
      </trkpt>
      <trkpt lat="45.92896" lon="4.80895">
        <ele>170</ele>
        <time>2018-06-13T13:54:25Z</time>
      </trkpt>
      <trkpt lat="45.92894" lon="4.80902">
        <ele>170</ele>
        <time>2018-06-13T13:54:26Z</time>
      </trkpt>
      <trkpt lat="45.92891" lon="4.80908">
        <ele>170</ele>
        <time>2018-06-13T13:54:27Z</time>
      </trkpt>
      <trkpt lat="45.92889" lon="4.80915">
        <ele>170</ele>
        <time>2018-06-13T13:54:28Z</time>
      </trkpt>
      <trkpt lat="45.92886" lon="4.80923">
        <ele>170</ele>
        <time>2018-06-13T13:54:29Z</time>
      </trkpt>
      <trkpt lat="45.92884" lon="4.8093">
        <ele>170</ele>
        <time>2018-06-13T13:54:30Z</time>
      </trkpt>
      <trkpt lat="45.92882" lon="4.80938">
        <ele>170</ele>
        <time>2018-06-13T13:54:31Z</time>
      </trkpt>
      <trkpt lat="45.92879" lon="4.80946">
        <ele>170</ele>
        <time>2018-06-13T13:54:32Z</time>
      </trkpt>
      <trkpt lat="45.92877" lon="4.80954">
        <ele>170</ele>
        <time>2018-06-13T13:54:33Z</time>
      </trkpt>
      <trkpt lat="45.92875" lon="4.80961">
        <ele>169</ele>
        <time>2018-06-13T13:54:34Z</time>
      </trkpt>
      <trkpt lat="45.92873" lon="4.80969">
        <ele>169</ele>
        <time>2018-06-13T13:54:35Z</time>
      </trkpt>
      <trkpt lat="45.9287" lon="4.80975">
        <ele>169</ele>
        <time>2018-06-13T13:54:36Z</time>
      </trkpt>
      <trkpt lat="45.92866" lon="4.80984">
        <ele>169</ele>
        <time>2018-06-13T13:54:38Z</time>
      </trkpt>
      <trkpt lat="45.92865" lon="4.80991">
        <ele>169</ele>
        <time>2018-06-13T13:54:39Z</time>
      </trkpt>
      <trkpt lat="45.92862" lon="4.80999">
        <ele>169</ele>
        <time>2018-06-13T13:54:40Z</time>
      </trkpt>
      <trkpt lat="45.92859" lon="4.81005">
        <ele>169</ele>
        <time>2018-06-13T13:54:41Z</time>
      </trkpt>
      <trkpt lat="45.92856" lon="4.81012">
        <ele>169</ele>
        <time>2018-06-13T13:54:42Z</time>
      </trkpt>
      <trkpt lat="45.92852" lon="4.8102">
        <ele>169</ele>
        <time>2018-06-13T13:54:43Z</time>
      </trkpt>
      <trkpt lat="45.92849" lon="4.81026">
        <ele>169</ele>
        <time>2018-06-13T13:54:44Z</time>
      </trkpt>
      <trkpt lat="45.92847" lon="4.81033">
        <ele>169</ele>
        <time>2018-06-13T13:54:45Z</time>
      </trkpt>
      <trkpt lat="45.92843" lon="4.8104">
        <ele>169</ele>
        <time>2018-06-13T13:54:46Z</time>
      </trkpt>
      <trkpt lat="45.9284" lon="4.81047">
        <ele>169</ele>
        <time>2018-06-13T13:54:47Z</time>
      </trkpt>
      <trkpt lat="45.92836" lon="4.81052">
        <ele>169</ele>
        <time>2018-06-13T13:54:48Z</time>
      </trkpt>
      <trkpt lat="45.92832" lon="4.81058">
        <ele>169</ele>
        <time>2018-06-13T13:54:49Z</time>
      </trkpt>
      <trkpt lat="45.92829" lon="4.81065">
        <ele>169</ele>
        <time>2018-06-13T13:54:50Z</time>
      </trkpt>
      <trkpt lat="45.92825" lon="4.8107">
        <ele>170</ele>
        <time>2018-06-13T13:54:51Z</time>
      </trkpt>
      <trkpt lat="45.92818" lon="4.81073">
        <ele>169</ele>
        <time>2018-06-13T13:54:53Z</time>
      </trkpt>
      <trkpt lat="45.92815" lon="4.81076">
        <ele>169</ele>
        <time>2018-06-13T13:54:54Z</time>
      </trkpt>
      <trkpt lat="45.92811" lon="4.81081">
        <ele>169</ele>
        <time>2018-06-13T13:54:55Z</time>
      </trkpt>
      <trkpt lat="45.92808" lon="4.81085">
        <ele>170</ele>
        <time>2018-06-13T13:54:56Z</time>
      </trkpt>
      <trkpt lat="45.92805" lon="4.81093">
        <ele>170</ele>
        <time>2018-06-13T13:54:57Z</time>
      </trkpt>
      <trkpt lat="45.92803" lon="4.81098">
        <ele>170</ele>
        <time>2018-06-13T13:54:58Z</time>
      </trkpt>
      <trkpt lat="45.92799" lon="4.81103">
        <ele>170</ele>
        <time>2018-06-13T13:54:59Z</time>
      </trkpt>
      <trkpt lat="45.92795" lon="4.81107">
        <ele>170</ele>
        <time>2018-06-13T13:55:00Z</time>
      </trkpt>
      <trkpt lat="45.92791" lon="4.81114">
        <ele>170</ele>
        <time>2018-06-13T13:55:01Z</time>
      </trkpt>
      <trkpt lat="45.92787" lon="4.81119">
        <ele>170</ele>
        <time>2018-06-13T13:55:02Z</time>
      </trkpt>
      <trkpt lat="45.92783" lon="4.81123">
        <ele>170</ele>
        <time>2018-06-13T13:55:03Z</time>
      </trkpt>
      <trkpt lat="45.92779" lon="4.81126">
        <ele>170</ele>
        <time>2018-06-13T13:55:04Z</time>
      </trkpt>
      <trkpt lat="45.92774" lon="4.8113">
        <ele>170</ele>
        <time>2018-06-13T13:55:05Z</time>
      </trkpt>
      <trkpt lat="45.92769" lon="4.81131">
        <ele>170</ele>
        <time>2018-06-13T13:55:06Z</time>
      </trkpt>
      <trkpt lat="45.92763" lon="4.81135">
        <ele>170</ele>
        <time>2018-06-13T13:55:07Z</time>
      </trkpt>
      <trkpt lat="45.92759" lon="4.81137">
        <ele>170</ele>
        <time>2018-06-13T13:55:08Z</time>
      </trkpt>
      <trkpt lat="45.92754" lon="4.81139">
        <ele>170</ele>
        <time>2018-06-13T13:55:09Z</time>
      </trkpt>
      <trkpt lat="45.9275" lon="4.81143">
        <ele>170</ele>
        <time>2018-06-13T13:55:10Z</time>
      </trkpt>
      <trkpt lat="45.92746" lon="4.81146">
        <ele>170</ele>
        <time>2018-06-13T13:55:11Z</time>
      </trkpt>
      <trkpt lat="45.92741" lon="4.81151">
        <ele>170</ele>
        <time>2018-06-13T13:55:12Z</time>
      </trkpt>
      <trkpt lat="45.92735" lon="4.81155">
        <ele>170</ele>
        <time>2018-06-13T13:55:13Z</time>
      </trkpt>
      <trkpt lat="45.9273" lon="4.81158">
        <ele>170</ele>
        <time>2018-06-13T13:55:14Z</time>
      </trkpt>
      <trkpt lat="45.92724" lon="4.8116">
        <ele>170</ele>
        <time>2018-06-13T13:55:15Z</time>
      </trkpt>
      <trkpt lat="45.92718" lon="4.81162">
        <ele>170</ele>
        <time>2018-06-13T13:55:16Z</time>
      </trkpt>
      <trkpt lat="45.92714" lon="4.81163">
        <ele>170</ele>
        <time>2018-06-13T13:55:17Z</time>
      </trkpt>
      <trkpt lat="45.92708" lon="4.81165">
        <ele>171</ele>
        <time>2018-06-13T13:55:18Z</time>
      </trkpt>
      <trkpt lat="45.92703" lon="4.81166">
        <ele>171</ele>
        <time>2018-06-13T13:55:19Z</time>
      </trkpt>
      <trkpt lat="45.92697" lon="4.81167">
        <ele>170</ele>
        <time>2018-06-13T13:55:20Z</time>
      </trkpt>
      <trkpt lat="45.92692" lon="4.81169">
        <ele>171</ele>
        <time>2018-06-13T13:55:21Z</time>
      </trkpt>
      <trkpt lat="45.92686" lon="4.8117">
        <ele>171</ele>
        <time>2018-06-13T13:55:22Z</time>
      </trkpt>
      <trkpt lat="45.9268" lon="4.81172">
        <ele>171</ele>
        <time>2018-06-13T13:55:23Z</time>
      </trkpt>
      <trkpt lat="45.92673" lon="4.81173">
        <ele>171</ele>
        <time>2018-06-13T13:55:24Z</time>
      </trkpt>
      <trkpt lat="45.92667" lon="4.81174">
        <ele>171</ele>
        <time>2018-06-13T13:55:25Z</time>
      </trkpt>
      <trkpt lat="45.92662" lon="4.81175">
        <ele>171</ele>
        <time>2018-06-13T13:55:26Z</time>
      </trkpt>
      <trkpt lat="45.92657" lon="4.81176">
        <ele>171</ele>
        <time>2018-06-13T13:55:27Z</time>
      </trkpt>
      <trkpt lat="45.92652" lon="4.81177">
        <ele>171</ele>
        <time>2018-06-13T13:55:28Z</time>
      </trkpt>
      <trkpt lat="45.92648" lon="4.81179">
        <ele>171</ele>
        <time>2018-06-13T13:55:29Z</time>
      </trkpt>
      <trkpt lat="45.92643" lon="4.8118">
        <ele>171</ele>
        <time>2018-06-13T13:55:30Z</time>
      </trkpt>
      <trkpt lat="45.92637" lon="4.81182">
        <ele>171</ele>
        <time>2018-06-13T13:55:31Z</time>
      </trkpt>
      <trkpt lat="45.9263" lon="4.81183">
        <ele>171</ele>
        <time>2018-06-13T13:55:32Z</time>
      </trkpt>
      <trkpt lat="45.92623" lon="4.81182">
        <ele>170</ele>
        <time>2018-06-13T13:55:33Z</time>
      </trkpt>
      <trkpt lat="45.92617" lon="4.81183">
        <ele>170</ele>
        <time>2018-06-13T13:55:34Z</time>
      </trkpt>
      <trkpt lat="45.9261" lon="4.81183">
        <ele>170</ele>
        <time>2018-06-13T13:55:35Z</time>
      </trkpt>
      <trkpt lat="45.92603" lon="4.81184">
        <ele>170</ele>
        <time>2018-06-13T13:55:36Z</time>
      </trkpt>
      <trkpt lat="45.92597" lon="4.81184">
        <ele>170</ele>
        <time>2018-06-13T13:55:37Z</time>
      </trkpt>
      <trkpt lat="45.92591" lon="4.81184">
        <ele>170</ele>
        <time>2018-06-13T13:55:38Z</time>
      </trkpt>
      <trkpt lat="45.92585" lon="4.81185">
        <ele>170</ele>
        <time>2018-06-13T13:55:39Z</time>
      </trkpt>
      <trkpt lat="45.92579" lon="4.81186">
        <ele>170</ele>
        <time>2018-06-13T13:55:40Z</time>
      </trkpt>
      <trkpt lat="45.92573" lon="4.81186">
        <ele>170</ele>
        <time>2018-06-13T13:55:41Z</time>
      </trkpt>
      <trkpt lat="45.92568" lon="4.81187">
        <ele>170</ele>
        <time>2018-06-13T13:55:42Z</time>
      </trkpt>
      <trkpt lat="45.92562" lon="4.81187">
        <ele>170</ele>
        <time>2018-06-13T13:55:43Z</time>
      </trkpt>
      <trkpt lat="45.92557" lon="4.81187">
        <ele>170</ele>
        <time>2018-06-13T13:55:44Z</time>
      </trkpt>
      <trkpt lat="45.92549" lon="4.81188">
        <ele>170</ele>
        <time>2018-06-13T13:55:46Z</time>
      </trkpt>
      <trkpt lat="45.92543" lon="4.81188">
        <ele>170</ele>
        <time>2018-06-13T13:55:47Z</time>
      </trkpt>
      <trkpt lat="45.92537" lon="4.81189">
        <ele>171</ele>
        <time>2018-06-13T13:55:48Z</time>
      </trkpt>
      <trkpt lat="45.92531" lon="4.81189">
        <ele>171</ele>
        <time>2018-06-13T13:55:49Z</time>
      </trkpt>
      <trkpt lat="45.92524" lon="4.81189">
        <ele>171</ele>
        <time>2018-06-13T13:55:50Z</time>
      </trkpt>
      <trkpt lat="45.92519" lon="4.81188">
        <ele>171</ele>
        <time>2018-06-13T13:55:51Z</time>
      </trkpt>
      <trkpt lat="45.92512" lon="4.81189">
        <ele>171</ele>
        <time>2018-06-13T13:55:52Z</time>
      </trkpt>
      <trkpt lat="45.92505" lon="4.8119">
        <ele>171</ele>
        <time>2018-06-13T13:55:53Z</time>
      </trkpt>
      <trkpt lat="45.92497" lon="4.8119">
        <ele>171</ele>
        <time>2018-06-13T13:55:54Z</time>
      </trkpt>
      <trkpt lat="45.92491" lon="4.8119">
        <ele>171</ele>
        <time>2018-06-13T13:55:55Z</time>
      </trkpt>
      <trkpt lat="45.92484" lon="4.81191">
        <ele>171</ele>
        <time>2018-06-13T13:55:56Z</time>
      </trkpt>
      <trkpt lat="45.92477" lon="4.81191">
        <ele>171</ele>
        <time>2018-06-13T13:55:57Z</time>
      </trkpt>
      <trkpt lat="45.92471" lon="4.81191">
        <ele>171</ele>
        <time>2018-06-13T13:55:58Z</time>
      </trkpt>
      <trkpt lat="45.92465" lon="4.81192">
        <ele>171</ele>
        <time>2018-06-13T13:55:59Z</time>
      </trkpt>
      <trkpt lat="45.92459" lon="4.81192">
        <ele>171</ele>
        <time>2018-06-13T13:56:00Z</time>
      </trkpt>
      <trkpt lat="45.92452" lon="4.81192">
        <ele>171</ele>
        <time>2018-06-13T13:56:01Z</time>
      </trkpt>
      <trkpt lat="45.92447" lon="4.81193">
        <ele>171</ele>
        <time>2018-06-13T13:56:02Z</time>
      </trkpt>
      <trkpt lat="45.92442" lon="4.81193">
        <ele>171</ele>
        <time>2018-06-13T13:56:03Z</time>
      </trkpt>
      <trkpt lat="45.92436" lon="4.81194">
        <ele>171</ele>
        <time>2018-06-13T13:56:04Z</time>
      </trkpt>
      <trkpt lat="45.9243" lon="4.81194">
        <ele>171</ele>
        <time>2018-06-13T13:56:05Z</time>
      </trkpt>
      <trkpt lat="45.92426" lon="4.81195">
        <ele>171</ele>
        <time>2018-06-13T13:56:06Z</time>
      </trkpt>
      <trkpt lat="45.9242" lon="4.81196">
        <ele>171</ele>
        <time>2018-06-13T13:56:07Z</time>
      </trkpt>
      <trkpt lat="45.92414" lon="4.81198">
        <ele>170</ele>
        <time>2018-06-13T13:56:08Z</time>
      </trkpt>
      <trkpt lat="45.92409" lon="4.81199">
        <ele>170</ele>
        <time>2018-06-13T13:56:09Z</time>
      </trkpt>
      <trkpt lat="45.92403" lon="4.81201">
        <ele>170</ele>
        <time>2018-06-13T13:56:10Z</time>
      </trkpt>
      <trkpt lat="45.92398" lon="4.81204">
        <ele>170</ele>
        <time>2018-06-13T13:56:11Z</time>
      </trkpt>
      <trkpt lat="45.92391" lon="4.81207">
        <ele>170</ele>
        <time>2018-06-13T13:56:12Z</time>
      </trkpt>
      <trkpt lat="45.92385" lon="4.81209">
        <ele>170</ele>
        <time>2018-06-13T13:56:13Z</time>
      </trkpt>
      <trkpt lat="45.92379" lon="4.81213">
        <ele>170</ele>
        <time>2018-06-13T13:56:14Z</time>
      </trkpt>
      <trkpt lat="45.92374" lon="4.81216">
        <ele>170</ele>
        <time>2018-06-13T13:56:15Z</time>
      </trkpt>
      <trkpt lat="45.92369" lon="4.81219">
        <ele>170</ele>
        <time>2018-06-13T13:56:16Z</time>
      </trkpt>
      <trkpt lat="45.92363" lon="4.81223">
        <ele>170</ele>
        <time>2018-06-13T13:56:17Z</time>
      </trkpt>
      <trkpt lat="45.92358" lon="4.81227">
        <ele>170</ele>
        <time>2018-06-13T13:56:18Z</time>
      </trkpt>
      <trkpt lat="45.92352" lon="4.81229">
        <ele>169</ele>
        <time>2018-06-13T13:56:19Z</time>
      </trkpt>
      <trkpt lat="45.92347" lon="4.81233">
        <ele>169</ele>
        <time>2018-06-13T13:56:20Z</time>
      </trkpt>
      <trkpt lat="45.92342" lon="4.81236">
        <ele>169</ele>
        <time>2018-06-13T13:56:21Z</time>
      </trkpt>
      <trkpt lat="45.92337" lon="4.81239">
        <ele>169</ele>
        <time>2018-06-13T13:56:22Z</time>
      </trkpt>
      <trkpt lat="45.92333" lon="4.81242">
        <ele>169</ele>
        <time>2018-06-13T13:56:23Z</time>
      </trkpt>
      <trkpt lat="45.92328" lon="4.81247">
        <ele>169</ele>
        <time>2018-06-13T13:56:24Z</time>
      </trkpt>
      <trkpt lat="45.92324" lon="4.81249">
        <ele>169</ele>
        <time>2018-06-13T13:56:25Z</time>
      </trkpt>
      <trkpt lat="45.92319" lon="4.81252">
        <ele>170</ele>
        <time>2018-06-13T13:56:26Z</time>
      </trkpt>
      <trkpt lat="45.92314" lon="4.81254">
        <ele>170</ele>
        <time>2018-06-13T13:56:27Z</time>
      </trkpt>
      <trkpt lat="45.9231" lon="4.81256">
        <ele>170</ele>
        <time>2018-06-13T13:56:28Z</time>
      </trkpt>
      <trkpt lat="45.92304" lon="4.8126">
        <ele>170</ele>
        <time>2018-06-13T13:56:29Z</time>
      </trkpt>
      <trkpt lat="45.92299" lon="4.81263">
        <ele>170</ele>
        <time>2018-06-13T13:56:30Z</time>
      </trkpt>
      <trkpt lat="45.92293" lon="4.81266">
        <ele>170</ele>
        <time>2018-06-13T13:56:31Z</time>
      </trkpt>
      <trkpt lat="45.92287" lon="4.8127">
        <ele>170</ele>
        <time>2018-06-13T13:56:32Z</time>
      </trkpt>
      <trkpt lat="45.92282" lon="4.81274">
        <ele>170</ele>
        <time>2018-06-13T13:56:33Z</time>
      </trkpt>
      <trkpt lat="45.92277" lon="4.81277">
        <ele>170</ele>
        <time>2018-06-13T13:56:34Z</time>
      </trkpt>
      <trkpt lat="45.92272" lon="4.8128">
        <ele>170</ele>
        <time>2018-06-13T13:56:35Z</time>
      </trkpt>
      <trkpt lat="45.92267" lon="4.81283">
        <ele>170</ele>
        <time>2018-06-13T13:56:36Z</time>
      </trkpt>
      <trkpt lat="45.92263" lon="4.81286">
        <ele>170</ele>
        <time>2018-06-13T13:56:37Z</time>
      </trkpt>
      <trkpt lat="45.92258" lon="4.81289">
        <ele>171</ele>
        <time>2018-06-13T13:56:38Z</time>
      </trkpt>
      <trkpt lat="45.92253" lon="4.81292">
        <ele>171</ele>
        <time>2018-06-13T13:56:39Z</time>
      </trkpt>
      <trkpt lat="45.92248" lon="4.81296">
        <ele>171</ele>
        <time>2018-06-13T13:56:40Z</time>
      </trkpt>
      <trkpt lat="45.92244" lon="4.813">
        <ele>171</ele>
        <time>2018-06-13T13:56:41Z</time>
      </trkpt>
      <trkpt lat="45.92239" lon="4.81305">
        <ele>171</ele>
        <time>2018-06-13T13:56:42Z</time>
      </trkpt>
      <trkpt lat="45.92234" lon="4.81308">
        <ele>171</ele>
        <time>2018-06-13T13:56:43Z</time>
      </trkpt>
      <trkpt lat="45.92229" lon="4.81312">
        <ele>171</ele>
        <time>2018-06-13T13:56:44Z</time>
      </trkpt>
      <trkpt lat="45.92224" lon="4.81316">
        <ele>171</ele>
        <time>2018-06-13T13:56:45Z</time>
      </trkpt>
      <trkpt lat="45.9222" lon="4.81321">
        <ele>171</ele>
        <time>2018-06-13T13:56:46Z</time>
      </trkpt>
      <trkpt lat="45.92216" lon="4.81325">
        <ele>171</ele>
        <time>2018-06-13T13:56:47Z</time>
      </trkpt>
      <trkpt lat="45.92209" lon="4.81332">
        <ele>171</ele>
        <time>2018-06-13T13:56:49Z</time>
      </trkpt>
      <trkpt lat="45.92205" lon="4.81336">
        <ele>170</ele>
        <time>2018-06-13T13:56:50Z</time>
      </trkpt>
      <trkpt lat="45.92201" lon="4.81339">
        <ele>170</ele>
        <time>2018-06-13T13:56:51Z</time>
      </trkpt>
      <trkpt lat="45.92195" lon="4.81343">
        <ele>170</ele>
        <time>2018-06-13T13:56:52Z</time>
      </trkpt>
      <trkpt lat="45.9219" lon="4.81346">
        <ele>170</ele>
        <time>2018-06-13T13:56:53Z</time>
      </trkpt>
      <trkpt lat="45.92183" lon="4.81346">
        <ele>170</ele>
        <time>2018-06-13T13:56:54Z</time>
      </trkpt>
      <trkpt lat="45.92178" lon="4.81348">
        <ele>170</ele>
        <time>2018-06-13T13:56:55Z</time>
      </trkpt>
      <trkpt lat="45.92172" lon="4.81351">
        <ele>170</ele>
        <time>2018-06-13T13:56:56Z</time>
      </trkpt>
      <trkpt lat="45.92167" lon="4.81355">
        <ele>170</ele>
        <time>2018-06-13T13:56:57Z</time>
      </trkpt>
      <trkpt lat="45.92162" lon="4.8136">
        <ele>170</ele>
        <time>2018-06-13T13:56:58Z</time>
      </trkpt>
      <trkpt lat="45.92157" lon="4.81365">
        <ele>170</ele>
        <time>2018-06-13T13:56:59Z</time>
      </trkpt>
      <trkpt lat="45.92152" lon="4.81369">
        <ele>170</ele>
        <time>2018-06-13T13:57:00Z</time>
      </trkpt>
      <trkpt lat="45.92148" lon="4.81372">
        <ele>170</ele>
        <time>2018-06-13T13:57:01Z</time>
      </trkpt>
      <trkpt lat="45.92141" lon="4.81374">
        <ele>170</ele>
        <time>2018-06-13T13:57:02Z</time>
      </trkpt>
      <trkpt lat="45.92135" lon="4.81375">
        <ele>170</ele>
        <time>2018-06-13T13:57:03Z</time>
      </trkpt>
      <trkpt lat="45.92129" lon="4.81375">
        <ele>170</ele>
        <time>2018-06-13T13:57:04Z</time>
      </trkpt>
      <trkpt lat="45.92124" lon="4.81378">
        <ele>170</ele>
        <time>2018-06-13T13:57:05Z</time>
      </trkpt>
      <trkpt lat="45.92119" lon="4.81379">
        <ele>170</ele>
        <time>2018-06-13T13:57:06Z</time>
      </trkpt>
      <trkpt lat="45.92113" lon="4.81382">
        <ele>170</ele>
        <time>2018-06-13T13:57:07Z</time>
      </trkpt>
      <trkpt lat="45.92108" lon="4.81385">
        <ele>170</ele>
        <time>2018-06-13T13:57:08Z</time>
      </trkpt>
      <trkpt lat="45.92102" lon="4.81389">
        <ele>170</ele>
        <time>2018-06-13T13:57:09Z</time>
      </trkpt>
      <trkpt lat="45.92096" lon="4.81391">
        <ele>170</ele>
        <time>2018-06-13T13:57:10Z</time>
      </trkpt>
      <trkpt lat="45.9209" lon="4.81393">
        <ele>170</ele>
        <time>2018-06-13T13:57:11Z</time>
      </trkpt>
      <trkpt lat="45.92085" lon="4.81396">
        <ele>170</ele>
        <time>2018-06-13T13:57:12Z</time>
      </trkpt>
      <trkpt lat="45.9208" lon="4.814">
        <ele>170</ele>
        <time>2018-06-13T13:57:13Z</time>
      </trkpt>
      <trkpt lat="45.92075" lon="4.81402">
        <ele>170</ele>
        <time>2018-06-13T13:57:14Z</time>
      </trkpt>
      <trkpt lat="45.92071" lon="4.81406">
        <ele>170</ele>
        <time>2018-06-13T13:57:15Z</time>
      </trkpt>
      <trkpt lat="45.92066" lon="4.81408">
        <ele>169</ele>
        <time>2018-06-13T13:57:16Z</time>
      </trkpt>
      <trkpt lat="45.92057" lon="4.81413">
        <ele>169</ele>
        <time>2018-06-13T13:57:18Z</time>
      </trkpt>
      <trkpt lat="45.92053" lon="4.81416">
        <ele>169</ele>
        <time>2018-06-13T13:57:19Z</time>
      </trkpt>
      <trkpt lat="45.92047" lon="4.81418">
        <ele>170</ele>
        <time>2018-06-13T13:57:20Z</time>
      </trkpt>
      <trkpt lat="45.92042" lon="4.81421">
        <ele>170</ele>
        <time>2018-06-13T13:57:21Z</time>
      </trkpt>
      <trkpt lat="45.92037" lon="4.81424">
        <ele>170</ele>
        <time>2018-06-13T13:57:22Z</time>
      </trkpt>
      <trkpt lat="45.92031" lon="4.81428">
        <ele>170</ele>
        <time>2018-06-13T13:57:23Z</time>
      </trkpt>
      <trkpt lat="45.92025" lon="4.81432">
        <ele>170</ele>
        <time>2018-06-13T13:57:24Z</time>
      </trkpt>
      <trkpt lat="45.92019" lon="4.81436">
        <ele>170</ele>
        <time>2018-06-13T13:57:25Z</time>
      </trkpt>
      <trkpt lat="45.92013" lon="4.81439">
        <ele>170</ele>
        <time>2018-06-13T13:57:26Z</time>
      </trkpt>
      <trkpt lat="45.92007" lon="4.81443">
        <ele>170</ele>
        <time>2018-06-13T13:57:27Z</time>
      </trkpt>
      <trkpt lat="45.92" lon="4.81445">
        <ele>170</ele>
        <time>2018-06-13T13:57:28Z</time>
      </trkpt>
      <trkpt lat="45.91995" lon="4.81448">
        <ele>170</ele>
        <time>2018-06-13T13:57:29Z</time>
      </trkpt>
      <trkpt lat="45.91989" lon="4.81451">
        <ele>170</ele>
        <time>2018-06-13T13:57:30Z</time>
      </trkpt>
      <trkpt lat="45.91983" lon="4.81454">
        <ele>170</ele>
        <time>2018-06-13T13:57:31Z</time>
      </trkpt>
      <trkpt lat="45.91977" lon="4.81457">
        <ele>170</ele>
        <time>2018-06-13T13:57:32Z</time>
      </trkpt>
      <trkpt lat="45.91972" lon="4.81459">
        <ele>170</ele>
        <time>2018-06-13T13:57:33Z</time>
      </trkpt>
      <trkpt lat="45.91966" lon="4.81462">
        <ele>170</ele>
        <time>2018-06-13T13:57:34Z</time>
      </trkpt>
      <trkpt lat="45.9196" lon="4.81463">
        <ele>170</ele>
        <time>2018-06-13T13:57:35Z</time>
      </trkpt>
      <trkpt lat="45.91954" lon="4.81466">
        <ele>170</ele>
        <time>2018-06-13T13:57:36Z</time>
      </trkpt>
      <trkpt lat="45.91948" lon="4.81468">
        <ele>170</ele>
        <time>2018-06-13T13:57:37Z</time>
      </trkpt>
      <trkpt lat="45.91942" lon="4.81471">
        <ele>170</ele>
        <time>2018-06-13T13:57:38Z</time>
      </trkpt>
      <trkpt lat="45.91936" lon="4.81473">
        <ele>170</ele>
        <time>2018-06-13T13:57:39Z</time>
      </trkpt>
      <trkpt lat="45.91931" lon="4.81475">
        <ele>170</ele>
        <time>2018-06-13T13:57:40Z</time>
      </trkpt>
      <trkpt lat="45.91925" lon="4.81477">
        <ele>170</ele>
        <time>2018-06-13T13:57:41Z</time>
      </trkpt>
      <trkpt lat="45.9192" lon="4.8148">
        <ele>170</ele>
        <time>2018-06-13T13:57:42Z</time>
      </trkpt>
      <trkpt lat="45.91914" lon="4.81482">
        <ele>169</ele>
        <time>2018-06-13T13:57:43Z</time>
      </trkpt>
      <trkpt lat="45.91909" lon="4.81484">
        <ele>169</ele>
        <time>2018-06-13T13:57:44Z</time>
      </trkpt>
      <trkpt lat="45.91904" lon="4.81486">
        <ele>169</ele>
        <time>2018-06-13T13:57:45Z</time>
      </trkpt>
      <trkpt lat="45.91898" lon="4.81488">
        <ele>169</ele>
        <time>2018-06-13T13:57:46Z</time>
      </trkpt>
      <trkpt lat="45.91892" lon="4.8149">
        <ele>169</ele>
        <time>2018-06-13T13:57:47Z</time>
      </trkpt>
      <trkpt lat="45.91886" lon="4.81492">
        <ele>169</ele>
        <time>2018-06-13T13:57:48Z</time>
      </trkpt>
      <trkpt lat="45.9188" lon="4.81495">
        <ele>169</ele>
        <time>2018-06-13T13:57:49Z</time>
      </trkpt>
      <trkpt lat="45.91874" lon="4.81497">
        <ele>169</ele>
        <time>2018-06-13T13:57:50Z</time>
      </trkpt>
      <trkpt lat="45.91867" lon="4.81498">
        <ele>169</ele>
        <time>2018-06-13T13:57:51Z</time>
      </trkpt>
      <trkpt lat="45.91861" lon="4.815">
        <ele>169</ele>
        <time>2018-06-13T13:57:52Z</time>
      </trkpt>
      <trkpt lat="45.91855" lon="4.81502">
        <ele>169</ele>
        <time>2018-06-13T13:57:53Z</time>
      </trkpt>
      <trkpt lat="45.91849" lon="4.81504">
        <ele>169</ele>
        <time>2018-06-13T13:57:54Z</time>
      </trkpt>
      <trkpt lat="45.91843" lon="4.81505">
        <ele>168</ele>
        <time>2018-06-13T13:57:55Z</time>
      </trkpt>
      <trkpt lat="45.91837" lon="4.81507">
        <ele>168</ele>
        <time>2018-06-13T13:57:56Z</time>
      </trkpt>
      <trkpt lat="45.91833" lon="4.8151">
        <ele>168</ele>
        <time>2018-06-13T13:57:57Z</time>
      </trkpt>
      <trkpt lat="45.91827" lon="4.81512">
        <ele>168</ele>
        <time>2018-06-13T13:57:58Z</time>
      </trkpt>
      <trkpt lat="45.91823" lon="4.81515">
        <ele>168</ele>
        <time>2018-06-13T13:57:59Z</time>
      </trkpt>
      <trkpt lat="45.91817" lon="4.81517">
        <ele>168</ele>
        <time>2018-06-13T13:58:00Z</time>
      </trkpt>
      <trkpt lat="45.91811" lon="4.8152">
        <ele>168</ele>
        <time>2018-06-13T13:58:01Z</time>
      </trkpt>
      <trkpt lat="45.91805" lon="4.81522">
        <ele>168</ele>
        <time>2018-06-13T13:58:02Z</time>
      </trkpt>
      <trkpt lat="45.91799" lon="4.81525">
        <ele>168</ele>
        <time>2018-06-13T13:58:03Z</time>
      </trkpt>
      <trkpt lat="45.91793" lon="4.81528">
        <ele>168</ele>
        <time>2018-06-13T13:58:04Z</time>
      </trkpt>
      <trkpt lat="45.91786" lon="4.8153">
        <ele>169</ele>
        <time>2018-06-13T13:58:05Z</time>
      </trkpt>
      <trkpt lat="45.91781" lon="4.81532">
        <ele>169</ele>
        <time>2018-06-13T13:58:06Z</time>
      </trkpt>
      <trkpt lat="45.91775" lon="4.81533">
        <ele>169</ele>
        <time>2018-06-13T13:58:07Z</time>
      </trkpt>
      <trkpt lat="45.9177" lon="4.81535">
        <ele>169</ele>
        <time>2018-06-13T13:58:08Z</time>
      </trkpt>
      <trkpt lat="45.91764" lon="4.81538">
        <ele>169</ele>
        <time>2018-06-13T13:58:09Z</time>
      </trkpt>
      <trkpt lat="45.91759" lon="4.8154">
        <ele>169</ele>
        <time>2018-06-13T13:58:10Z</time>
      </trkpt>
      <trkpt lat="45.91753" lon="4.81542">
        <ele>168</ele>
        <time>2018-06-13T13:58:11Z</time>
      </trkpt>
      <trkpt lat="45.91748" lon="4.81544">
        <ele>169</ele>
        <time>2018-06-13T13:58:12Z</time>
      </trkpt>
      <trkpt lat="45.91743" lon="4.81546">
        <ele>169</ele>
        <time>2018-06-13T13:58:13Z</time>
      </trkpt>
      <trkpt lat="45.91737" lon="4.81548">
        <ele>169</ele>
        <time>2018-06-13T13:58:14Z</time>
      </trkpt>
      <trkpt lat="45.91731" lon="4.81549">
        <ele>169</ele>
        <time>2018-06-13T13:58:15Z</time>
      </trkpt>
      <trkpt lat="45.91724" lon="4.8155">
        <ele>169</ele>
        <time>2018-06-13T13:58:16Z</time>
      </trkpt>
      <trkpt lat="45.91717" lon="4.81553">
        <ele>169</ele>
        <time>2018-06-13T13:58:17Z</time>
      </trkpt>
      <trkpt lat="45.9171" lon="4.81554">
        <ele>169</ele>
        <time>2018-06-13T13:58:18Z</time>
      </trkpt>
      <trkpt lat="45.91703" lon="4.81555">
        <ele>169</ele>
        <time>2018-06-13T13:58:19Z</time>
      </trkpt>
      <trkpt lat="45.91698" lon="4.81556">
        <ele>169</ele>
        <time>2018-06-13T13:58:20Z</time>
      </trkpt>
      <trkpt lat="45.91692" lon="4.81558">
        <ele>169</ele>
        <time>2018-06-13T13:58:21Z</time>
      </trkpt>
      <trkpt lat="45.91686" lon="4.8156">
        <ele>169</ele>
        <time>2018-06-13T13:58:22Z</time>
      </trkpt>
      <trkpt lat="45.91678" lon="4.81561">
        <ele>170</ele>
        <time>2018-06-13T13:58:23Z</time>
      </trkpt>
      <trkpt lat="45.91672" lon="4.81562">
        <ele>170</ele>
        <time>2018-06-13T13:58:24Z</time>
      </trkpt>
      <trkpt lat="45.91666" lon="4.81564">
        <ele>170</ele>
        <time>2018-06-13T13:58:25Z</time>
      </trkpt>
      <trkpt lat="45.91661" lon="4.81565">
        <ele>170</ele>
        <time>2018-06-13T13:58:26Z</time>
      </trkpt>
      <trkpt lat="45.91655" lon="4.81567">
        <ele>170</ele>
        <time>2018-06-13T13:58:27Z</time>
      </trkpt>
      <trkpt lat="45.9165" lon="4.81568">
        <ele>170</ele>
        <time>2018-06-13T13:58:28Z</time>
      </trkpt>
      <trkpt lat="45.91642" lon="4.8157">
        <ele>170</ele>
        <time>2018-06-13T13:58:29Z</time>
      </trkpt>
      <trkpt lat="45.91636" lon="4.81572">
        <ele>170</ele>
        <time>2018-06-13T13:58:30Z</time>
      </trkpt>
      <trkpt lat="45.91631" lon="4.81574">
        <ele>170</ele>
        <time>2018-06-13T13:58:31Z</time>
      </trkpt>
      <trkpt lat="45.91625" lon="4.81575">
        <ele>170</ele>
        <time>2018-06-13T13:58:32Z</time>
      </trkpt>
      <trkpt lat="45.91619" lon="4.81576">
        <ele>170</ele>
        <time>2018-06-13T13:58:33Z</time>
      </trkpt>
      <trkpt lat="45.91612" lon="4.81577">
        <ele>170</ele>
        <time>2018-06-13T13:58:34Z</time>
      </trkpt>
      <trkpt lat="45.91608" lon="4.81579">
        <ele>170</ele>
        <time>2018-06-13T13:58:35Z</time>
      </trkpt>
      <trkpt lat="45.91602" lon="4.81579">
        <ele>170</ele>
        <time>2018-06-13T13:58:36Z</time>
      </trkpt>
      <trkpt lat="45.91596" lon="4.81581">
        <ele>170</ele>
        <time>2018-06-13T13:58:37Z</time>
      </trkpt>
      <trkpt lat="45.91587" lon="4.81583">
        <ele>170</ele>
        <time>2018-06-13T13:58:39Z</time>
      </trkpt>
      <trkpt lat="45.91582" lon="4.81584">
        <ele>170</ele>
        <time>2018-06-13T13:58:40Z</time>
      </trkpt>
      <trkpt lat="45.91577" lon="4.81584">
        <ele>170</ele>
        <time>2018-06-13T13:58:41Z</time>
      </trkpt>
      <trkpt lat="45.91571" lon="4.81584">
        <ele>170</ele>
        <time>2018-06-13T13:58:42Z</time>
      </trkpt>
      <trkpt lat="45.91565" lon="4.81585">
        <ele>170</ele>
        <time>2018-06-13T13:58:43Z</time>
      </trkpt>
      <trkpt lat="45.91559" lon="4.81587">
        <ele>170</ele>
        <time>2018-06-13T13:58:44Z</time>
      </trkpt>
      <trkpt lat="45.91553" lon="4.81588">
        <ele>170</ele>
        <time>2018-06-13T13:58:45Z</time>
      </trkpt>
      <trkpt lat="45.91547" lon="4.81589">
        <ele>170</ele>
        <time>2018-06-13T13:58:46Z</time>
      </trkpt>
      <trkpt lat="45.91541" lon="4.81589">
        <ele>170</ele>
        <time>2018-06-13T13:58:47Z</time>
      </trkpt>
      <trkpt lat="45.91537" lon="4.81592">
        <ele>170</ele>
        <time>2018-06-13T13:58:48Z</time>
      </trkpt>
      <trkpt lat="45.91532" lon="4.81593">
        <ele>170</ele>
        <time>2018-06-13T13:58:49Z</time>
      </trkpt>
      <trkpt lat="45.91528" lon="4.81594">
        <ele>170</ele>
        <time>2018-06-13T13:58:50Z</time>
      </trkpt>
      <trkpt lat="45.91519" lon="4.81594">
        <ele>170</ele>
        <time>2018-06-13T13:58:52Z</time>
      </trkpt>
      <trkpt lat="45.91514" lon="4.81595">
        <ele>170</ele>
        <time>2018-06-13T13:58:53Z</time>
      </trkpt>
      <trkpt lat="45.91509" lon="4.81595">
        <ele>169</ele>
        <time>2018-06-13T13:58:54Z</time>
      </trkpt>
      <trkpt lat="45.91503" lon="4.81596">
        <ele>169</ele>
        <time>2018-06-13T13:58:55Z</time>
      </trkpt>
      <trkpt lat="45.91498" lon="4.81597">
        <ele>169</ele>
        <time>2018-06-13T13:58:56Z</time>
      </trkpt>
      <trkpt lat="45.91492" lon="4.81598">
        <ele>169</ele>
        <time>2018-06-13T13:58:57Z</time>
      </trkpt>
      <trkpt lat="45.91486" lon="4.81599">
        <ele>169</ele>
        <time>2018-06-13T13:58:58Z</time>
      </trkpt>
      <trkpt lat="45.9148" lon="4.81599">
        <ele>169</ele>
        <time>2018-06-13T13:58:59Z</time>
      </trkpt>
      <trkpt lat="45.91473" lon="4.816">
        <ele>170</ele>
        <time>2018-06-13T13:59:00Z</time>
      </trkpt>
      <trkpt lat="45.91467" lon="4.81601">
        <ele>170</ele>
        <time>2018-06-13T13:59:01Z</time>
      </trkpt>
      <trkpt lat="45.91461" lon="4.81603">
        <ele>170</ele>
        <time>2018-06-13T13:59:02Z</time>
      </trkpt>
      <trkpt lat="45.91455" lon="4.81603">
        <ele>170</ele>
        <time>2018-06-13T13:59:03Z</time>
      </trkpt>
      <trkpt lat="45.91449" lon="4.81603">
        <ele>170</ele>
        <time>2018-06-13T13:59:04Z</time>
      </trkpt>
      <trkpt lat="45.91443" lon="4.81604">
        <ele>170</ele>
        <time>2018-06-13T13:59:05Z</time>
      </trkpt>
      <trkpt lat="45.91438" lon="4.81605">
        <ele>170</ele>
        <time>2018-06-13T13:59:06Z</time>
      </trkpt>
      <trkpt lat="45.91433" lon="4.81605">
        <ele>169</ele>
        <time>2018-06-13T13:59:07Z</time>
      </trkpt>
      <trkpt lat="45.91428" lon="4.81605">
        <ele>169</ele>
        <time>2018-06-13T13:59:08Z</time>
      </trkpt>
      <trkpt lat="45.91423" lon="4.81606">
        <ele>169</ele>
        <time>2018-06-13T13:59:09Z</time>
      </trkpt>
      <trkpt lat="45.91417" lon="4.81606">
        <ele>169</ele>
        <time>2018-06-13T13:59:10Z</time>
      </trkpt>
      <trkpt lat="45.9141" lon="4.81607">
        <ele>169</ele>
        <time>2018-06-13T13:59:11Z</time>
      </trkpt>
      <trkpt lat="45.91404" lon="4.81607">
        <ele>170</ele>
        <time>2018-06-13T13:59:12Z</time>
      </trkpt>
      <trkpt lat="45.91398" lon="4.81608">
        <ele>170</ele>
        <time>2018-06-13T13:59:13Z</time>
      </trkpt>
      <trkpt lat="45.91392" lon="4.81608">
        <ele>170</ele>
        <time>2018-06-13T13:59:14Z</time>
      </trkpt>
      <trkpt lat="45.91386" lon="4.81608">
        <ele>170</ele>
        <time>2018-06-13T13:59:15Z</time>
      </trkpt>
      <trkpt lat="45.91381" lon="4.81608">
        <ele>170</ele>
        <time>2018-06-13T13:59:16Z</time>
      </trkpt>
      <trkpt lat="45.91375" lon="4.81609">
        <ele>170</ele>
        <time>2018-06-13T13:59:17Z</time>
      </trkpt>
      <trkpt lat="45.91368" lon="4.81609">
        <ele>170</ele>
        <time>2018-06-13T13:59:18Z</time>
      </trkpt>
      <trkpt lat="45.91362" lon="4.81609">
        <ele>170</ele>
        <time>2018-06-13T13:59:19Z</time>
      </trkpt>
      <trkpt lat="45.91356" lon="4.81609">
        <ele>170</ele>
        <time>2018-06-13T13:59:21.963Z</time>
      </trkpt>
      <trkpt lat="45.91351" lon="4.81609">
        <ele>170</ele>
        <time>2018-06-13T13:59:21Z</time>
      </trkpt>
      <trkpt lat="45.91346" lon="4.81609">
        <ele>170</ele>
        <time>2018-06-13T13:59:22Z</time>
      </trkpt>
      <trkpt lat="45.9134" lon="4.81609">
        <ele>170</ele>
        <time>2018-06-13T13:59:23Z</time>
      </trkpt>
      <trkpt lat="45.91334" lon="4.8161">
        <ele>170</ele>
        <time>2018-06-13T13:59:24Z</time>
      </trkpt>
      <trkpt lat="45.91328" lon="4.8161">
        <ele>170</ele>
        <time>2018-06-13T13:59:25Z</time>
      </trkpt>
      <trkpt lat="45.91321" lon="4.8161">
        <ele>170</ele>
        <time>2018-06-13T13:59:26Z</time>
      </trkpt>
      <trkpt lat="45.91314" lon="4.8161">
        <ele>170</ele>
        <time>2018-06-13T13:59:27Z</time>
      </trkpt>
      <trkpt lat="45.91309" lon="4.8161">
        <ele>170</ele>
        <time>2018-06-13T13:59:28Z</time>
      </trkpt>
      <trkpt lat="45.91302" lon="4.8161">
        <ele>170</ele>
        <time>2018-06-13T13:59:29Z</time>
      </trkpt>
      <trkpt lat="45.91296" lon="4.8161">
        <ele>170</ele>
        <time>2018-06-13T13:59:30Z</time>
      </trkpt>
      <trkpt lat="45.9129" lon="4.81609">
        <ele>170</ele>
        <time>2018-06-13T13:59:31Z</time>
      </trkpt>
      <trkpt lat="45.91284" lon="4.81609">
        <ele>170</ele>
        <time>2018-06-13T13:59:32Z</time>
      </trkpt>
      <trkpt lat="45.91278" lon="4.8161">
        <ele>170</ele>
        <time>2018-06-13T13:59:33Z</time>
      </trkpt>
      <trkpt lat="45.91273" lon="4.8161">
        <ele>170</ele>
        <time>2018-06-13T13:59:34Z</time>
      </trkpt>
      <trkpt lat="45.91266" lon="4.8161">
        <ele>170</ele>
        <time>2018-06-13T13:59:35Z</time>
      </trkpt>
      <trkpt lat="45.91261" lon="4.81611">
        <ele>170</ele>
        <time>2018-06-13T13:59:36Z</time>
      </trkpt>
      <trkpt lat="45.91255" lon="4.8161">
        <ele>170</ele>
        <time>2018-06-13T13:59:37Z</time>
      </trkpt>
      <trkpt lat="45.91251" lon="4.8161">
        <ele>170</ele>
        <time>2018-06-13T13:59:38Z</time>
      </trkpt>
      <trkpt lat="45.91245" lon="4.8161">
        <ele>170</ele>
        <time>2018-06-13T13:59:39Z</time>
      </trkpt>
      <trkpt lat="45.91239" lon="4.81611">
        <ele>170</ele>
        <time>2018-06-13T13:59:40Z</time>
      </trkpt>
      <trkpt lat="45.91234" lon="4.8161">
        <ele>170</ele>
        <time>2018-06-13T13:59:41Z</time>
      </trkpt>
      <trkpt lat="45.91229" lon="4.81611">
        <ele>170</ele>
        <time>2018-06-13T13:59:42Z</time>
      </trkpt>
      <trkpt lat="45.91224" lon="4.81612">
        <ele>170</ele>
        <time>2018-06-13T13:59:43Z</time>
      </trkpt>
      <trkpt lat="45.91219" lon="4.81612">
        <ele>170</ele>
        <time>2018-06-13T13:59:44Z</time>
      </trkpt>
      <trkpt lat="45.91213" lon="4.81611">
        <ele>170</ele>
        <time>2018-06-13T13:59:45Z</time>
      </trkpt>
      <trkpt lat="45.91208" lon="4.81611">
        <ele>170</ele>
        <time>2018-06-13T13:59:46Z</time>
      </trkpt>
      <trkpt lat="45.91201" lon="4.81611">
        <ele>170</ele>
        <time>2018-06-13T13:59:47Z</time>
      </trkpt>
      <trkpt lat="45.91195" lon="4.8161">
        <ele>170</ele>
        <time>2018-06-13T13:59:48Z</time>
      </trkpt>
      <trkpt lat="45.91189" lon="4.81611">
        <ele>170</ele>
        <time>2018-06-13T13:59:49Z</time>
      </trkpt>
      <trkpt lat="45.91182" lon="4.81611">
        <ele>170</ele>
        <time>2018-06-13T13:59:50Z</time>
      </trkpt>
      <trkpt lat="45.91177" lon="4.81611">
        <ele>170</ele>
        <time>2018-06-13T13:59:51Z</time>
      </trkpt>
      <trkpt lat="45.91173" lon="4.81611">
        <ele>170</ele>
        <time>2018-06-13T13:59:52Z</time>
      </trkpt>
      <trkpt lat="45.91167" lon="4.81611">
        <ele>170</ele>
        <time>2018-06-13T13:59:53Z</time>
      </trkpt>
      <trkpt lat="45.91158" lon="4.8161">
        <ele>170</ele>
        <time>2018-06-13T13:59:55Z</time>
      </trkpt>
      <trkpt lat="45.91153" lon="4.8161">
        <ele>170</ele>
        <time>2018-06-13T13:59:56Z</time>
      </trkpt>
      <trkpt lat="45.91147" lon="4.81611">
        <ele>170</ele>
        <time>2018-06-13T13:59:57Z</time>
      </trkpt>
      <trkpt lat="45.9114" lon="4.8161">
        <ele>170</ele>
        <time>2018-06-13T13:59:58Z</time>
      </trkpt>
      <trkpt lat="45.91134" lon="4.81611">
        <ele>170</ele>
        <time>2018-06-13T13:59:59Z</time>
      </trkpt>
      <trkpt lat="45.9113" lon="4.8161">
        <ele>170</ele>
        <time>2018-06-13T14:00:00Z</time>
      </trkpt>
      <trkpt lat="45.91123" lon="4.81611">
        <ele>170</ele>
        <time>2018-06-13T14:00:01Z</time>
      </trkpt>
      <trkpt lat="45.91117" lon="4.81611">
        <ele>170</ele>
        <time>2018-06-13T14:00:02Z</time>
      </trkpt>
      <trkpt lat="45.91112" lon="4.81611">
        <ele>170</ele>
        <time>2018-06-13T14:00:03Z</time>
      </trkpt>
      <trkpt lat="45.91108" lon="4.81611">
        <ele>170</ele>
        <time>2018-06-13T14:00:04Z</time>
      </trkpt>
      <trkpt lat="45.91103" lon="4.81611">
        <ele>170</ele>
        <time>2018-06-13T14:00:05Z</time>
      </trkpt>
      <trkpt lat="45.91094" lon="4.81609">
        <ele>169</ele>
        <time>2018-06-13T14:00:06Z</time>
      </trkpt>
      <trkpt lat="45.91089" lon="4.81609">
        <ele>169</ele>
        <time>2018-06-13T14:00:07Z</time>
      </trkpt>
      <trkpt lat="45.91084" lon="4.81608">
        <ele>169</ele>
        <time>2018-06-13T14:00:08Z</time>
      </trkpt>
      <trkpt lat="45.9108" lon="4.81608">
        <ele>169</ele>
        <time>2018-06-13T14:00:09Z</time>
      </trkpt>
      <trkpt lat="45.91074" lon="4.81607">
        <ele>169</ele>
        <time>2018-06-13T14:00:10Z</time>
      </trkpt>
      <trkpt lat="45.91065" lon="4.81606">
        <ele>169</ele>
        <time>2018-06-13T14:00:12Z</time>
      </trkpt>
      <trkpt lat="45.9106" lon="4.81605">
        <ele>169</ele>
        <time>2018-06-13T14:00:13Z</time>
      </trkpt>
      <trkpt lat="45.91051" lon="4.81604">
        <ele>169</ele>
        <time>2018-06-13T14:00:15Z</time>
      </trkpt>
      <trkpt lat="45.91044" lon="4.81604">
        <ele>169</ele>
        <time>2018-06-13T14:00:16Z</time>
      </trkpt>
      <trkpt lat="45.91038" lon="4.81603">
        <ele>169</ele>
        <time>2018-06-13T14:00:17Z</time>
      </trkpt>
      <trkpt lat="45.91033" lon="4.81602">
        <ele>169</ele>
        <time>2018-06-13T14:00:18Z</time>
      </trkpt>
      <trkpt lat="45.91028" lon="4.81602">
        <ele>169</ele>
        <time>2018-06-13T14:00:19Z</time>
      </trkpt>
      <trkpt lat="45.91022" lon="4.81601">
        <ele>169</ele>
        <time>2018-06-13T14:00:20Z</time>
      </trkpt>
      <trkpt lat="45.91017" lon="4.81599">
        <ele>169</ele>
        <time>2018-06-13T14:00:21Z</time>
      </trkpt>
      <trkpt lat="45.91011" lon="4.81598">
        <ele>169</ele>
        <time>2018-06-13T14:00:22Z</time>
      </trkpt>
      <trkpt lat="45.91006" lon="4.81597">
        <ele>169</ele>
        <time>2018-06-13T14:00:23Z</time>
      </trkpt>
      <trkpt lat="45.91" lon="4.81597">
        <ele>169</ele>
        <time>2018-06-13T14:00:24Z</time>
      </trkpt>
      <trkpt lat="45.90995" lon="4.81597">
        <ele>169</ele>
        <time>2018-06-13T14:00:25Z</time>
      </trkpt>
      <trkpt lat="45.9099" lon="4.81595">
        <ele>169</ele>
        <time>2018-06-13T14:00:26Z</time>
      </trkpt>
      <trkpt lat="45.90985" lon="4.81594">
        <ele>169</ele>
        <time>2018-06-13T14:00:27Z</time>
      </trkpt>
      <trkpt lat="45.9098" lon="4.81593">
        <ele>169</ele>
        <time>2018-06-13T14:00:28Z</time>
      </trkpt>
      <trkpt lat="45.90975" lon="4.81592">
        <ele>169</ele>
        <time>2018-06-13T14:00:29Z</time>
      </trkpt>
      <trkpt lat="45.90971" lon="4.81591">
        <ele>169</ele>
        <time>2018-06-13T14:00:30Z</time>
      </trkpt>
      <trkpt lat="45.90965" lon="4.81591">
        <ele>169</ele>
        <time>2018-06-13T14:00:31Z</time>
      </trkpt>
      <trkpt lat="45.90961" lon="4.8159">
        <ele>169</ele>
        <time>2018-06-13T14:00:32Z</time>
      </trkpt>
      <trkpt lat="45.90956" lon="4.81589">
        <ele>169</ele>
        <time>2018-06-13T14:00:33Z</time>
      </trkpt>
      <trkpt lat="45.90951" lon="4.81588">
        <ele>169</ele>
        <time>2018-06-13T14:00:34Z</time>
      </trkpt>
      <trkpt lat="45.90942" lon="4.81587">
        <ele>170</ele>
        <time>2018-06-13T14:00:36Z</time>
      </trkpt>
      <trkpt lat="45.90938" lon="4.81586">
        <ele>170</ele>
        <time>2018-06-13T14:00:37Z</time>
      </trkpt>
      <trkpt lat="45.9093" lon="4.81585">
        <ele>170</ele>
        <time>2018-06-13T14:00:39Z</time>
      </trkpt>
      <trkpt lat="45.90924" lon="4.81584">
        <ele>170</ele>
        <time>2018-06-13T14:00:40Z</time>
      </trkpt>
      <trkpt lat="45.9092" lon="4.81583">
        <ele>170</ele>
        <time>2018-06-13T14:00:41Z</time>
      </trkpt>
      <trkpt lat="45.90915" lon="4.81582">
        <ele>170</ele>
        <time>2018-06-13T14:00:42Z</time>
      </trkpt>
      <trkpt lat="45.90908" lon="4.81581">
        <ele>170</ele>
        <time>2018-06-13T14:00:43Z</time>
      </trkpt>
      <trkpt lat="45.90902" lon="4.81581">
        <ele>170</ele>
        <time>2018-06-13T14:00:44Z</time>
      </trkpt>
      <trkpt lat="45.90897" lon="4.81581">
        <ele>170</ele>
        <time>2018-06-13T14:00:45Z</time>
      </trkpt>
      <trkpt lat="45.90893" lon="4.8158">
        <ele>170</ele>
        <time>2018-06-13T14:00:46Z</time>
      </trkpt>
      <trkpt lat="45.90887" lon="4.8158">
        <ele>170</ele>
        <time>2018-06-13T14:00:47Z</time>
      </trkpt>
      <trkpt lat="45.90882" lon="4.8158">
        <ele>171</ele>
        <time>2018-06-13T14:00:48Z</time>
      </trkpt>
      <trkpt lat="45.90877" lon="4.81581">
        <ele>171</ele>
        <time>2018-06-13T14:00:49Z</time>
      </trkpt>
      <trkpt lat="45.90871" lon="4.81582">
        <ele>171</ele>
        <time>2018-06-13T14:00:50Z</time>
      </trkpt>
      <trkpt lat="45.90866" lon="4.81582">
        <ele>171</ele>
        <time>2018-06-13T14:00:51Z</time>
      </trkpt>
      <trkpt lat="45.9086" lon="4.81582">
        <ele>171</ele>
        <time>2018-06-13T14:00:52Z</time>
      </trkpt>
      <trkpt lat="45.90855" lon="4.81582">
        <ele>171</ele>
        <time>2018-06-13T14:00:53Z</time>
      </trkpt>
      <trkpt lat="45.90849" lon="4.81583">
        <ele>172</ele>
        <time>2018-06-13T14:00:54Z</time>
      </trkpt>
      <trkpt lat="45.90844" lon="4.81583">
        <ele>172</ele>
        <time>2018-06-13T14:00:55Z</time>
      </trkpt>
      <trkpt lat="45.9084" lon="4.81583">
        <ele>173</ele>
        <time>2018-06-13T14:00:56Z</time>
      </trkpt>
      <trkpt lat="45.90833" lon="4.81581">
        <ele>173</ele>
        <time>2018-06-13T14:00:58Z</time>
      </trkpt>
      <trkpt lat="45.9083" lon="4.8158">
        <ele>173</ele>
        <time>2018-06-13T14:00:59Z</time>
      </trkpt>
      <trkpt lat="45.90823" lon="4.81579">
        <ele>173</ele>
        <time>2018-06-13T14:01:01Z</time>
      </trkpt>
      <trkpt lat="45.90818" lon="4.81579">
        <ele>173</ele>
        <time>2018-06-13T14:01:02Z</time>
      </trkpt>
      <trkpt lat="45.90814" lon="4.8158">
        <ele>173</ele>
        <time>2018-06-13T14:01:03Z</time>
      </trkpt>
      <trkpt lat="45.90809" lon="4.8158">
        <ele>172</ele>
        <time>2018-06-13T14:01:04Z</time>
      </trkpt>
      <trkpt lat="45.90803" lon="4.8158">
        <ele>172</ele>
        <time>2018-06-13T14:01:05Z</time>
      </trkpt>
      <trkpt lat="45.90799" lon="4.8158">
        <ele>172</ele>
        <time>2018-06-13T14:01:06Z</time>
      </trkpt>
      <trkpt lat="45.90791" lon="4.81581">
        <ele>173</ele>
        <time>2018-06-13T14:01:08Z</time>
      </trkpt>
      <trkpt lat="45.90789" lon="4.81581">
        <ele>173</ele>
        <time>2018-06-13T14:01:09Z</time>
      </trkpt>
      <trkpt lat="45.90783" lon="4.8158">
        <ele>173</ele>
        <time>2018-06-13T14:01:10Z</time>
      </trkpt>
      <trkpt lat="45.90779" lon="4.8158">
        <ele>173</ele>
        <time>2018-06-13T14:01:11Z</time>
      </trkpt>
      <trkpt lat="45.90771" lon="4.8158">
        <ele>173</ele>
        <time>2018-06-13T14:01:13Z</time>
      </trkpt>
      <trkpt lat="45.90768" lon="4.8158">
        <ele>173</ele>
        <time>2018-06-13T14:01:14Z</time>
      </trkpt>
      <trkpt lat="45.9076" lon="4.81581">
        <ele>173</ele>
        <time>2018-06-13T14:01:16Z</time>
      </trkpt>
      <trkpt lat="45.90755" lon="4.81582">
        <ele>174</ele>
        <time>2018-06-13T14:01:17Z</time>
      </trkpt>
      <trkpt lat="45.90747" lon="4.81582">
        <ele>174</ele>
        <time>2018-06-13T14:01:19Z</time>
      </trkpt>
      <trkpt lat="45.90743" lon="4.81582">
        <ele>174</ele>
        <time>2018-06-13T14:01:20Z</time>
      </trkpt>
      <trkpt lat="45.90738" lon="4.81583">
        <ele>174</ele>
        <time>2018-06-13T14:01:22Z</time>
      </trkpt>
      <trkpt lat="45.90732" lon="4.81584">
        <ele>176</ele>
        <time>2018-06-13T14:01:23Z</time>
      </trkpt>
      <trkpt lat="45.90725" lon="4.81584">
        <ele>177</ele>
        <time>2018-06-13T14:01:26Z</time>
      </trkpt>
      <trkpt lat="45.90722" lon="4.81584">
        <ele>177</ele>
        <time>2018-06-13T14:01:27Z</time>
      </trkpt>
      <trkpt lat="45.90716" lon="4.81584">
        <ele>177</ele>
        <time>2018-06-13T14:01:29Z</time>
      </trkpt>
      <trkpt lat="45.90713" lon="4.81584">
        <ele>178</ele>
        <time>2018-06-13T14:01:30Z</time>
      </trkpt>
      <trkpt lat="45.90706" lon="4.81584">
        <ele>178</ele>
        <time>2018-06-13T14:01:32Z</time>
      </trkpt>
      <trkpt lat="45.90703" lon="4.81584">
        <ele>178</ele>
        <time>2018-06-13T14:01:33Z</time>
      </trkpt>
      <trkpt lat="45.90696" lon="4.81584">
        <ele>178</ele>
        <time>2018-06-13T14:01:35Z</time>
      </trkpt>
      <trkpt lat="45.90693" lon="4.81584">
        <ele>178</ele>
        <time>2018-06-13T14:01:36Z</time>
      </trkpt>
      <trkpt lat="45.90687" lon="4.81584">
        <ele>178</ele>
        <time>2018-06-13T14:01:38Z</time>
      </trkpt>
      <trkpt lat="45.90684" lon="4.81584">
        <ele>179</ele>
        <time>2018-06-13T14:01:39Z</time>
      </trkpt>
      <trkpt lat="45.90677" lon="4.81584">
        <ele>179</ele>
        <time>2018-06-13T14:01:41Z</time>
      </trkpt>
      <trkpt lat="45.90673" lon="4.81584">
        <ele>179</ele>
        <time>2018-06-13T14:01:42Z</time>
      </trkpt>
      <trkpt lat="45.90667" lon="4.81584">
        <ele>179</ele>
        <time>2018-06-13T14:01:44Z</time>
      </trkpt>
      <trkpt lat="45.90664" lon="4.81584">
        <ele>179</ele>
        <time>2018-06-13T14:01:45Z</time>
      </trkpt>
      <trkpt lat="45.90656" lon="4.81584">
        <ele>180</ele>
        <time>2018-06-13T14:01:47Z</time>
      </trkpt>
      <trkpt lat="45.90653" lon="4.81584">
        <ele>180</ele>
        <time>2018-06-13T14:01:48Z</time>
      </trkpt>
      <trkpt lat="45.90647" lon="4.81585">
        <ele>181</ele>
        <time>2018-06-13T14:01:50Z</time>
      </trkpt>
      <trkpt lat="45.90639" lon="4.81586">
        <ele>181</ele>
        <time>2018-06-13T14:01:51Z</time>
      </trkpt>
      <trkpt lat="45.90631" lon="4.81587">
        <ele>181</ele>
        <time>2018-06-13T14:01:55Z</time>
      </trkpt>
      <trkpt lat="45.90628" lon="4.81587">
        <ele>181</ele>
        <time>2018-06-13T14:01:56Z</time>
      </trkpt>
      <trkpt lat="45.90619" lon="4.81588">
        <ele>181</ele>
        <time>2018-06-13T14:01:59Z</time>
      </trkpt>
      <trkpt lat="45.90616" lon="4.81588">
        <ele>182</ele>
        <time>2018-06-13T14:02:00Z</time>
      </trkpt>
      <trkpt lat="45.90607" lon="4.81588">
        <ele>182</ele>
        <time>2018-06-13T14:02:03Z</time>
      </trkpt>
      <trkpt lat="45.90604" lon="4.81588">
        <ele>182</ele>
        <time>2018-06-13T14:02:04Z</time>
      </trkpt>
      <trkpt lat="45.90596" lon="4.81587">
        <ele>182</ele>
        <time>2018-06-13T14:02:07Z</time>
      </trkpt>
      <trkpt lat="45.90593" lon="4.81588">
        <ele>182</ele>
        <time>2018-06-13T14:02:08Z</time>
      </trkpt>
      <trkpt lat="45.90586" lon="4.81588">
        <ele>182</ele>
        <time>2018-06-13T14:02:11Z</time>
      </trkpt>
      <trkpt lat="45.90583" lon="4.81589">
        <ele>182</ele>
        <time>2018-06-13T14:02:12Z</time>
      </trkpt>
      <trkpt lat="45.90576" lon="4.81589">
        <ele>182</ele>
        <time>2018-06-13T14:02:15Z</time>
      </trkpt>
      <trkpt lat="45.90573" lon="4.81589">
        <ele>182</ele>
        <time>2018-06-13T14:02:16Z</time>
      </trkpt>
      <trkpt lat="45.90567" lon="4.81589">
        <ele>182</ele>
        <time>2018-06-13T14:02:18Z</time>
      </trkpt>
      <trkpt lat="45.90563" lon="4.81589">
        <ele>182</ele>
        <time>2018-06-13T14:02:19Z</time>
      </trkpt>
      <trkpt lat="45.90557" lon="4.81589">
        <ele>182</ele>
        <time>2018-06-13T14:02:21Z</time>
      </trkpt>
      <trkpt lat="45.90553" lon="4.81589">
        <ele>182</ele>
        <time>2018-06-13T14:02:22Z</time>
      </trkpt>
      <trkpt lat="45.9055" lon="4.81589">
        <ele>182</ele>
        <time>2018-06-13T14:02:23Z</time>
      </trkpt>
      <trkpt lat="45.90541" lon="4.81589">
        <ele>182</ele>
        <time>2018-06-13T14:02:24Z</time>
      </trkpt>
      <trkpt lat="45.90533" lon="4.8159">
        <ele>182</ele>
        <time>2018-06-13T14:02:26Z</time>
      </trkpt>
      <trkpt lat="45.90528" lon="4.8159">
        <ele>182</ele>
        <time>2018-06-13T14:02:27Z</time>
      </trkpt>
      <trkpt lat="45.90521" lon="4.8159">
        <ele>182</ele>
        <time>2018-06-13T14:02:29Z</time>
      </trkpt>
      <trkpt lat="45.90517" lon="4.8159">
        <ele>182</ele>
        <time>2018-06-13T14:02:30Z</time>
      </trkpt>
      <trkpt lat="45.90509" lon="4.81591">
        <ele>182</ele>
        <time>2018-06-13T14:02:32Z</time>
      </trkpt>
      <trkpt lat="45.90507" lon="4.81592">
        <ele>182</ele>
        <time>2018-06-13T14:02:33Z</time>
      </trkpt>
      <trkpt lat="45.90499" lon="4.81593">
        <ele>181</ele>
        <time>2018-06-13T14:02:36Z</time>
      </trkpt>
      <trkpt lat="45.90495" lon="4.81594">
        <ele>181</ele>
        <time>2018-06-13T14:02:37Z</time>
      </trkpt>
      <trkpt lat="45.90489" lon="4.81595">
        <ele>182</ele>
        <time>2018-06-13T14:02:39Z</time>
      </trkpt>
      <trkpt lat="45.90486" lon="4.81595">
        <ele>182</ele>
        <time>2018-06-13T14:02:40Z</time>
      </trkpt>
      <trkpt lat="45.90483" lon="4.81595">
        <ele>182</ele>
        <time>2018-06-13T14:02:41Z</time>
      </trkpt>
      <trkpt lat="45.90474" lon="4.81596">
        <ele>182</ele>
        <time>2018-06-13T14:02:42Z</time>
      </trkpt>
      <trkpt lat="45.90467" lon="4.81596">
        <ele>182</ele>
        <time>2018-06-13T14:02:45Z</time>
      </trkpt>
      <trkpt lat="45.9046" lon="4.81596">
        <ele>182</ele>
        <time>2018-06-13T14:02:46Z</time>
      </trkpt>
      <trkpt lat="45.90453" lon="4.81595">
        <ele>182</ele>
        <time>2018-06-13T14:02:49Z</time>
      </trkpt>
      <trkpt lat="45.9045" lon="4.81595">
        <ele>182</ele>
        <time>2018-06-13T14:02:50Z</time>
      </trkpt>
      <trkpt lat="45.90442" lon="4.81594">
        <ele>182</ele>
        <time>2018-06-13T14:02:53Z</time>
      </trkpt>
      <trkpt lat="45.90439" lon="4.81594">
        <ele>182</ele>
        <time>2018-06-13T14:02:54Z</time>
      </trkpt>
      <trkpt lat="45.9043" lon="4.81595">
        <ele>182</ele>
        <time>2018-06-13T14:02:55Z</time>
      </trkpt>
      <trkpt lat="45.90423" lon="4.81596">
        <ele>182</ele>
        <time>2018-06-13T14:02:56Z</time>
      </trkpt>
      <trkpt lat="45.90418" lon="4.81597">
        <ele>182</ele>
        <time>2018-06-13T14:02:57Z</time>
      </trkpt>
      <trkpt lat="45.90413" lon="4.81598">
        <ele>182</ele>
        <time>2018-06-13T14:02:58Z</time>
      </trkpt>
      <trkpt lat="45.90408" lon="4.81599">
        <ele>182</ele>
        <time>2018-06-13T14:02:59Z</time>
      </trkpt>
      <trkpt lat="45.90404" lon="4.816">
        <ele>182</ele>
        <time>2018-06-13T14:03:00Z</time>
      </trkpt>
      <trkpt lat="45.90396" lon="4.81603">
        <ele>182</ele>
        <time>2018-06-13T14:03:02Z</time>
      </trkpt>
      <trkpt lat="45.90391" lon="4.81604">
        <ele>182</ele>
        <time>2018-06-13T14:03:03Z</time>
      </trkpt>
      <trkpt lat="45.90383" lon="4.81606">
        <ele>182</ele>
        <time>2018-06-13T14:03:05Z</time>
      </trkpt>
      <trkpt lat="45.90379" lon="4.81608">
        <ele>182</ele>
        <time>2018-06-13T14:03:06Z</time>
      </trkpt>
      <trkpt lat="45.90371" lon="4.8161">
        <ele>182</ele>
        <time>2018-06-13T14:03:08Z</time>
      </trkpt>
      <trkpt lat="45.90367" lon="4.81612">
        <ele>182</ele>
        <time>2018-06-13T14:03:09Z</time>
      </trkpt>
      <trkpt lat="45.90358" lon="4.81613">
        <ele>182</ele>
        <time>2018-06-13T14:03:11Z</time>
      </trkpt>
      <trkpt lat="45.90354" lon="4.81614">
        <ele>182</ele>
        <time>2018-06-13T14:03:12Z</time>
      </trkpt>
      <trkpt lat="45.90346" lon="4.81616">
        <ele>182</ele>
        <time>2018-06-13T14:03:14Z</time>
      </trkpt>
      <trkpt lat="45.90341" lon="4.81617">
        <ele>182</ele>
        <time>2018-06-13T14:03:15Z</time>
      </trkpt>
      <trkpt lat="45.90334" lon="4.81618">
        <ele>182</ele>
        <time>2018-06-13T14:03:17Z</time>
      </trkpt>
      <trkpt lat="45.9033" lon="4.81619">
        <ele>182</ele>
        <time>2018-06-13T14:03:18Z</time>
      </trkpt>
      <trkpt lat="45.90323" lon="4.8162">
        <ele>182</ele>
        <time>2018-06-13T14:03:21Z</time>
      </trkpt>
      <trkpt lat="45.90317" lon="4.81621">
        <ele>182</ele>
        <time>2018-06-13T14:03:22Z</time>
      </trkpt>
      <trkpt lat="45.9031" lon="4.81623">
        <ele>182</ele>
        <time>2018-06-13T14:03:24Z</time>
      </trkpt>
      <trkpt lat="45.90306" lon="4.81623">
        <ele>182</ele>
        <time>2018-06-13T14:03:25Z</time>
      </trkpt>
      <trkpt lat="45.90298" lon="4.81619">
        <ele>182</ele>
        <time>2018-06-13T14:03:27Z</time>
      </trkpt>
      <trkpt lat="45.90294" lon="4.81617">
        <ele>182</ele>
        <time>2018-06-13T14:03:28Z</time>
      </trkpt>
      <trkpt lat="45.90288" lon="4.81615">
        <ele>182</ele>
        <time>2018-06-13T14:03:30Z</time>
      </trkpt>
      <trkpt lat="45.90283" lon="4.81615">
        <ele>182</ele>
        <time>2018-06-13T14:03:31Z</time>
      </trkpt>
      <trkpt lat="45.90278" lon="4.81617">
        <ele>182</ele>
        <time>2018-06-13T14:03:32Z</time>
      </trkpt>
      <trkpt lat="45.90274" lon="4.8162">
        <ele>182</ele>
        <time>2018-06-13T14:03:33Z</time>
      </trkpt>
      <trkpt lat="45.9027" lon="4.81622">
        <ele>182</ele>
        <time>2018-06-13T14:03:34Z</time>
      </trkpt>
      <trkpt lat="45.90265" lon="4.81624">
        <ele>182</ele>
        <time>2018-06-13T14:03:35Z</time>
      </trkpt>
      <trkpt lat="45.9026" lon="4.81625">
        <ele>182</ele>
        <time>2018-06-13T14:03:36Z</time>
      </trkpt>
      <trkpt lat="45.90255" lon="4.81627">
        <ele>182</ele>
        <time>2018-06-13T14:03:37Z</time>
      </trkpt>
      <trkpt lat="45.9025" lon="4.81627">
        <ele>180</ele>
        <time>2018-06-13T14:03:38Z</time>
      </trkpt>
      <trkpt lat="45.90245" lon="4.81627">
        <ele>180</ele>
        <time>2018-06-13T14:03:39Z</time>
      </trkpt>
      <trkpt lat="45.9024" lon="4.81628">
        <ele>180</ele>
        <time>2018-06-13T14:03:40Z</time>
      </trkpt>
      <trkpt lat="45.90235" lon="4.81629">
        <ele>180</ele>
        <time>2018-06-13T14:03:41Z</time>
      </trkpt>
      <trkpt lat="45.9023" lon="4.81629">
        <ele>180</ele>
        <time>2018-06-13T14:03:42Z</time>
      </trkpt>
      <trkpt lat="45.90224" lon="4.8163">
        <ele>180</ele>
        <time>2018-06-13T14:03:43Z</time>
      </trkpt>
      <trkpt lat="45.90219" lon="4.81631">
        <ele>180</ele>
        <time>2018-06-13T14:03:44Z</time>
      </trkpt>
      <trkpt lat="45.90214" lon="4.81633">
        <ele>180</ele>
        <time>2018-06-13T14:03:45Z</time>
      </trkpt>
      <trkpt lat="45.90208" lon="4.81633">
        <ele>180</ele>
        <time>2018-06-13T14:03:47Z</time>
      </trkpt>
      <trkpt lat="45.90199" lon="4.81638">
        <ele>180</ele>
        <time>2018-06-13T14:03:48Z</time>
      </trkpt>
      <trkpt lat="45.9019" lon="4.81641">
        <ele>180</ele>
        <time>2018-06-13T14:03:49Z</time>
      </trkpt>
      <trkpt lat="45.90186" lon="4.81631">
        <ele>180</ele>
        <time>2018-06-13T14:03:50Z</time>
      </trkpt>
      <trkpt lat="45.90179" lon="4.81636">
        <ele>180</ele>
        <time>2018-06-13T14:03:51Z</time>
      </trkpt>
      <trkpt lat="45.90174" lon="4.81639">
        <ele>180</ele>
        <time>2018-06-13T14:03:52Z</time>
      </trkpt>
      <trkpt lat="45.90168" lon="4.81641">
        <ele>180</ele>
        <time>2018-06-13T14:03:53Z</time>
      </trkpt>
      <trkpt lat="45.90162" lon="4.81641">
        <ele>179</ele>
        <time>2018-06-13T14:03:54Z</time>
      </trkpt>
      <trkpt lat="45.90157" lon="4.8164">
        <ele>179</ele>
        <time>2018-06-13T14:03:55Z</time>
      </trkpt>
      <trkpt lat="45.9015" lon="4.8164">
        <ele>179</ele>
        <time>2018-06-13T14:03:56Z</time>
      </trkpt>
      <trkpt lat="45.90144" lon="4.81642">
        <ele>179</ele>
        <time>2018-06-13T14:03:57Z</time>
      </trkpt>
      <trkpt lat="45.90139" lon="4.81643">
        <ele>179</ele>
        <time>2018-06-13T14:03:58Z</time>
      </trkpt>
      <trkpt lat="45.90133" lon="4.81644">
        <ele>179</ele>
        <time>2018-06-13T14:03:59Z</time>
      </trkpt>
      <trkpt lat="45.90129" lon="4.81646">
        <ele>179</ele>
        <time>2018-06-13T14:04:00Z</time>
      </trkpt>
      <trkpt lat="45.90123" lon="4.81648">
        <ele>179</ele>
        <time>2018-06-13T14:04:01Z</time>
      </trkpt>
      <trkpt lat="45.90117" lon="4.81648">
        <ele>179</ele>
        <time>2018-06-13T14:04:02Z</time>
      </trkpt>
      <trkpt lat="45.9011" lon="4.81647">
        <ele>179</ele>
        <time>2018-06-13T14:04:03Z</time>
      </trkpt>
      <trkpt lat="45.90104" lon="4.81648">
        <ele>179</ele>
        <time>2018-06-13T14:04:04Z</time>
      </trkpt>
      <trkpt lat="45.901" lon="4.8165">
        <ele>179</ele>
        <time>2018-06-13T14:04:05Z</time>
      </trkpt>
      <trkpt lat="45.90094" lon="4.8165">
        <ele>179</ele>
        <time>2018-06-13T14:04:06Z</time>
      </trkpt>
      <trkpt lat="45.90088" lon="4.81651">
        <ele>179</ele>
        <time>2018-06-13T14:04:07Z</time>
      </trkpt>
      <trkpt lat="45.90083" lon="4.81651">
        <ele>178</ele>
        <time>2018-06-13T14:04:08Z</time>
      </trkpt>
      <trkpt lat="45.90077" lon="4.81654">
        <ele>178</ele>
        <time>2018-06-13T14:04:09Z</time>
      </trkpt>
      <trkpt lat="45.90071" lon="4.81657">
        <ele>178</ele>
        <time>2018-06-13T14:04:10Z</time>
      </trkpt>
      <trkpt lat="45.90065" lon="4.8166">
        <ele>178</ele>
        <time>2018-06-13T14:04:11Z</time>
      </trkpt>
      <trkpt lat="45.90057" lon="4.81663">
        <ele>177</ele>
        <time>2018-06-13T14:04:13Z</time>
      </trkpt>
      <trkpt lat="45.90051" lon="4.81665">
        <ele>177</ele>
        <time>2018-06-13T14:04:14Z</time>
      </trkpt>
      <trkpt lat="45.90046" lon="4.81667">
        <ele>178</ele>
        <time>2018-06-13T14:04:15Z</time>
      </trkpt>
      <trkpt lat="45.90042" lon="4.81669">
        <ele>178</ele>
        <time>2018-06-13T14:04:16Z</time>
      </trkpt>
      <trkpt lat="45.90036" lon="4.81674">
        <ele>178</ele>
        <time>2018-06-13T14:04:17Z</time>
      </trkpt>
      <trkpt lat="45.90031" lon="4.81676">
        <ele>178</ele>
        <time>2018-06-13T14:04:18Z</time>
      </trkpt>
      <trkpt lat="45.90024" lon="4.81679">
        <ele>177</ele>
        <time>2018-06-13T14:04:20Z</time>
      </trkpt>
      <trkpt lat="45.90017" lon="4.81682">
        <ele>177</ele>
        <time>2018-06-13T14:04:21Z</time>
      </trkpt>
      <trkpt lat="45.90013" lon="4.81684">
        <ele>177</ele>
        <time>2018-06-13T14:04:22Z</time>
      </trkpt>
      <trkpt lat="45.90008" lon="4.81686">
        <ele>177</ele>
        <time>2018-06-13T14:04:23Z</time>
      </trkpt>
      <trkpt lat="45.9" lon="4.81691">
        <ele>176</ele>
        <time>2018-06-13T14:04:25Z</time>
      </trkpt>
      <trkpt lat="45.89996" lon="4.81693">
        <ele>176</ele>
        <time>2018-06-13T14:04:26Z</time>
      </trkpt>
      <trkpt lat="45.89991" lon="4.81696">
        <ele>176</ele>
        <time>2018-06-13T14:04:27Z</time>
      </trkpt>
      <trkpt lat="45.89986" lon="4.81699">
        <ele>176</ele>
        <time>2018-06-13T14:04:28Z</time>
      </trkpt>
      <trkpt lat="45.89978" lon="4.81702">
        <ele>176</ele>
        <time>2018-06-13T14:04:30Z</time>
      </trkpt>
      <trkpt lat="45.89974" lon="4.81705">
        <ele>176</ele>
        <time>2018-06-13T14:04:31Z</time>
      </trkpt>
      <trkpt lat="45.89966" lon="4.81709">
        <ele>176</ele>
        <time>2018-06-13T14:04:33Z</time>
      </trkpt>
      <trkpt lat="45.89961" lon="4.81711">
        <ele>176</ele>
        <time>2018-06-13T14:04:34Z</time>
      </trkpt>
      <trkpt lat="45.89956" lon="4.81711">
        <ele>176</ele>
        <time>2018-06-13T14:04:35Z</time>
      </trkpt>
      <trkpt lat="45.89951" lon="4.81711">
        <ele>176</ele>
        <time>2018-06-13T14:04:36Z</time>
      </trkpt>
      <trkpt lat="45.89942" lon="4.81708">
        <ele>176</ele>
        <time>2018-06-13T14:04:38Z</time>
      </trkpt>
      <trkpt lat="45.89938" lon="4.81709">
        <ele>176</ele>
        <time>2018-06-13T14:04:39Z</time>
      </trkpt>
      <trkpt lat="45.89933" lon="4.81709">
        <ele>176</ele>
        <time>2018-06-13T14:04:40Z</time>
      </trkpt>
      <trkpt lat="45.89928" lon="4.8171">
        <ele>176</ele>
        <time>2018-06-13T14:04:41Z</time>
      </trkpt>
      <trkpt lat="45.89924" lon="4.81712">
        <ele>176</ele>
        <time>2018-06-13T14:04:42Z</time>
      </trkpt>
      <trkpt lat="45.89919" lon="4.81716">
        <ele>176</ele>
        <time>2018-06-13T14:04:43Z</time>
      </trkpt>
      <trkpt lat="45.89915" lon="4.8172">
        <ele>175</ele>
        <time>2018-06-13T14:04:44Z</time>
      </trkpt>
      <trkpt lat="45.89912" lon="4.81726">
        <ele>176</ele>
        <time>2018-06-13T14:04:45Z</time>
      </trkpt>
      <trkpt lat="45.8991" lon="4.81738">
        <ele>176</ele>
        <time>2018-06-13T14:04:47Z</time>
      </trkpt>
      <trkpt lat="45.89908" lon="4.81744">
        <ele>176</ele>
        <time>2018-06-13T14:04:48Z</time>
      </trkpt>
      <trkpt lat="45.89905" lon="4.81751">
        <ele>176</ele>
        <time>2018-06-13T14:04:49Z</time>
      </trkpt>
      <trkpt lat="45.89903" lon="4.81756">
        <ele>176</ele>
        <time>2018-06-13T14:04:50Z</time>
      </trkpt>
      <trkpt lat="45.89899" lon="4.81761">
        <ele>176</ele>
        <time>2018-06-13T14:04:51Z</time>
      </trkpt>
      <trkpt lat="45.89895" lon="4.81766">
        <ele>176</ele>
        <time>2018-06-13T14:04:52Z</time>
      </trkpt>
      <trkpt lat="45.8989" lon="4.8177">
        <ele>176</ele>
        <time>2018-06-13T14:04:53Z</time>
      </trkpt>
      <trkpt lat="45.89885" lon="4.81774">
        <ele>176</ele>
        <time>2018-06-13T14:04:54Z</time>
      </trkpt>
      <trkpt lat="45.8988" lon="4.8178">
        <ele>176</ele>
        <time>2018-06-13T14:04:55Z</time>
      </trkpt>
      <trkpt lat="45.89876" lon="4.81783">
        <ele>176</ele>
        <time>2018-06-13T14:04:56Z</time>
      </trkpt>
      <trkpt lat="45.89872" lon="4.81789">
        <ele>175</ele>
        <time>2018-06-13T14:04:57Z</time>
      </trkpt>
      <trkpt lat="45.89867" lon="4.81793">
        <ele>175</ele>
        <time>2018-06-13T14:04:58Z</time>
      </trkpt>
      <trkpt lat="45.89861" lon="4.81802">
        <ele>175</ele>
        <time>2018-06-13T14:05:00Z</time>
      </trkpt>
      <trkpt lat="45.89856" lon="4.81806">
        <ele>175</ele>
        <time>2018-06-13T14:05:01Z</time>
      </trkpt>
      <trkpt lat="45.89851" lon="4.8181">
        <ele>175</ele>
        <time>2018-06-13T14:05:02Z</time>
      </trkpt>
      <trkpt lat="45.89847" lon="4.81814">
        <ele>175</ele>
        <time>2018-06-13T14:05:03Z</time>
      </trkpt>
      <trkpt lat="45.89841" lon="4.81823">
        <ele>175</ele>
        <time>2018-06-13T14:05:05Z</time>
      </trkpt>
      <trkpt lat="45.89837" lon="4.81827">
        <ele>174</ele>
        <time>2018-06-13T14:05:06Z</time>
      </trkpt>
      <trkpt lat="45.89831" lon="4.81831">
        <ele>174</ele>
        <time>2018-06-13T14:05:07Z</time>
      </trkpt>
      <trkpt lat="45.89828" lon="4.81837">
        <ele>174</ele>
        <time>2018-06-13T14:05:08Z</time>
      </trkpt>
      <trkpt lat="45.89824" lon="4.81841">
        <ele>174</ele>
        <time>2018-06-13T14:05:09Z</time>
      </trkpt>
      <trkpt lat="45.8982" lon="4.81845">
        <ele>174</ele>
        <time>2018-06-13T14:05:10Z</time>
      </trkpt>
      <trkpt lat="45.89816" lon="4.8185">
        <ele>174</ele>
        <time>2018-06-13T14:05:11Z</time>
      </trkpt>
      <trkpt lat="45.89813" lon="4.81855">
        <ele>174</ele>
        <time>2018-06-13T14:05:12Z</time>
      </trkpt>
      <trkpt lat="45.89808" lon="4.81859">
        <ele>174</ele>
        <time>2018-06-13T14:05:13Z</time>
      </trkpt>
      <trkpt lat="45.89804" lon="4.81861">
        <ele>174</ele>
        <time>2018-06-13T14:05:14Z</time>
      </trkpt>
      <trkpt lat="45.898" lon="4.81864">
        <ele>174</ele>
        <time>2018-06-13T14:05:15Z</time>
      </trkpt>
      <trkpt lat="45.89796" lon="4.81868">
        <ele>174</ele>
        <time>2018-06-13T14:05:16Z</time>
      </trkpt>
      <trkpt lat="45.89791" lon="4.81872">
        <ele>174</ele>
        <time>2018-06-13T14:05:17Z</time>
      </trkpt>
      <trkpt lat="45.89786" lon="4.81876">
        <ele>174</ele>
        <time>2018-06-13T14:05:18Z</time>
      </trkpt>
      <trkpt lat="45.89781" lon="4.8188">
        <ele>174</ele>
        <time>2018-06-13T14:05:19Z</time>
      </trkpt>
      <trkpt lat="45.89777" lon="4.81882">
        <ele>174</ele>
        <time>2018-06-13T14:05:20Z</time>
      </trkpt>
      <trkpt lat="45.89773" lon="4.81886">
        <ele>174</ele>
        <time>2018-06-13T14:05:21Z</time>
      </trkpt>
      <trkpt lat="45.89769" lon="4.81889">
        <ele>174</ele>
        <time>2018-06-13T14:05:22Z</time>
      </trkpt>
      <trkpt lat="45.89766" lon="4.81893">
        <ele>174</ele>
        <time>2018-06-13T14:05:23Z</time>
      </trkpt>
      <trkpt lat="45.89761" lon="4.81896">
        <ele>174</ele>
        <time>2018-06-13T14:05:24Z</time>
      </trkpt>
      <trkpt lat="45.89757" lon="4.81899">
        <ele>174</ele>
        <time>2018-06-13T14:05:25Z</time>
      </trkpt>
      <trkpt lat="45.89752" lon="4.81901">
        <ele>174</ele>
        <time>2018-06-13T14:05:26Z</time>
      </trkpt>
      <trkpt lat="45.89748" lon="4.81905">
        <ele>173</ele>
        <time>2018-06-13T14:05:27Z</time>
      </trkpt>
      <trkpt lat="45.89744" lon="4.81908">
        <ele>173</ele>
        <time>2018-06-13T14:05:28Z</time>
      </trkpt>
      <trkpt lat="45.89739" lon="4.8191">
        <ele>173</ele>
        <time>2018-06-13T14:05:29Z</time>
      </trkpt>
      <trkpt lat="45.89735" lon="4.81913">
        <ele>173</ele>
        <time>2018-06-13T14:05:30Z</time>
      </trkpt>
      <trkpt lat="45.89731" lon="4.81917">
        <ele>173</ele>
        <time>2018-06-13T14:05:31Z</time>
      </trkpt>
      <trkpt lat="45.89726" lon="4.81921">
        <ele>173</ele>
        <time>2018-06-13T14:05:32Z</time>
      </trkpt>
      <trkpt lat="45.89721" lon="4.81923">
        <ele>173</ele>
        <time>2018-06-13T14:05:33Z</time>
      </trkpt>
      <trkpt lat="45.89717" lon="4.81927">
        <ele>173</ele>
        <time>2018-06-13T14:05:34Z</time>
      </trkpt>
      <trkpt lat="45.89712" lon="4.81931">
        <ele>173</ele>
        <time>2018-06-13T14:05:35Z</time>
      </trkpt>
      <trkpt lat="45.89708" lon="4.81935">
        <ele>173</ele>
        <time>2018-06-13T14:05:36Z</time>
      </trkpt>
      <trkpt lat="45.89703" lon="4.81943">
        <ele>173</ele>
        <time>2018-06-13T14:05:38Z</time>
      </trkpt>
      <trkpt lat="45.89699" lon="4.81945">
        <ele>173</ele>
        <time>2018-06-13T14:05:39Z</time>
      </trkpt>
      <trkpt lat="45.89691" lon="4.81951">
        <ele>173</ele>
        <time>2018-06-13T14:05:41Z</time>
      </trkpt>
      <trkpt lat="45.89687" lon="4.81954">
        <ele>173</ele>
        <time>2018-06-13T14:05:42Z</time>
      </trkpt>
      <trkpt lat="45.89679" lon="4.81961">
        <ele>173</ele>
        <time>2018-06-13T14:05:44Z</time>
      </trkpt>
      <trkpt lat="45.89675" lon="4.81964">
        <ele>173</ele>
        <time>2018-06-13T14:05:45Z</time>
      </trkpt>
      <trkpt lat="45.89668" lon="4.8197">
        <ele>173</ele>
        <time>2018-06-13T14:05:47Z</time>
      </trkpt>
      <trkpt lat="45.89663" lon="4.81972">
        <ele>172</ele>
        <time>2018-06-13T14:05:48Z</time>
      </trkpt>
      <trkpt lat="45.89659" lon="4.81977">
        <ele>172</ele>
        <time>2018-06-13T14:05:49Z</time>
      </trkpt>
      <trkpt lat="45.89655" lon="4.81979">
        <ele>172</ele>
        <time>2018-06-13T14:05:50Z</time>
      </trkpt>
      <trkpt lat="45.89651" lon="4.81983">
        <ele>172</ele>
        <time>2018-06-13T14:05:51Z</time>
      </trkpt>
      <trkpt lat="45.89647" lon="4.81987">
        <ele>172</ele>
        <time>2018-06-13T14:05:52Z</time>
      </trkpt>
      <trkpt lat="45.89643" lon="4.81994">
        <ele>172</ele>
        <time>2018-06-13T14:05:53Z</time>
      </trkpt>
      <trkpt lat="45.89639" lon="4.81998">
        <ele>172</ele>
        <time>2018-06-13T14:05:54Z</time>
      </trkpt>
      <trkpt lat="45.89634" lon="4.82001">
        <ele>173</ele>
        <time>2018-06-13T14:05:55Z</time>
      </trkpt>
      <trkpt lat="45.89629" lon="4.82005">
        <ele>173</ele>
        <time>2018-06-13T14:05:56Z</time>
      </trkpt>
      <trkpt lat="45.89625" lon="4.82008">
        <ele>173</ele>
        <time>2018-06-13T14:05:57Z</time>
      </trkpt>
      <trkpt lat="45.89621" lon="4.82011">
        <ele>173</ele>
        <time>2018-06-13T14:05:58Z</time>
      </trkpt>
      <trkpt lat="45.89617" lon="4.82014">
        <ele>173</ele>
        <time>2018-06-13T14:05:59Z</time>
      </trkpt>
      <trkpt lat="45.89613" lon="4.82019">
        <ele>173</ele>
        <time>2018-06-13T14:06:00Z</time>
      </trkpt>
      <trkpt lat="45.89609" lon="4.82021">
        <ele>173</ele>
        <time>2018-06-13T14:06:01Z</time>
      </trkpt>
      <trkpt lat="45.89605" lon="4.82025">
        <ele>173</ele>
        <time>2018-06-13T14:06:02Z</time>
      </trkpt>
      <trkpt lat="45.89599" lon="4.8203">
        <ele>173</ele>
        <time>2018-06-13T14:06:04Z</time>
      </trkpt>
      <trkpt lat="45.89594" lon="4.82034">
        <ele>173</ele>
        <time>2018-06-13T14:06:05Z</time>
      </trkpt>
      <trkpt lat="45.8959" lon="4.82036">
        <ele>173</ele>
        <time>2018-06-13T14:06:06Z</time>
      </trkpt>
      <trkpt lat="45.89585" lon="4.82038">
        <ele>173</ele>
        <time>2018-06-13T14:06:07Z</time>
      </trkpt>
      <trkpt lat="45.8958" lon="4.82041">
        <ele>172</ele>
        <time>2018-06-13T14:06:08Z</time>
      </trkpt>
      <trkpt lat="45.89574" lon="4.82047">
        <ele>172</ele>
        <time>2018-06-13T14:06:09Z</time>
      </trkpt>
      <trkpt lat="45.8957" lon="4.82051">
        <ele>172</ele>
        <time>2018-06-13T14:06:10Z</time>
      </trkpt>
      <trkpt lat="45.89564" lon="4.82053">
        <ele>172</ele>
        <time>2018-06-13T14:06:11Z</time>
      </trkpt>
      <trkpt lat="45.89559" lon="4.82056">
        <ele>172</ele>
        <time>2018-06-13T14:06:12Z</time>
      </trkpt>
      <trkpt lat="45.89553" lon="4.82059">
        <ele>172</ele>
        <time>2018-06-13T14:06:13Z</time>
      </trkpt>
      <trkpt lat="45.89549" lon="4.82062">
        <ele>172</ele>
        <time>2018-06-13T14:06:14Z</time>
      </trkpt>
      <trkpt lat="45.89543" lon="4.82064">
        <ele>172</ele>
        <time>2018-06-13T14:06:15Z</time>
      </trkpt>
      <trkpt lat="45.89538" lon="4.82065">
        <ele>172</ele>
        <time>2018-06-13T14:06:16Z</time>
      </trkpt>
      <trkpt lat="45.89533" lon="4.82066">
        <ele>172</ele>
        <time>2018-06-13T14:06:17Z</time>
      </trkpt>
      <trkpt lat="45.89525" lon="4.82067">
        <ele>172</ele>
        <time>2018-06-13T14:06:19Z</time>
      </trkpt>
      <trkpt lat="45.8952" lon="4.82069">
        <ele>172</ele>
        <time>2018-06-13T14:06:20Z</time>
      </trkpt>
      <trkpt lat="45.89514" lon="4.82078">
        <ele>172</ele>
        <time>2018-06-13T14:06:22Z</time>
      </trkpt>
      <trkpt lat="45.89512" lon="4.82083">
        <ele>172</ele>
        <time>2018-06-13T14:06:23Z</time>
      </trkpt>
      <trkpt lat="45.8951" lon="4.82089">
        <ele>172</ele>
        <time>2018-06-13T14:06:24Z</time>
      </trkpt>
      <trkpt lat="45.89509" lon="4.82096">
        <ele>172</ele>
        <time>2018-06-13T14:06:25Z</time>
      </trkpt>
      <trkpt lat="45.89508" lon="4.82103">
        <ele>172</ele>
        <time>2018-06-13T14:06:26Z</time>
      </trkpt>
      <trkpt lat="45.89507" lon="4.82111">
        <ele>172</ele>
        <time>2018-06-13T14:06:27Z</time>
      </trkpt>
      <trkpt lat="45.89507" lon="4.82119">
        <ele>172</ele>
        <time>2018-06-13T14:06:28Z</time>
      </trkpt>
      <trkpt lat="45.89502" lon="4.82123">
        <ele>172</ele>
        <time>2018-06-13T14:06:29Z</time>
      </trkpt>
      <trkpt lat="45.89499" lon="4.82126">
        <ele>172</ele>
        <time>2018-06-13T14:06:30Z</time>
      </trkpt>
      <trkpt lat="45.89494" lon="4.82129">
        <ele>172</ele>
        <time>2018-06-13T14:06:31Z</time>
      </trkpt>
      <trkpt lat="45.8949" lon="4.82133">
        <ele>172</ele>
        <time>2018-06-13T14:06:32Z</time>
      </trkpt>
      <trkpt lat="45.89486" lon="4.82138">
        <ele>172</ele>
        <time>2018-06-13T14:06:33Z</time>
      </trkpt>
      <trkpt lat="45.89483" lon="4.82141">
        <ele>172</ele>
        <time>2018-06-13T14:06:34Z</time>
      </trkpt>
      <trkpt lat="45.89478" lon="4.82146">
        <ele>172</ele>
        <time>2018-06-13T14:06:35Z</time>
      </trkpt>
      <trkpt lat="45.89475" lon="4.82151">
        <ele>171</ele>
        <time>2018-06-13T14:06:36Z</time>
      </trkpt>
      <trkpt lat="45.89471" lon="4.82156">
        <ele>171</ele>
        <time>2018-06-13T14:06:37Z</time>
      </trkpt>
      <trkpt lat="45.89467" lon="4.8216">
        <ele>171</ele>
        <time>2018-06-13T14:06:38Z</time>
      </trkpt>
      <trkpt lat="45.89462" lon="4.82165">
        <ele>171</ele>
        <time>2018-06-13T14:06:39Z</time>
      </trkpt>
      <trkpt lat="45.89458" lon="4.82169">
        <ele>171</ele>
        <time>2018-06-13T14:06:40Z</time>
      </trkpt>
      <trkpt lat="45.89455" lon="4.82175">
        <ele>171</ele>
        <time>2018-06-13T14:06:41Z</time>
      </trkpt>
      <trkpt lat="45.89449" lon="4.82184">
        <ele>171</ele>
        <time>2018-06-13T14:06:43Z</time>
      </trkpt>
      <trkpt lat="45.89446" lon="4.82188">
        <ele>171</ele>
        <time>2018-06-13T14:06:44Z</time>
      </trkpt>
      <trkpt lat="45.89441" lon="4.82193">
        <ele>171</ele>
        <time>2018-06-13T14:06:45Z</time>
      </trkpt>
      <trkpt lat="45.89438" lon="4.82197">
        <ele>171</ele>
        <time>2018-06-13T14:06:46Z</time>
      </trkpt>
      <trkpt lat="45.89434" lon="4.82202">
        <ele>171</ele>
        <time>2018-06-13T14:06:47Z</time>
      </trkpt>
      <trkpt lat="45.8943" lon="4.82206">
        <ele>171</ele>
        <time>2018-06-13T14:06:48Z</time>
      </trkpt>
      <trkpt lat="45.89426" lon="4.8221">
        <ele>171</ele>
        <time>2018-06-13T14:06:49Z</time>
      </trkpt>
      <trkpt lat="45.89422" lon="4.82215">
        <ele>171</ele>
        <time>2018-06-13T14:06:50Z</time>
      </trkpt>
      <trkpt lat="45.89417" lon="4.82224">
        <ele>171</ele>
        <time>2018-06-13T14:06:52Z</time>
      </trkpt>
      <trkpt lat="45.89413" lon="4.82229">
        <ele>171</ele>
        <time>2018-06-13T14:06:53Z</time>
      </trkpt>
      <trkpt lat="45.89409" lon="4.82234">
        <ele>171</ele>
        <time>2018-06-13T14:06:54Z</time>
      </trkpt>
      <trkpt lat="45.89406" lon="4.82238">
        <ele>171</ele>
        <time>2018-06-13T14:06:55Z</time>
      </trkpt>
      <trkpt lat="45.894" lon="4.82247">
        <ele>171</ele>
        <time>2018-06-13T14:06:57Z</time>
      </trkpt>
      <trkpt lat="45.89395" lon="4.82251">
        <ele>172</ele>
        <time>2018-06-13T14:06:58Z</time>
      </trkpt>
      <trkpt lat="45.89391" lon="4.82254">
        <ele>172</ele>
        <time>2018-06-13T14:06:59Z</time>
      </trkpt>
      <trkpt lat="45.89387" lon="4.82259">
        <ele>172</ele>
        <time>2018-06-13T14:07:00Z</time>
      </trkpt>
      <trkpt lat="45.89383" lon="4.82264">
        <ele>172</ele>
        <time>2018-06-13T14:07:01Z</time>
      </trkpt>
      <trkpt lat="45.89379" lon="4.82267">
        <ele>172</ele>
        <time>2018-06-13T14:07:02Z</time>
      </trkpt>
      <trkpt lat="45.89375" lon="4.82272">
        <ele>172</ele>
        <time>2018-06-13T14:07:03Z</time>
      </trkpt>
      <trkpt lat="45.89372" lon="4.82277">
        <ele>172</ele>
        <time>2018-06-13T14:07:04Z</time>
      </trkpt>
      <trkpt lat="45.89368" lon="4.8228">
        <ele>172</ele>
        <time>2018-06-13T14:07:05Z</time>
      </trkpt>
      <trkpt lat="45.89364" lon="4.82284">
        <ele>172</ele>
        <time>2018-06-13T14:07:06Z</time>
      </trkpt>
      <trkpt lat="45.8936" lon="4.82289">
        <ele>172</ele>
        <time>2018-06-13T14:07:07Z</time>
      </trkpt>
      <trkpt lat="45.89357" lon="4.82293">
        <ele>172</ele>
        <time>2018-06-13T14:07:08Z</time>
      </trkpt>
      <trkpt lat="45.89349" lon="4.823">
        <ele>172</ele>
        <time>2018-06-13T14:07:10Z</time>
      </trkpt>
      <trkpt lat="45.89347" lon="4.82305">
        <ele>172</ele>
        <time>2018-06-13T14:07:11Z</time>
      </trkpt>
      <trkpt lat="45.8934" lon="4.82312">
        <ele>172</ele>
        <time>2018-06-13T14:07:13Z</time>
      </trkpt>
      <trkpt lat="45.89337" lon="4.82315">
        <ele>172</ele>
        <time>2018-06-13T14:07:14Z</time>
      </trkpt>
      <trkpt lat="45.89334" lon="4.82319">
        <ele>172</ele>
        <time>2018-06-13T14:07:15Z</time>
      </trkpt>
      <trkpt lat="45.8933" lon="4.82324">
        <ele>172</ele>
        <time>2018-06-13T14:07:16Z</time>
      </trkpt>
      <trkpt lat="45.89325" lon="4.82329">
        <ele>172</ele>
        <time>2018-06-13T14:07:17Z</time>
      </trkpt>
      <trkpt lat="45.89322" lon="4.82332">
        <ele>172</ele>
        <time>2018-06-13T14:07:18Z</time>
      </trkpt>
      <trkpt lat="45.89318" lon="4.82336">
        <ele>172</ele>
        <time>2018-06-13T14:07:19Z</time>
      </trkpt>
      <trkpt lat="45.89314" lon="4.8234">
        <ele>173</ele>
        <time>2018-06-13T14:07:20Z</time>
      </trkpt>
      <trkpt lat="45.89312" lon="4.8235">
        <ele>173</ele>
        <time>2018-06-13T14:07:21Z</time>
      </trkpt>
      <trkpt lat="45.89307" lon="4.82355">
        <ele>173</ele>
        <time>2018-06-13T14:07:22Z</time>
      </trkpt>
      <trkpt lat="45.89301" lon="4.82364">
        <ele>173</ele>
        <time>2018-06-13T14:07:24Z</time>
      </trkpt>
      <trkpt lat="45.89297" lon="4.82367">
        <ele>173</ele>
        <time>2018-06-13T14:07:25Z</time>
      </trkpt>
      <trkpt lat="45.89294" lon="4.82372">
        <ele>173</ele>
        <time>2018-06-13T14:07:26Z</time>
      </trkpt>
      <trkpt lat="45.8929" lon="4.82376">
        <ele>173</ele>
        <time>2018-06-13T14:07:27Z</time>
      </trkpt>
      <trkpt lat="45.89288" lon="4.82382">
        <ele>173</ele>
        <time>2018-06-13T14:07:29Z</time>
      </trkpt>
      <trkpt lat="45.89284" lon="4.82387">
        <ele>173</ele>
        <time>2018-06-13T14:07:30Z</time>
      </trkpt>
      <trkpt lat="45.8928" lon="4.8239">
        <ele>173</ele>
        <time>2018-06-13T14:07:31Z</time>
      </trkpt>
      <trkpt lat="45.89276" lon="4.82393">
        <ele>173</ele>
        <time>2018-06-13T14:07:32Z</time>
      </trkpt>
      <trkpt lat="45.89271" lon="4.82396">
        <ele>173</ele>
        <time>2018-06-13T14:07:33Z</time>
      </trkpt>
      <trkpt lat="45.89266" lon="4.82401">
        <ele>173</ele>
        <time>2018-06-13T14:07:34Z</time>
      </trkpt>
      <trkpt lat="45.89261" lon="4.82404">
        <ele>173</ele>
        <time>2018-06-13T14:07:35Z</time>
      </trkpt>
      <trkpt lat="45.89258" lon="4.82408">
        <ele>173</ele>
        <time>2018-06-13T14:07:36Z</time>
      </trkpt>
      <trkpt lat="45.8925" lon="4.82413">
        <ele>173</ele>
        <time>2018-06-13T14:07:38Z</time>
      </trkpt>
      <trkpt lat="45.89246" lon="4.82416">
        <ele>173</ele>
        <time>2018-06-13T14:07:39Z</time>
      </trkpt>
      <trkpt lat="45.89241" lon="4.8242">
        <ele>173</ele>
        <time>2018-06-13T14:07:40Z</time>
      </trkpt>
      <trkpt lat="45.89237" lon="4.82424">
        <ele>173</ele>
        <time>2018-06-13T14:07:41Z</time>
      </trkpt>
      <trkpt lat="45.89233" lon="4.82427">
        <ele>173</ele>
        <time>2018-06-13T14:07:42Z</time>
      </trkpt>
      <trkpt lat="45.89228" lon="4.82431">
        <ele>173</ele>
        <time>2018-06-13T14:07:43Z</time>
      </trkpt>
      <trkpt lat="45.89223" lon="4.82435">
        <ele>173</ele>
        <time>2018-06-13T14:07:44Z</time>
      </trkpt>
      <trkpt lat="45.89218" lon="4.82437">
        <ele>173</ele>
        <time>2018-06-13T14:07:45Z</time>
      </trkpt>
      <trkpt lat="45.89213" lon="4.8244">
        <ele>173</ele>
        <time>2018-06-13T14:07:46Z</time>
      </trkpt>
      <trkpt lat="45.89208" lon="4.82445">
        <ele>172</ele>
        <time>2018-06-13T14:07:47Z</time>
      </trkpt>
      <trkpt lat="45.892" lon="4.82451">
        <ele>172</ele>
        <time>2018-06-13T14:07:49Z</time>
      </trkpt>
      <trkpt lat="45.89195" lon="4.82454">
        <ele>172</ele>
        <time>2018-06-13T14:07:50Z</time>
      </trkpt>
      <trkpt lat="45.89191" lon="4.82457">
        <ele>172</ele>
        <time>2018-06-13T14:07:51Z</time>
      </trkpt>
      <trkpt lat="45.89187" lon="4.82459">
        <ele>172</ele>
        <time>2018-06-13T14:07:52Z</time>
      </trkpt>
      <trkpt lat="45.89179" lon="4.82464">
        <ele>172</ele>
        <time>2018-06-13T14:07:54Z</time>
      </trkpt>
      <trkpt lat="45.89175" lon="4.82466">
        <ele>172</ele>
        <time>2018-06-13T14:07:55Z</time>
      </trkpt>
      <trkpt lat="45.89171" lon="4.82469">
        <ele>172</ele>
        <time>2018-06-13T14:07:56Z</time>
      </trkpt>
      <trkpt lat="45.89166" lon="4.82472">
        <ele>172</ele>
        <time>2018-06-13T14:07:57Z</time>
      </trkpt>
      <trkpt lat="45.89162" lon="4.82475">
        <ele>172</ele>
        <time>2018-06-13T14:07:58Z</time>
      </trkpt>
      <trkpt lat="45.89156" lon="4.82478">
        <ele>172</ele>
        <time>2018-06-13T14:07:59Z</time>
      </trkpt>
      <trkpt lat="45.89151" lon="4.82483">
        <ele>172</ele>
        <time>2018-06-13T14:08:00Z</time>
      </trkpt>
      <trkpt lat="45.89146" lon="4.82486">
        <ele>172</ele>
        <time>2018-06-13T14:08:01Z</time>
      </trkpt>
      <trkpt lat="45.89141" lon="4.82491">
        <ele>172</ele>
        <time>2018-06-13T14:08:02Z</time>
      </trkpt>
      <trkpt lat="45.89136" lon="4.82496">
        <ele>172</ele>
        <time>2018-06-13T14:08:03Z</time>
      </trkpt>
      <trkpt lat="45.89132" lon="4.82501">
        <ele>173</ele>
        <time>2018-06-13T14:08:04Z</time>
      </trkpt>
      <trkpt lat="45.89128" lon="4.82506">
        <ele>173</ele>
        <time>2018-06-13T14:08:05Z</time>
      </trkpt>
      <trkpt lat="45.89125" lon="4.82511">
        <ele>173</ele>
        <time>2018-06-13T14:08:06Z</time>
      </trkpt>
      <trkpt lat="45.8912" lon="4.82514">
        <ele>173</ele>
        <time>2018-06-13T14:08:07Z</time>
      </trkpt>
      <trkpt lat="45.89115" lon="4.82517">
        <ele>173</ele>
        <time>2018-06-13T14:08:08Z</time>
      </trkpt>
      <trkpt lat="45.89109" lon="4.82519">
        <ele>173</ele>
        <time>2018-06-13T14:08:09Z</time>
      </trkpt>
      <trkpt lat="45.89104" lon="4.82521">
        <ele>173</ele>
        <time>2018-06-13T14:08:10Z</time>
      </trkpt>
      <trkpt lat="45.891" lon="4.82523">
        <ele>173</ele>
        <time>2018-06-13T14:08:11Z</time>
      </trkpt>
      <trkpt lat="45.89095" lon="4.82527">
        <ele>173</ele>
        <time>2018-06-13T14:08:12Z</time>
      </trkpt>
      <trkpt lat="45.89091" lon="4.82533">
        <ele>173</ele>
        <time>2018-06-13T14:08:13Z</time>
      </trkpt>
      <trkpt lat="45.89086" lon="4.82539">
        <ele>173</ele>
        <time>2018-06-13T14:08:14Z</time>
      </trkpt>
      <trkpt lat="45.89083" lon="4.82547">
        <ele>174</ele>
        <time>2018-06-13T14:08:15Z</time>
      </trkpt>
      <trkpt lat="45.89082" lon="4.82555">
        <ele>174</ele>
        <time>2018-06-13T14:08:16Z</time>
      </trkpt>
      <trkpt lat="45.89082" lon="4.82564">
        <ele>174</ele>
        <time>2018-06-13T14:08:17Z</time>
      </trkpt>
      <trkpt lat="45.8908" lon="4.82574">
        <ele>174</ele>
        <time>2018-06-13T14:08:18Z</time>
      </trkpt>
      <trkpt lat="45.89081" lon="4.82582">
        <ele>174</ele>
        <time>2018-06-13T14:08:19Z</time>
      </trkpt>
      <trkpt lat="45.89083" lon="4.82589">
        <ele>174</ele>
        <time>2018-06-13T14:08:20Z</time>
      </trkpt>
      <trkpt lat="45.89086" lon="4.82595">
        <ele>174</ele>
        <time>2018-06-13T14:08:21Z</time>
      </trkpt>
      <trkpt lat="45.89091" lon="4.82602">
        <ele>174</ele>
        <time>2018-06-13T14:08:24Z</time>
      </trkpt>
      <trkpt lat="45.89092" lon="4.82604">
        <ele>174</ele>
        <time>2018-06-13T14:08:25Z</time>
      </trkpt>
      <trkpt lat="45.89094" lon="4.82616">
        <ele>174</ele>
        <time>2018-06-13T14:08:40Z</time>
      </trkpt>
      <trkpt lat="45.89094" lon="4.82617">
        <ele>174</ele>
        <time>2018-06-13T14:08:41Z</time>
      </trkpt>
      <trkpt lat="45.89088" lon="4.82626">
        <ele>174</ele>
        <time>2018-06-13T14:08:52Z</time>
      </trkpt>
      <trkpt lat="45.89087" lon="4.82626">
        <ele>174</ele>
        <time>2018-06-13T14:08:53Z</time>
      </trkpt>
      <trkpt lat="45.89086" lon="4.82638">
        <ele>174</ele>
        <time>2018-06-13T14:09:10Z</time>
      </trkpt>
      <trkpt lat="45.89087" lon="4.8264">
        <ele>174</ele>
        <time>2018-06-13T14:09:11Z</time>
      </trkpt>
      <trkpt lat="45.89091" lon="4.8265">
        <ele>174</ele>
        <time>2018-06-13T14:09:19Z</time>
      </trkpt>
      <trkpt lat="45.89092" lon="4.82652">
        <ele>174</ele>
        <time>2018-06-13T14:09:20Z</time>
      </trkpt>
      <trkpt lat="45.89088" lon="4.82661">
        <ele>174</ele>
        <time>2018-06-13T14:09:26Z</time>
      </trkpt>
      <trkpt lat="45.89087" lon="4.82662">
        <ele>174</ele>
        <time>2018-06-13T14:09:27Z</time>
      </trkpt>
      <trkpt lat="45.89079" lon="4.82669">
        <ele>174</ele>
        <time>2018-06-13T14:09:33Z</time>
      </trkpt>
      <trkpt lat="45.89078" lon="4.82669">
        <ele>174</ele>
        <time>2018-06-13T14:09:34Z</time>
      </trkpt>
      <trkpt lat="45.89072" lon="4.82677">
        <ele>174</ele>
        <time>2018-06-13T14:09:48Z</time>
      </trkpt>
      <trkpt lat="45.89071" lon="4.82678">
        <ele>174</ele>
        <time>2018-06-13T14:09:49Z</time>
      </trkpt>
      <trkpt lat="45.89067" lon="4.82689">
        <ele>173</ele>
        <time>2018-06-13T14:10:04Z</time>
      </trkpt>
      <trkpt lat="45.89067" lon="4.8269">
        <ele>173</ele>
        <time>2018-06-13T14:10:05Z</time>
      </trkpt>
      <trkpt lat="45.89062" lon="4.827">
        <ele>173</ele>
        <time>2018-06-13T14:10:48Z</time>
      </trkpt>
      <trkpt lat="45.89062" lon="4.82701">
        <ele>173</ele>
        <time>2018-06-13T14:10:49Z</time>
      </trkpt>
      <trkpt lat="45.89064" lon="4.8271">
        <ele>173</ele>
        <time>2018-06-13T14:11:01.647Z</time>
      </trkpt>
    </trkseg>
  </trk>
</gpx>